| time (UTC) | temp C | wind direction | speed KPH | gust KPH | rain 1hr cm | rain 24hr cm | rain mn cm | humidity % | barometer mb |
| 20260902223151 | 31 | 31 | 1.6 | 3.2 | 0.00 | 0.00 | 0.00 | 54 | 1014.4 |
| 20260902223029 | 31 | 32 | 0.0 | 4.8 | 0.00 | 0.00 | 0.00 | 54 | 1014.4 |
| 20260902222927 | 31 | 34 | 1.6 | 4.8 | 0.00 | 0.00 | 0.00 | 53 | 1014.4 |
| 20260902222824 | 31 | 34 | 1.6 | 4.8 | 0.00 | 0.00 | 0.00 | 52 | 1014.4 |
| 20260902222726 | 31 | 34 | 3.2 | 4.8 | 0.00 | 0.00 | 0.00 | 52 | 1014.5 |
| 20260902222645 | 31 | 34 | 1.6 | 4.8 | 0.00 | 0.00 | 0.00 | 52 | 1014.5 |
| 20260902222603 | 31 | 34 | 0.0 | 4.8 | 0.00 | 0.00 | 0.00 | 52 | 1014.5 |
| 20260902222441 | 31 | 34 | 0.0 | 4.8 | 0.00 | 0.00 | 0.00 | 52 | 1014.5 |
| 20260902222340 | 31 | 31 | 0.0 | 4.8 | 0.00 | 0.00 | 0.00 | 52 | 1014.5 |
| 20260902222238 | 31 | 34 | 1.6 | 4.8 | 0.00 | 0.00 | 0.00 | 52 | 1014.5 |
| 20260902222134 | 31 | 34 | 3.2 | 4.8 | 0.00 | 0.00 | 0.00 | 52 | 1014.5 |
| 20260902222032 | 31 | 34 | 3.2 | 4.8 | 0.00 | 0.00 | 0.00 | 51 | 1014.5 |
| 20260902221935 | 31 | 32 | 0.0 | 3.2 | 0.00 | 0.00 | 0.00 | 51 | 1014.5 |
| 20260902221834 | 31 | 32 | 0.0 | 3.2 | 0.00 | 0.00 | 0.00 | 50 | 1014.5 |
| 20260902221731 | 31 | 32 | 0.0 | 4.8 | 0.00 | 0.00 | 0.00 | 50 | 1014.5 |
| 20260902221702 | 31 | 32 | 0.0 | 4.8 | 0.00 | 0.00 | 0.00 | 51 | 1014.5 |
| 20260902221558 | 31 | 32 | 0.0 | 4.8 | 0.00 | 0.00 | 0.00 | 50 | 1014.5 |
| 20260902221436 | 31 | 32 | 1.6 | 4.8 | 0.00 | 0.00 | 0.00 | 48 | 1014.5 |
| 20260902221335 | 31 | 34 | 1.6 | 4.8 | 0.00 | 0.00 | 0.00 | 49 | 1014.5 |
| 20260902221254 | 31 | 34 | 1.6 | 4.8 | 0.00 | 0.00 | 0.00 | 52 | 1014.4 |
| 20260902221134 | 31 | 32 | 1.6 | 4.8 | 0.00 | 0.00 | 0.00 | 52 | 1014.4 |
| 20260902221032 | 31 | 34 | 0.0 | 4.8 | 0.00 | 0.00 | 0.00 | 52 | 1014.4 |
| 20260902220931 | 31 | 32 | 3.2 | 4.8 | 0.00 | 0.00 | 0.00 | 52 | 1014.4 |
| 20260902220829 | 31 | 32 | 1.6 | 4.8 | 0.00 | 0.00 | 0.00 | 52 | 1014.4 |
| 20260902220727 | 31 | 31 | 1.6 | 6.4 | 0.00 | 0.00 | 0.00 | 52 | 1014.4 |
| 20260902220625 | 31 | 34 | 3.2 | 8.0 | 0.00 | 0.00 | 0.00 | 51 | 1014.4 |
| 20260902220526 | 31 | 20 | 3.2 | 8.0 | 0.00 | 0.00 | 0.00 | 50 | 1014.4 |
| 20260902220448 | 31 | 21 | 1.6 | 8.0 | 0.00 | 0.00 | 0.00 | 51 | 1014.4 |
| 20260902220326 | 31 | 21 | 0.0 | 8.0 | 0.00 | 0.00 | 0.00 | 51 | 1014.4 |
| 20260902220245 | 31 | 20 | 1.6 | 8.0 | 0.00 | 0.00 | 0.00 | 51 | 1014.4 |
| 20260902220154 | 31 | 21 | 3.2 | 8.0 | 0.00 | 0.00 | 0.00 | 51 | 1014.4 |
| 20260902220030 | 31 | 21 | 4.8 | 8.0 | 0.00 | 0.00 | 0.00 | 51 | 1014.4 |
| 20260902215928 | 31 | 20 | 4.8 | 8.0 | 0.00 | 0.00 | 0.00 | 50 | 1014.4 |
| 20260902215847 | 31 | 20 | 6.4 | 8.0 | 0.00 | 0.00 | 0.00 | 51 | 1014.4 |
| 20260902215745 | 31 | 20 | 8.0 | 8.0 | 0.00 | 0.00 | 0.00 | 50 | 1014.6 |
| 20260902215703 | 31 | 20 | 6.4 | 8.0 | 0.00 | 0.00 | 0.00 | 50 | 1014.6 |
| 20260902215524 | 31 | 7 | 3.2 | 6.4 | 0.00 | 0.00 | 0.00 | 52 | 1014.6 |
| 20260902215444 | 31 | 6 | 4.8 | 6.4 | 0.00 | 0.00 | 0.00 | 52 | 1014.6 |
| 20260902215402 | 31 | 6 | 4.8 | 6.4 | 0.00 | 0.00 | 0.00 | 51 | 1014.6 |
| 20260902215239 | 31 | 4 | 3.2 | 4.8 | 0.00 | 0.00 | 0.00 | 51 | 1014.6 |
| 20260902215137 | 31 | 6 | 0.0 | 3.2 | 0.00 | 0.00 | 0.00 | 48 | 1014.6 |
| 20260902215036 | 31 | 6 | 0.0 | 0.0 | 0.00 | 0.00 | 0.00 | 47 | 1014.6 |
| 20260902214934 | 31 | 6 | 0.0 | 0.0 | 0.00 | 0.00 | 0.00 | 49 | 1014.6 |
| 20260902214852 | 31 | 6 | 0.0 | 3.2 | 0.00 | 0.00 | 0.00 | 49 | 1014.6 |
| 20260902214816 | 31 | 4 | 0.0 | 4.8 | 0.00 | 0.00 | 0.00 | 50 | 1014.6 |
| 20260902214704 | 31 | 6 | 0.0 | 8.0 | 0.00 | 0.00 | 0.00 | 49 | 1014.6 |
| 20260902214542 | 31 | 6 | 0.0 | 8.0 | 0.00 | 0.00 | 0.00 | 48 | 1014.6 |
| 20260902214440 | 31 | 4 | 0.0 | 8.0 | 0.00 | 0.00 | 0.00 | 48 | 1014.6 |
| 20260902214338 | 31 | 6 | 0.0 | 8.0 | 0.00 | 0.00 | 0.00 | 49 | 1014.6 |
| 20260902214236 | 31 | 3 | 0.0 | 8.0 | 0.00 | 0.00 | 0.00 | 49 | 1014.7 |
| 20260902214134 | 31 | 6 | 0.0 | 8.0 | 0.00 | 0.00 | 0.00 | 49 | 1014.7 |
| 20260902214036 | 31 | 4 | 1.6 | 8.0 | 0.00 | 0.00 | 0.00 | 48 | 1014.7 |
| 20260902213935 | 31 | 360 | 3.2 | 8.0 | 0.00 | 0.00 | 0.00 | 50 | 1014.7 |
| 20260902213834 | 31 | 7 | 4.8 | 8.0 | 0.00 | 0.00 | 0.00 | 50 | 1014.7 |
| 20260902213732 | 31 | 6 | 4.8 | 8.0 | 0.00 | 0.00 | 0.00 | 50 | 1014.7 |
| 20260902213630 | 31 | 4 | 4.8 | 6.4 | 0.00 | 0.00 | 0.00 | 50 | 1014.7 |
| 20260902213529 | 31 | 3 | 1.6 | 3.2 | 0.00 | 0.00 | 0.00 | 50 | 1014.7 |
| 20260902213426 | 31 | 4 | 1.6 | 3.2 | 0.00 | 0.00 | 0.00 | 50 | 1014.7 |
| 20260902213329 | 31 | 3 | 1.6 | 3.2 | 0.00 | 0.00 | 0.00 | 49 | 1014.7 |
| 20260902213258 | 31 | 3 | 0.0 | 3.2 | 0.00 | 0.00 | 0.00 | 50 | 1014.7 |
| 20260902213147 | 31 | 360 | 0.0 | 3.2 | 0.00 | 0.00 | 0.00 | 49 | 1014.7 |
| 20260902213024 | 31 | 3 | 0.0 | 3.2 | 0.00 | 0.00 | 0.00 | 50 | 1014.7 |
| 20260902212942 | 31 | 4 | 0.0 | 3.2 | 0.00 | 0.00 | 0.00 | 50 | 1014.7 |
| 20260902212902 | 31 | 3 | 0.0 | 3.2 | 0.00 | 0.00 | 0.00 | 50 | 1014.7 |
| 20260902212738 | 31 | 3 | 3.2 | 4.8 | 0.00 | 0.00 | 0.00 | 50 | 1014.8 |
| 20260902212638 | 31 | 3 | 1.6 | 6.4 | 0.00 | 0.00 | 0.00 | 50 | 1014.8 |
| 20260902212540 | 31 | 3 | 1.6 | 6.4 | 0.00 | 0.00 | 0.00 | 50 | 1014.8 |
| 20260902212438 | 31 | 1 | 0.0 | 6.4 | 0.00 | 0.00 | 0.00 | 50 | 1014.8 |
| 20260902212336 | 31 | 1 | 0.0 | 6.4 | 0.00 | 0.00 | 0.00 | 50 | 1014.8 |
| 20260902212235 | 31 | 4 | 1.6 | 6.4 | 0.00 | 0.00 | 0.00 | 50 | 1014.8 |
| 20260902212132 | 31 | 1 | 1.6 | 6.4 | 0.00 | 0.00 | 0.00 | 49 | 1014.8 |
| 20260902212030 | 31 | 3 | 3.2 | 6.4 | 0.00 | 0.00 | 0.00 | 49 | 1014.8 |
| 20260902211929 | 31 | 3 | 3.2 | 6.4 | 0.00 | 0.00 | 0.00 | 49 | 1014.8 |
| 20260902211831 | 31 | 4 | 3.2 | 6.4 | 0.00 | 0.00 | 0.00 | 49 | 1014.8 |
| 20260902211731 | 31 | 3 | 3.2 | 8.0 | 0.00 | 0.00 | 0.00 | 49 | 1014.8 |
| 20260902211659 | 31 | 3 | 1.6 | 8.0 | 0.00 | 0.00 | 0.00 | 48 | 1014.8 |
| 20260902211537 | 31 | 3 | 3.2 | 8.0 | 0.00 | 0.00 | 0.00 | 48 | 1014.8 |
| 20260902211435 | 31 | 4 | 3.2 | 8.0 | 0.00 | 0.00 | 0.00 | 47 | 1014.8 |
| 20260902211334 | 31 | 4 | 3.2 | 8.0 | 0.00 | 0.00 | 0.00 | 48 | 1014.8 |
| 20260902211233 | 31 | 4 | 1.6 | 8.0 | 0.00 | 0.00 | 0.00 | 48 | 1014.8 |
| 20260902211135 | 31 | 4 | 0.0 | 8.0 | 0.00 | 0.00 | 0.00 | 47 | 1014.8 |
| 20260902211034 | 31 | 3 | 1.6 | 8.0 | 0.00 | 0.00 | 0.00 | 47 | 1014.8 |
| 20260902210933 | 31 | 4 | 3.2 | 8.0 | 0.00 | 0.00 | 0.00 | 46 | 1014.8 |
| 20260902210832 | 31 | 6 | 1.6 | 4.8 | 0.00 | 0.00 | 0.00 | 47 | 1014.8 |
| 20260902210729 | 31 | 1 | 3.2 | 4.8 | 0.00 | 0.00 | 0.00 | 47 | 1014.8 |
| 20260902210628 | 31 | 4 | 0.0 | 4.8 | 0.00 | 0.00 | 0.00 | 47 | 1014.8 |
| 20260902210531 | 31 | 6 | 3.2 | 4.8 | 0.00 | 0.00 | 0.00 | 46 | 1014.8 |
| 20260902210430 | 31 | 6 | 3.2 | 4.8 | 0.00 | 0.00 | 0.00 | 47 | 1014.8 |
| 20260902210329 | 31 | 4 | 1.6 | 4.8 | 0.00 | 0.00 | 0.00 | 46 | 1014.8 |
| 20260902210239 | 31 | 4 | 1.6 | 4.8 | 0.00 | 0.00 | 0.00 | 47 | 1014.8 |
| 20260902210148 | 31 | 6 | 0.0 | 4.8 | 0.00 | 0.00 | 0.00 | 48 | 1014.8 |
| 20260902210026 | 31 | 6 | 0.0 | 4.8 | 0.00 | 0.00 | 0.00 | 48 | 1014.8 |
| 20260902205925 | 31 | 4 | 1.6 | 4.8 | 0.00 | 0.00 | 0.00 | 47 | 1014.8 |
| 20260902205827 | 31 | 3 | 3.2 | 4.8 | 0.00 | 0.00 | 0.00 | 47 | 1014.8 |
| 20260902205725 | 31 | 4 | 3.2 | 6.4 | 0.00 | 0.00 | 0.00 | 46 | 1014.8 |
| 20260902205643 | 31 | 6 | 3.2 | 6.4 | 0.00 | 0.00 | 0.00 | 47 | 1014.8 |
| 20260902205541 | 31 | 4 | 3.2 | 6.4 | 0.00 | 0.00 | 0.00 | 48 | 1014.8 |
| 20260902205440 | 31 | 4 | 3.2 | 6.4 | 0.00 | 0.00 | 0.00 | 48 | 1014.8 |
| 20260902205357 | 31 | 4 | 3.2 | 6.4 | 0.00 | 0.00 | 0.00 | 48 | 1014.8 |
| 20260902205234 | 31 | 6 | 3.2 | 6.4 | 0.00 | 0.00 | 0.00 | 48 | 1014.8 |
| 20260902205137 | 31 | 4 | 1.6 | 6.4 | 0.00 | 0.00 | 0.00 | 48 | 1014.8 |
| 20260902205043 | 31 | 4 | 3.2 | 6.4 | 0.00 | 0.00 | 0.00 | 47 | 1014.8 |
| 20260902205002 | 31 | 3 | 4.8 | 6.4 | 0.00 | 0.00 | 0.00 | 47 | 1014.8 |
| 20260902204839 | 31 | 4 | 1.6 | 3.2 | 0.00 | 0.00 | 0.00 | 48 | 1014.8 |
| 20260902204757 | 31 | 4 | 0.0 | 1.6 | 0.00 | 0.00 | 0.00 | 47 | 1014.8 |
| 20260902204707 | 31 | 6 | 0.0 | 3.2 | 0.00 | 0.00 | 0.00 | 47 | 1014.8 |
| 20260902204604 | 31 | 4 | 0.0 | 3.2 | 0.00 | 0.00 | 0.00 | 46 | 1014.8 |
| 20260902204441 | 31 | 6 | 0.0 | 3.2 | 0.00 | 0.00 | 0.00 | 47 | 1014.8 |
| 20260902204340 | 31 | 1 | 0.0 | 3.2 | 0.00 | 0.00 | 0.00 | 47 | 1014.8 |
| 20260902204238 | 31 | 6 | 0.0 | 3.2 | 0.00 | 0.00 | 0.00 | 50 | 1014.9 |
| 20260902204200 | 31 | 6 | 0.0 | 3.2 | 0.00 | 0.00 | 0.00 | 50 | 1014.9 |
| 20260902204058 | 31 | 6 | 0.0 | 3.2 | 0.00 | 0.00 | 0.00 | 50 | 1014.9 |
| 20260902203936 | 31 | 6 | 0.0 | 3.2 | 0.00 | 0.00 | 0.00 | 50 | 1014.9 |
| 20260902203833 | 31 | 4 | 1.6 | 3.2 | 0.00 | 0.00 | 0.00 | 49 | 1014.9 |
| 20260902203732 | 31 | 4 | 3.2 | 3.2 | 0.00 | 0.00 | 0.00 | 50 | 1014.9 |
| 20260902203631 | 31 | 6 | 3.2 | 3.2 | 0.00 | 0.00 | 0.00 | 49 | 1014.9 |
| 20260902203529 | 31 | 4 | 1.6 | 3.2 | 0.00 | 0.00 | 0.00 | 49 | 1014.9 |
| 20260902203429 | 31 | 6 | 0.0 | 3.2 | 0.00 | 0.00 | 0.00 | 48 | 1014.9 |
| 20260902203331 | 31 | 6 | 1.6 | 4.8 | 0.00 | 0.00 | 0.00 | 48 | 1014.9 |
| 20260902203241 | 31 | 6 | 1.6 | 4.8 | 0.00 | 0.00 | 0.00 | 48 | 1014.9 |
| 20260902203151 | 31 | 6 | 1.6 | 8.0 | 0.00 | 0.00 | 0.00 | 47 | 1014.9 |
| 20260902203028 | 31 | 4 | 0.0 | 8.0 | 0.00 | 0.00 | 0.00 | 47 | 1014.9 |
| 20260902202947 | 31 | 4 | 1.6 | 9.7 | 0.00 | 0.00 | 0.00 | 47 | 1014.9 |
| 20260902202843 | 31 | 4 | 1.6 | 9.7 | 0.00 | 0.00 | 0.00 | 47 | 1014.9 |
| 20260902202742 | 31 | 4 | 3.2 | 11.3 | 0.00 | 0.00 | 0.00 | 47 | 1015.2 |
| 20260902202641 | 31 | 7 | 3.2 | 11.3 | 0.00 | 0.00 | 0.00 | 47 | 1015.2 |
| 20260902202544 | 31 | 6 | 3.2 | 11.3 | 0.00 | 0.00 | 0.00 | 47 | 1015.2 |
| 20260902202502 | 31 | 6 | 4.8 | 11.3 | 0.00 | 0.00 | 0.00 | 46 | 1015.2 |
| 20260902202339 | 31 | 6 | 4.8 | 11.3 | 0.00 | 0.00 | 0.00 | 47 | 1015.2 |
| 20260902202257 | 31 | 6 | 6.4 | 11.3 | 0.00 | 0.00 | 0.00 | 47 | 1015.2 |
| 20260902202135 | 31 | 20 | 6.4 | 11.3 | 0.00 | 0.00 | 0.00 | 47 | 1015.2 |
| 20260902202033 | 31 | 21 | 8.0 | 11.3 | 0.00 | 0.00 | 0.00 | 47 | 1015.2 |
| 20260902201952 | 31 | 24 | 6.4 | 11.3 | 0.00 | 0.00 | 0.00 | 49 | 1015.2 |
| 20260902201828 | 31 | 11 | 4.8 | 9.7 | 0.00 | 0.00 | 0.00 | 50 | 1015.2 |
| 20260902201730 | 31 | 13 | 4.8 | 9.7 | 0.00 | 0.00 | 0.00 | 49 | 1015.2 |
| 20260902201700 | 31 | 13 | 4.8 | 9.7 | 0.00 | 0.00 | 0.00 | 50 | 1015.2 |
| 20260902201538 | 31 | 6 | 4.8 | 9.7 | 0.00 | 0.00 | 0.00 | 50 | 1015.2 |
| 20260902201436 | 31 | 4 | 4.8 | 9.7 | 0.00 | 0.00 | 0.00 | 49 | 1015.2 |
| 20260902201334 | 31 | 11 | 8.0 | 9.7 | 0.00 | 0.00 | 0.00 | 49 | 1015.2 |
| 20260902201233 | 31 | 21 | 0.0 | 9.7 | 0.00 | 0.00 | 0.00 | 49 | 1015.3 |
| 20260902201131 | 31 | 18 | 1.6 | 9.7 | 0.00 | 0.00 | 0.00 | 49 | 1015.3 |
| 20260902201033 | 31 | 21 | 3.2 | 11.3 | 0.00 | 0.00 | 0.00 | 49 | 1015.3 |
| 20260902200931 | 31 | 23 | 1.6 | 11.3 | 0.00 | 0.00 | 0.00 | 50 | 1015.3 |
| 20260902200829 | 31 | 27 | 1.6 | 11.3 | 0.00 | 0.00 | 0.00 | 51 | 1015.3 |
| 20260902200748 | 31 | 25 | 1.6 | 11.3 | 0.00 | 0.00 | 0.00 | 51 | 1015.3 |
| 20260902200626 | 31 | 25 | 3.2 | 11.3 | 0.00 | 0.00 | 0.00 | 49 | 1015.3 |
| 20260902200524 | 31 | 25 | 4.8 | 11.3 | 0.00 | 0.00 | 0.00 | 50 | 1015.3 |
| 20260902200443 | 31 | 25 | 3.2 | 11.3 | 0.00 | 0.00 | 0.00 | 50 | 1015.3 |
| 20260902200326 | 31 | 23 | 6.4 | 11.3 | 0.00 | 0.00 | 0.00 | 48 | 1015.3 |
| 20260902200236 | 31 | 1 | 8.0 | 11.3 | 0.00 | 0.00 | 0.00 | 48 | 1015.3 |
| 20260902200146 | 31 | 24 | 6.4 | 11.3 | 0.00 | 0.00 | 0.00 | 50 | 1015.3 |
| 20260902200043 | 31 | 360 | 8.0 | 11.3 | 0.00 | 0.00 | 0.00 | 49 | 1015.3 |
| 20260902195942 | 31 | 14 | 8.0 | 11.3 | 0.00 | 0.00 | 0.00 | 49 | 1015.3 |
| 20260902195840 | 31 | 10 | 6.4 | 9.7 | 0.00 | 0.00 | 0.00 | 48 | 1015.3 |
| 20260902195759 | 31 | 4 | 6.4 | 9.7 | 0.00 | 0.00 | 0.00 | 50 | 1015.5 |
| 20260902195636 | 31 | 3 | 4.8 | 9.7 | 0.00 | 0.00 | 0.00 | 50 | 1015.5 |
| 20260902195555 | 31 | 3 | 4.8 | 9.7 | 0.00 | 0.00 | 0.00 | 50 | 1015.5 |
| 20260902195436 | 31 | 1 | 6.4 | 9.7 | 0.00 | 0.00 | 0.00 | 50 | 1015.5 |
| 20260902195335 | 31 | 7 | 1.6 | 8.0 | 0.00 | 0.00 | 0.00 | 50 | 1015.5 |
| 20260902195233 | 31 | 10 | 3.2 | 8.0 | 0.00 | 0.00 | 0.00 | 49 | 1015.5 |
| 20260902195152 | 31 | 1 | 0.0 | 4.8 | 0.00 | 0.00 | 0.00 | 50 | 1015.5 |
| 20260902195030 | 31 | 1 | 1.6 | 4.8 | 0.00 | 0.00 | 0.00 | 50 | 1015.5 |
| 20260902194948 | 31 | 3 | 3.2 | 8.0 | 0.00 | 0.00 | 0.00 | 50 | 1015.5 |
| 20260902194825 | 31 | 1 | 1.6 | 8.0 | 0.00 | 0.00 | 0.00 | 51 | 1015.5 |
| 20260902194739 | 31 | 1 | 3.2 | 8.0 | 0.00 | 0.00 | 0.00 | 50 | 1015.5 |
| 20260902194648 | 31 | 1 | 0.0 | 8.0 | 0.00 | 0.00 | 0.00 | 51 | 1015.5 |
| 20260902194525 | 31 | 1 | 0.0 | 9.7 | 0.00 | 0.00 | 0.00 | 50 | 1015.5 |
| 20260902194443 | 31 | 3 | 0.0 | 9.7 | 0.00 | 0.00 | 0.00 | 50 | 1015.5 |
| 20260902194341 | 31 | 1 | 0.0 | 9.7 | 0.00 | 0.00 | 0.00 | 50 | 1015.5 |
| 20260902194240 | 31 | 3 | 3.2 | 11.3 | 0.00 | 0.00 | 0.00 | 50 | 1015.6 |
| 20260902194138 | 31 | 360 | 4.8 | 11.3 | 0.00 | 0.00 | 0.00 | 49 | 1015.6 |
| 20260902194037 | 31 | 1 | 4.8 | 11.3 | 0.00 | 0.00 | 0.00 | 49 | 1015.6 |
| 20260902193938 | 31 | 7 | 4.8 | 11.3 | 0.00 | 0.00 | 0.00 | 49 | 1015.6 |
| 20260902193837 | 31 | 7 | 4.8 | 11.3 | 0.00 | 0.00 | 0.00 | 49 | 1015.6 |
| 20260902193735 | 31 | 7 | 6.4 | 11.3 | 0.00 | 0.00 | 0.00 | 50 | 1015.6 |
| 20260902193634 | 31 | 8 | 6.4 | 11.3 | 0.00 | 0.00 | 0.00 | 49 | 1015.6 |
| 20260902193533 | 31 | 11 | 6.4 | 11.3 | 0.00 | 0.00 | 0.00 | 49 | 1015.6 |
| 20260902193432 | 31 | 14 | 6.4 | 11.3 | 0.00 | 0.00 | 0.00 | 50 | 1015.6 |
| 20260902193336 | 31 | 323 | 3.2 | 4.8 | 0.00 | 0.00 | 0.00 | 50 | 1015.6 |
| 20260902193255 | 31 | 322 | 1.6 | 3.2 | 0.00 | 0.00 | 0.00 | 50 | 1015.6 |
| 20260902193205 | 31 | 322 | 0.0 | 3.2 | 0.00 | 0.00 | 0.00 | 49 | 1015.6 |
| 20260902193042 | 31 | 320 | 0.0 | 3.2 | 0.00 | 0.00 | 0.00 | 49 | 1015.6 |
| 20260902192939 | 31 | 320 | 0.0 | 3.2 | 0.00 | 0.00 | 0.00 | 49 | 1015.6 |
| 20260902192837 | 31 | 320 | 0.0 | 3.2 | 0.00 | 0.00 | 0.00 | 50 | 1015.6 |
| 20260902192756 | 31 | 320 | 0.0 | 3.2 | 0.00 | 0.00 | 0.00 | 51 | 1015.8 |
| 20260902192632 | 31 | 320 | 1.6 | 3.2 | 0.00 | 0.00 | 0.00 | 52 | 1015.8 |
| 20260902192536 | 31 | 360 | 0.0 | 4.8 | 0.00 | 0.00 | 0.00 | 52 | 1015.8 |
| 20260902192435 | 31 | 360 | 0.0 | 4.8 | 0.00 | 0.00 | 0.00 | 52 | 1015.8 |
| 20260902192333 | 31 | 1 | 0.0 | 4.8 | 0.00 | 0.00 | 0.00 | 51 | 1015.8 |
| 20260902192252 | 31 | 1 | 0.0 | 4.8 | 0.00 | 0.00 | 0.00 | 53 | 1015.8 |
| 20260902192129 | 31 | 1 | 1.6 | 4.8 | 0.00 | 0.00 | 0.00 | 53 | 1015.8 |
| 20260902192027 | 31 | 1 | 0.0 | 4.8 | 0.00 | 0.00 | 0.00 | 52 | 1015.8 |
| 20260902191927 | 31 | 3 | 0.0 | 4.8 | 0.00 | 0.00 | 0.00 | 52 | 1015.8 |
| 20260902191833 | 31 | 4 | 1.6 | 4.8 | 0.00 | 0.00 | 0.00 | 50 | 1015.8 |
| 20260902191751 | 31 | 3 | 3.2 | 4.8 | 0.00 | 0.00 | 0.00 | 50 | 1015.8 |
| 20260902191659 | 31 | 3 | 3.2 | 4.8 | 0.00 | 0.00 | 0.00 | 50 | 1015.8 |
| 20260902191537 | 31 | 3 | 1.6 | 4.8 | 0.00 | 0.00 | 0.00 | 49 | 1015.8 |
| 20260902191436 | 31 | 1 | 1.6 | 4.8 | 0.00 | 0.00 | 0.00 | 49 | 1015.8 |
| 20260902191335 | 31 | 360 | 1.6 | 4.8 | 0.00 | 0.00 | 0.00 | 50 | 1015.8 |
| 20260902191236 | 31 | 1 | 0.0 | 4.8 | 0.00 | 0.00 | 0.00 | 50 | 1016.9 |
| 20260902191135 | 31 | 1 | 0.0 | 4.8 | 0.00 | 0.00 | 0.00 | 51 | 1016.9 |
| 20260902191037 | 31 | 1 | 3.2 | 4.8 | 0.00 | 0.00 | 0.00 | 50 | 1016.9 |
| 20260902190956 | 31 | 1 | 1.6 | 4.8 | 0.00 | 0.00 | 0.00 | 50 | 1016.9 |
| 20260902190833 | 31 | 1 | 0.0 | 4.8 | 0.00 | 0.00 | 0.00 | 52 | 1016.9 |
| 20260902190751 | 31 | 1 | 1.6 | 4.8 | 0.00 | 0.00 | 0.00 | 52 | 1016.9 |
| 20260902190629 | 31 | 4 | 0.0 | 4.8 | 0.00 | 0.00 | 0.00 | 53 | 1016.9 |
| 20260902190528 | 31 | 6 | 0.0 | 4.8 | 0.00 | 0.00 | 0.00 | 52 | 1016.9 |
| 20260902190426 | 31 | 6 | 0.0 | 4.8 | 0.00 | 0.00 | 0.00 | 51 | 1016.9 |
| 20260902190345 | 31 | 6 | 0.0 | 4.8 | 0.00 | 0.00 | 0.00 | 51 | 1016.9 |
| 20260902190227 | 31 | 6 | 1.6 | 4.8 | 0.00 | 0.00 | 0.00 | 51 | 1016.9 |
| 20260902190157 | 31 | 7 | 3.2 | 4.8 | 0.00 | 0.00 | 0.00 | 51 | 1016.9 |
| 20260902190036 | 31 | 4 | 1.6 | 4.8 | 0.00 | 0.00 | 0.00 | 51 | 1016.9 |
| 20260902185935 | 31 | 6 | 0.0 | 4.8 | 0.00 | 0.00 | 0.00 | 52 | 1016.9 |
| 20260902185853 | 31 | 6 | 1.6 | 4.8 | 0.00 | 0.00 | 0.00 | 52 | 1016.9 |
| 20260902185730 | 31 | 6 | 3.2 | 4.8 | 0.00 | 0.00 | 0.00 | 52 | 1016.1 |
| 20260902185628 | 31 | 6 | 3.2 | 4.8 | 0.00 | 0.00 | 0.00 | 53 | 1016.1 |
| 20260902185526 | 31 | 4 | 3.2 | 4.8 | 0.00 | 0.00 | 0.00 | 52 | 1016.1 |
| 20260902185443 | 31 | 7 | 3.2 | 8.0 | 0.00 | 0.00 | 0.00 | 52 | 1016.1 |
| 20260902185346 | 31 | 13 | 3.2 | 8.0 | 0.00 | 0.00 | 0.00 | 52 | 1016.1 |
| 20260902185307 | 31 | 11 | 3.2 | 8.0 | 0.00 | 0.00 | 0.00 | 50 | 1016.1 |
| 20260902185139 | 31 | 14 | 1.6 | 8.0 | 0.00 | 0.00 | 0.00 | 49 | 1016.1 |
| 20260902185057 | 31 | 13 | 1.6 | 8.0 | 0.00 | 0.00 | 0.00 | 50 | 1016.1 |
| 20260902184935 | 31 | 13 | 0.0 | 8.0 | 0.00 | 0.00 | 0.00 | 51 | 1016.1 |
| 20260902184854 | 31 | 14 | 1.6 | 8.0 | 0.00 | 0.00 | 0.00 | 51 | 1016.1 |
| 20260902184731 | 31 | 13 | 1.6 | 8.0 | 0.00 | 0.00 | 0.00 | 52 | 1016.1 |
| 20260902184702 | 31 | 10 | 3.2 | 8.0 | 0.00 | 0.00 | 0.00 | 51 | 1016.1 |
| 20260902184600 | 31 | 13 | 3.2 | 8.0 | 0.00 | 0.00 | 0.00 | 52 | 1016.1 |
| 20260902184457 | 31 | 13 | 1.6 | 6.4 | 0.00 | 0.00 | 0.00 | 50 | 1016.1 |
| 20260902184338 | 31 | 11 | 0.0 | 6.4 | 0.00 | 0.00 | 0.00 | 50 | 1016.1 |
| 20260902184235 | 31 | 13 | 0.0 | 6.4 | 0.00 | 0.00 | 0.00 | 50 | 1017.1 |
| 20260902184134 | 31 | 13 | 1.6 | 8.0 | 0.00 | 0.00 | 0.00 | 50 | 1017.1 |
| 20260902184032 | 31 | 11 | 3.2 | 9.7 | 0.00 | 0.00 | 0.00 | 50 | 1017.1 |
| 20260902183930 | 31 | 11 | 3.2 | 9.7 | 0.00 | 0.00 | 0.00 | 50 | 1017.1 |
| 20260902183829 | 31 | 13 | 1.6 | 11.3 | 0.00 | 0.00 | 0.00 | 48 | 1017.1 |
| 20260902183727 | 31 | 14 | 3.2 | 11.3 | 0.00 | 0.00 | 0.00 | 48 | 1017.1 |
| 20260902183646 | 31 | 13 | 3.2 | 11.3 | 0.00 | 0.00 | 0.00 | 49 | 1017.1 |
| 20260902183547 | 31 | 14 | 1.6 | 11.3 | 0.00 | 0.00 | 0.00 | 50 | 1017.1 |
| 20260902183424 | 31 | 13 | 3.2 | 11.3 | 0.00 | 0.00 | 0.00 | 49 | 1017.1 |
| 20260902183325 | 31 | 13 | 6.4 | 11.3 | 0.00 | 0.00 | 0.00 | 52 | 1017.1 |
| 20260902183244 | 31 | 11 | 6.4 | 11.3 | 0.00 | 0.00 | 0.00 | 51 | 1017.1 |
| 20260902183213 | 31 | 14 | 6.4 | 11.3 | 0.00 | 0.00 | 0.00 | 51 | 1017.1 |
| 20260902183110 | 31 | 18 | 6.4 | 11.3 | 0.00 | 0.00 | 0.00 | 49 | 1017.1 |
| 20260902183007 | 31 | 25 | 6.4 | 11.3 | 0.00 | 0.00 | 0.00 | 48 | 1017.1 |
| 20260902182904 | 31 | 21 | 4.8 | 9.7 | 0.00 | 0.00 | 0.00 | 50 | 1017.1 |
| 20260902182742 | 31 | 21 | 4.8 | 9.7 | 0.00 | 0.00 | 0.00 | 50 | 1016.3 |
| 20260902182639 | 31 | 24 | 4.8 | 6.4 | 0.00 | 0.00 | 0.00 | 49 | 1016.3 |
| 20260902182537 | 31 | 20 | 3.2 | 6.4 | 0.00 | 0.00 | 0.00 | 50 | 1016.3 |
| 20260902182435 | 31 | 23 | 4.8 | 6.4 | 0.00 | 0.00 | 0.00 | 50 | 1016.3 |
| 20260902182334 | 31 | 23 | 1.6 | 4.8 | 0.00 | 0.00 | 0.00 | 49 | 1016.3 |
| 20260902182231 | 31 | 24 | 1.6 | 3.2 | 0.00 | 0.00 | 0.00 | 50 | 1016.3 |
| 20260902182130 | 31 | 23 | 0.0 | 1.6 | 0.00 | 0.00 | 0.00 | 50 | 1016.3 |
| 20260902182028 | 31 | 23 | 0.0 | 1.6 | 0.00 | 0.00 | 0.00 | 51 | 1016.3 |
| 20260902181951 | 31 | 23 | 0.0 | 1.6 | 0.00 | 0.00 | 0.00 | 51 | 1016.3 |
| 20260902181849 | 31 | 24 | 0.0 | 1.6 | 0.00 | 0.00 | 0.00 | 49 | 1016.3 |
| 20260902181728 | 31 | 23 | 0.0 | 3.2 | 0.00 | 0.00 | 0.00 | 50 | 1016.3 |
| 20260902181658 | 31 | 24 | 0.0 | 3.2 | 0.00 | 0.00 | 0.00 | 50 | 1016.3 |
| 20260902181535 | 31 | 23 | 0.0 | 3.2 | 0.00 | 0.00 | 0.00 | 49 | 1016.3 |
| 20260902181432 | 31 | 24 | 0.0 | 3.2 | 0.00 | 0.00 | 0.00 | 49 | 1016.3 |
| 20260902181334 | 31 | 24 | 0.0 | 3.2 | 0.00 | 0.00 | 0.00 | 50 | 1016.3 |
| 20260902181234 | 31 | 23 | 0.0 | 4.8 | 0.00 | 0.00 | 0.00 | 51 | 1017.4 |
| 20260902181137 | 31 | 23 | 0.0 | 4.8 | 0.00 | 0.00 | 0.00 | 51 | 1017.4 |
| 20260902181035 | 31 | 24 | 0.0 | 4.8 | 0.00 | 0.00 | 0.00 | 52 | 1017.4 |
| 20260902180932 | 31 | 18 | 1.6 | 4.8 | 0.00 | 0.00 | 0.00 | 52 | 1017.4 |
| 20260902180833 | 31 | 23 | 1.6 | 4.8 | 0.00 | 0.00 | 0.00 | 52 | 1017.4 |
| 20260902180751 | 31 | 23 | 1.6 | 4.8 | 0.00 | 0.00 | 0.00 | 52 | 1017.4 |
| 20260902180629 | 31 | 24 | 0.0 | 4.8 | 0.00 | 0.00 | 0.00 | 51 | 1017.4 |
| 20260902180528 | 31 | 23 | 1.6 | 4.8 | 0.00 | 0.00 | 0.00 | 51 | 1017.4 |
| 20260902180430 | 31 | 23 | 3.2 | 4.8 | 0.00 | 0.00 | 0.00 | 51 | 1017.4 |
| 20260902180327 | 31 | 23 | 3.2 | 4.8 | 0.00 | 0.00 | 0.00 | 50 | 1017.4 |
| 20260902180235 | 31 | 23 | 3.2 | 4.8 | 0.00 | 0.00 | 0.00 | 50 | 1017.4 |
| 20260902180146 | 31 | 21 | 0.0 | 4.8 | 0.00 | 0.00 | 0.00 | 51 | 1017.4 |
| 20260902180042 | 31 | 17 | 0.0 | 4.8 | 0.00 | 0.00 | 0.00 | 50 | 1017.4 |
| 20260902175941 | 31 | 20 | 0.0 | 4.8 | 0.00 | 0.00 | 0.00 | 53 | 1017.4 |
| 20260902175839 | 31 | 21 | 3.2 | 4.8 | 0.00 | 0.00 | 0.00 | 52 | 1017.4 |
| 20260902175737 | 31 | 18 | 1.6 | 4.8 | 0.00 | 0.00 | 0.00 | 51 | 1016.7 |
| 20260902175656 | 31 | 20 | 3.2 | 4.8 | 0.00 | 0.00 | 0.00 | 53 | 1016.7 |
| 20260902175539 | 30 | 20 | 3.2 | 4.8 | 0.00 | 0.00 | 0.00 | 51 | 1016.7 |
| 20260902175437 | 30 | 21 | 1.6 | 8.0 | 0.00 | 0.00 | 0.00 | 51 | 1016.7 |
| 20260902175335 | 30 | 13 | 0.0 | 8.0 | 0.00 | 0.00 | 0.00 | 50 | 1016.7 |
| 20260902175233 | 30 | 14 | 0.0 | 8.0 | 0.00 | 0.00 | 0.00 | 53 | 1016.7 |
| 20260902175152 | 30 | 16 | 3.2 | 8.0 | 0.00 | 0.00 | 0.00 | 53 | 1016.7 |
| 20260902175029 | 30 | 14 | 3.2 | 8.0 | 0.00 | 0.00 | 0.00 | 53 | 1016.7 |
| 20260902174928 | 30 | 14 | 3.2 | 8.0 | 0.00 | 0.00 | 0.00 | 54 | 1016.7 |
| 20260902174830 | 30 | 14 | 4.8 | 8.0 | 0.00 | 0.00 | 0.00 | 54 | 1016.7 |
| 20260902174738 | 30 | 14 | 3.2 | 8.0 | 0.00 | 0.00 | 0.00 | 56 | 1016.7 |
| 20260902174647 | 30 | 14 | 3.2 | 8.0 | 0.00 | 0.00 | 0.00 | 55 | 1016.7 |
| 20260902174545 | 30 | 10 | 1.6 | 8.0 | 0.00 | 0.00 | 0.00 | 55 | 1016.7 |
| 20260902174503 | 30 | 10 | 1.6 | 8.0 | 0.00 | 0.00 | 0.00 | 54 | 1016.7 |
| 20260902174340 | 30 | 11 | 3.2 | 8.0 | 0.00 | 0.00 | 0.00 | 54 | 1016.7 |
| 20260902174238 | 30 | 11 | 0.0 | 8.0 | 0.00 | 0.00 | 0.00 | 53 | 1017.0 |
| 20260902174137 | 30 | 11 | 1.6 | 8.0 | 0.00 | 0.00 | 0.00 | 55 | 1017.0 |
| 20260902174041 | 30 | 13 | 4.8 | 8.0 | 0.00 | 0.00 | 0.00 | 53 | 1017.0 |
| 20260902173939 | 30 | 11 | 4.8 | 8.0 | 0.00 | 0.00 | 0.00 | 53 | 1017.0 |
| 20260902173841 | 30 | 10 | 4.8 | 6.4 | 0.00 | 0.00 | 0.00 | 54 | 1017.0 |
| 20260902173759 | 30 | 8 | 3.2 | 6.4 | 0.00 | 0.00 | 0.00 | 55 | 1017.0 |
| 20260902173636 | 30 | 7 | 3.2 | 4.8 | 0.00 | 0.00 | 0.00 | 55 | 1017.0 |
| 20260902173535 | 30 | 8 | 1.6 | 4.8 | 0.00 | 0.00 | 0.00 | 57 | 1017.0 |
| 20260902173452 | 30 | 10 | 1.6 | 4.8 | 0.00 | 0.00 | 0.00 | 57 | 1017.0 |
| 20260902173330 | 30 | 10 | 1.6 | 4.8 | 0.00 | 0.00 | 0.00 | 57 | 1017.0 |
| 20260902173231 | 30 | 10 | 0.0 | 4.8 | 0.00 | 0.00 | 0.00 | 55 | 1017.0 |
| 20260902173202 | 30 | 7 | 0.0 | 4.8 | 0.00 | 0.00 | 0.00 | 55 | 1017.0 |
| 20260902173039 | 30 | 8 | 0.0 | 4.8 | 0.00 | 0.00 | 0.00 | 56 | 1017.0 |
| 20260902172938 | 30 | 10 | 1.6 | 4.8 | 0.00 | 0.00 | 0.00 | 55 | 1017.0 |
| 20260902172837 | 30 | 7 | 3.2 | 3.2 | 0.00 | 0.00 | 0.00 | 56 | 1017.0 |
| 20260902172739 | 30 | 7 | 1.6 | 3.2 | 0.00 | 0.00 | 0.00 | 58 | 1017.2 |
| 20260902172639 | 30 | 10 | 1.6 | 3.2 | 0.00 | 0.00 | 0.00 | 57 | 1017.2 |
| 20260902172542 | 30 | 7 | 1.6 | 3.2 | 0.00 | 0.00 | 0.00 | 56 | 1017.2 |
| 20260902172440 | 30 | 10 | 3.2 | 3.2 | 0.00 | 0.00 | 0.00 | 56 | 1017.2 |
| 20260902172359 | 30 | 10 | 1.6 | 3.2 | 0.00 | 0.00 | 0.00 | 55 | 1017.2 |
| 20260902172256 | 30 | 10 | 0.0 | 3.2 | 0.00 | 0.00 | 0.00 | 57 | 1017.2 |
| 20260902172134 | 30 | 10 | 0.0 | 3.2 | 0.00 | 0.00 | 0.00 | 57 | 1017.2 |
| 20260902172031 | 30 | 8 | 0.0 | 3.2 | 0.00 | 0.00 | 0.00 | 58 | 1017.2 |
| 20260902171930 | 30 | 8 | 0.0 | 3.2 | 0.00 | 0.00 | 0.00 | 59 | 1017.2 |
| 20260902171829 | 30 | 10 | 0.0 | 3.2 | 0.00 | 0.00 | 0.00 | 60 | 1017.2 |
| 20260902171742 | 30 | 8 | 0.0 | 3.2 | 0.00 | 0.00 | 0.00 | 60 | 1017.2 |
| 20260902171652 | 30 | 8 | 0.0 | 3.2 | 0.00 | 0.00 | 0.00 | 60 | 1017.2 |
| 20260902171529 | 30 | 10 | 1.6 | 3.2 | 0.00 | 0.00 | 0.00 | 61 | 1017.2 |
| 20260902171427 | 30 | 8 | 1.6 | 3.2 | 0.00 | 0.00 | 0.00 | 60 | 1017.2 |
| 20260902171326 | 30 | 10 | 0.0 | 3.2 | 0.00 | 0.00 | 0.00 | 59 | 1017.2 |
| 20260902171243 | 30 | 10 | 0.0 | 3.2 | 0.00 | 0.00 | 0.00 | 59 | 1018.3 |
| 20260902171143 | 30 | 7 | 1.6 | 3.2 | 0.00 | 0.00 | 0.00 | 59 | 1018.3 |
| 20260902171102 | 30 | 10 | 1.6 | 3.2 | 0.00 | 0.00 | 0.00 | 59 | 1018.3 |
| 20260902170943 | 30 | 7 | 1.6 | 3.2 | 0.00 | 0.00 | 0.00 | 59 | 1018.3 |
| 20260902170902 | 30 | 11 | 1.6 | 3.2 | 0.00 | 0.00 | 0.00 | 59 | 1018.3 |
| 20260902170738 | 30 | 10 | 1.6 | 4.8 | 0.00 | 0.00 | 0.00 | 59 | 1018.3 |
| 20260902170636 | 30 | 10 | 1.6 | 4.8 | 0.00 | 0.00 | 0.00 | 59 | 1018.3 |
| 20260902170535 | 30 | 8 | 1.6 | 4.8 | 0.00 | 0.00 | 0.00 | 59 | 1018.3 |
| 20260902170433 | 30 | 10 | 3.2 | 4.8 | 0.00 | 0.00 | 0.00 | 59 | 1018.3 |
| 20260902170331 | 30 | 10 | 0.0 | 4.8 | 0.00 | 0.00 | 0.00 | 59 | 1018.3 |
| 20260902170233 | 30 | 8 | 1.6 | 4.8 | 0.00 | 0.00 | 0.00 | 59 | 1018.3 |
| 20260902170203 | 30 | 10 | 3.2 | 8.0 | 0.00 | 0.00 | 0.00 | 59 | 1018.3 |
| 20260902170100 | 30 | 10 | 1.6 | 8.0 | 0.00 | 0.00 | 0.00 | 57 | 1018.3 |
| 20260902165937 | 30 | 10 | 1.6 | 9.7 | 0.00 | 0.00 | 0.00 | 58 | 1018.3 |
| 20260902165836 | 30 | 8 | 1.6 | 9.7 | 0.00 | 0.00 | 0.00 | 57 | 1018.3 |
| 20260902165734 | 30 | 7 | 1.6 | 9.7 | 0.00 | 0.00 | 0.00 | 58 | 1018.6 |
| 20260902165654 | 30 | 10 | 3.2 | 9.7 | 0.00 | 0.00 | 0.00 | 57 | 1018.6 |
| 20260902165531 | 30 | 10 | 1.6 | 9.7 | 0.00 | 0.00 | 0.00 | 57 | 1018.6 |
| 20260902165435 | 30 | 8 | 1.6 | 9.7 | 0.00 | 0.00 | 0.00 | 56 | 1018.6 |
| 20260902165333 | 30 | 10 | 3.2 | 9.7 | 0.00 | 0.00 | 0.00 | 56 | 1018.6 |
| 20260902165232 | 30 | 8 | 4.8 | 9.7 | 0.00 | 0.00 | 0.00 | 55 | 1018.6 |
| 20260902165130 | 30 | 11 | 4.8 | 9.7 | 0.00 | 0.00 | 0.00 | 55 | 1018.6 |
| 20260902165030 | 30 | 16 | 0.0 | 9.7 | 0.00 | 0.00 | 0.00 | 55 | 1018.6 |
| 20260902164948 | 30 | 17 | 1.6 | 9.7 | 0.00 | 0.00 | 0.00 | 56 | 1018.6 |
| 20260902164825 | 30 | 17 | 3.2 | 11.3 | 0.00 | 0.00 | 0.00 | 56 | 1018.6 |
| 20260902164756 | 30 | 14 | 3.2 | 11.3 | 0.00 | 0.00 | 0.00 | 56 | 1018.6 |
| 20260902164648 | 30 | 17 | 4.8 | 11.3 | 0.00 | 0.00 | 0.00 | 56 | 1018.6 |
| 20260902164526 | 30 | 17 | 4.8 | 11.3 | 0.00 | 0.00 | 0.00 | 58 | 1018.6 |
| 20260902164443 | 30 | 17 | 4.8 | 11.3 | 0.00 | 0.00 | 0.00 | 58 | 1018.6 |
| 20260902164343 | 30 | 14 | 4.8 | 11.3 | 0.00 | 0.00 | 0.00 | 57 | 1018.6 |
| 20260902164241 | 30 | 13 | 4.8 | 11.3 | 0.00 | 0.00 | 0.00 | 57 | 1018.7 |
| 20260902164139 | 30 | 14 | 4.8 | 11.3 | 0.00 | 0.00 | 0.00 | 57 | 1018.7 |
| 20260902164037 | 30 | 17 | 6.4 | 11.3 | 0.00 | 0.00 | 0.00 | 57 | 1018.7 |
| 20260902163940 | 30 | 10 | 6.4 | 11.3 | 0.00 | 0.00 | 0.00 | 57 | 1018.7 |
| 20260902163837 | 30 | 32 | 3.2 | 8.0 | 0.00 | 0.00 | 0.00 | 58 | 1018.7 |
| 20260902163736 | 30 | 32 | 0.0 | 8.0 | 0.00 | 0.00 | 0.00 | 58 | 1018.7 |
| 20260902163634 | 30 | 34 | 0.0 | 8.0 | 0.00 | 0.00 | 0.00 | 57 | 1018.7 |
| 20260902163553 | 30 | 34 | 1.6 | 8.0 | 0.00 | 0.00 | 0.00 | 58 | 1018.7 |
| 20260902163430 | 30 | 35 | 1.6 | 8.0 | 0.00 | 0.00 | 0.00 | 58 | 1018.7 |
| 20260902163330 | 30 | 34 | 3.2 | 9.7 | 0.00 | 0.00 | 0.00 | 58 | 1018.7 |
| 20260902163240 | 30 | 31 | 4.8 | 9.7 | 0.00 | 0.00 | 0.00 | 58 | 1018.7 |
| 20260902163153 | 30 | 34 | 3.2 | 9.7 | 0.00 | 0.00 | 0.00 | 59 | 1018.7 |
| 20260902163029 | 30 | 38 | 4.8 | 9.7 | 0.00 | 0.00 | 0.00 | 59 | 1018.7 |
| 20260902162928 | 30 | 37 | 6.4 | 9.7 | 0.00 | 0.00 | 0.00 | 59 | 1018.7 |
| 20260902162827 | 30 | 38 | 3.2 | 9.7 | 0.00 | 0.00 | 0.00 | 59 | 1018.7 |
| 20260902162727 | 30 | 35 | 1.6 | 9.7 | 0.00 | 0.00 | 0.00 | 58 | 1017.8 |
| 20260902162624 | 30 | 37 | 3.2 | 9.7 | 0.00 | 0.00 | 0.00 | 57 | 1017.8 |
| 20260902162546 | 30 | 40 | 4.8 | 9.7 | 0.00 | 0.00 | 0.00 | 56 | 1017.8 |
| 20260902162506 | 30 | 11 | 6.4 | 9.7 | 0.00 | 0.00 | 0.00 | 56 | 1017.8 |
| 20260902162403 | 30 | 6 | 8.0 | 9.7 | 0.00 | 0.00 | 0.00 | 57 | 1017.8 |
| 20260902162307 | 30 | 6 | 6.4 | 9.7 | 0.00 | 0.00 | 0.00 | 58 | 1017.8 |
| 20260902162141 | 30 | 6 | 3.2 | 8.0 | 0.00 | 0.00 | 0.00 | 59 | 1017.8 |
| 20260902162040 | 30 | 4 | 4.8 | 8.0 | 0.00 | 0.00 | 0.00 | 59 | 1017.8 |
| 20260902161958 | 30 | 1 | 4.8 | 8.0 | 0.00 | 0.00 | 0.00 | 59 | 1017.8 |
| 20260902161836 | 30 | 7 | 3.2 | 8.0 | 0.00 | 0.00 | 0.00 | 59 | 1017.8 |
| 20260902161734 | 30 | 8 | 3.2 | 8.0 | 0.00 | 0.00 | 0.00 | 59 | 1017.8 |
| 20260902161702 | 30 | 7 | 3.2 | 8.0 | 0.00 | 0.00 | 0.00 | 59 | 1017.8 |
| 20260902161540 | 30 | 8 | 4.8 | 8.0 | 0.00 | 0.00 | 0.00 | 59 | 1017.8 |
| 20260902161438 | 30 | 8 | 3.2 | 8.0 | 0.00 | 0.00 | 0.00 | 59 | 1017.8 |
| 20260902161340 | 30 | 7 | 3.2 | 8.0 | 0.00 | 0.00 | 0.00 | 58 | 1017.8 |
| 20260902161238 | 30 | 6 | 3.2 | 8.0 | 0.00 | 0.00 | 0.00 | 58 | 1017.9 |
| 20260902161137 | 30 | 6 | 1.6 | 8.0 | 0.00 | 0.00 | 0.00 | 60 | 1017.9 |
| 20260902161035 | 30 | 6 | 3.2 | 8.0 | 0.00 | 0.00 | 0.00 | 59 | 1017.9 |
| 20260902160935 | 30 | 4 | 3.2 | 8.0 | 0.00 | 0.00 | 0.00 | 61 | 1017.9 |
| 20260902160833 | 30 | 4 | 4.8 | 8.0 | 0.00 | 0.00 | 0.00 | 62 | 1017.9 |
| 20260902160736 | 29 | 1 | 4.8 | 8.0 | 0.00 | 0.00 | 0.00 | 62 | 1017.9 |
| 20260902160635 | 29 | 3 | 4.8 | 8.0 | 0.00 | 0.00 | 0.00 | 61 | 1017.9 |
| 20260902160533 | 29 | 360 | 4.8 | 8.0 | 0.00 | 0.00 | 0.00 | 61 | 1017.9 |
| 20260902160452 | 29 | 18 | 6.4 | 8.0 | 0.00 | 0.00 | 0.00 | 62 | 1017.9 |
| 20260902160351 | 29 | 18 | 4.8 | 8.0 | 0.00 | 0.00 | 0.00 | 62 | 1017.9 |
| 20260902160248 | 29 | 17 | 4.8 | 8.0 | 0.00 | 0.00 | 0.00 | 62 | 1017.9 |
| 20260902160158 | 29 | 18 | 3.2 | 8.0 | 0.00 | 0.00 | 0.00 | 62 | 1017.9 |
| 20260902160035 | 29 | 17 | 3.2 | 8.0 | 0.00 | 0.00 | 0.00 | 62 | 1017.9 |
| 20260902155934 | 29 | 16 | 3.2 | 8.0 | 0.00 | 0.00 | 0.00 | 61 | 1017.9 |
| 20260902155837 | 29 | 17 | 3.2 | 8.0 | 0.00 | 0.00 | 0.00 | 62 | 1017.9 |
| 20260902155755 | 29 | 16 | 3.2 | 8.0 | 0.00 | 0.00 | 0.00 | 61 | 1018.1 |
| 20260902155631 | 29 | 17 | 3.2 | 8.0 | 0.00 | 0.00 | 0.00 | 62 | 1018.1 |
| 20260902155550 | 29 | 13 | 3.2 | 8.0 | 0.00 | 0.00 | 0.00 | 62 | 1018.1 |
| 20260902155426 | 29 | 16 | 4.8 | 8.0 | 0.00 | 0.00 | 0.00 | 62 | 1018.1 |
| 20260902155324 | 29 | 17 | 1.6 | 8.0 | 0.00 | 0.00 | 0.00 | 61 | 1018.1 |
| 20260902155243 | 29 | 16 | 3.2 | 8.0 | 0.00 | 0.00 | 0.00 | 61 | 1018.1 |
| 20260902155122 | 29 | 14 | 4.8 | 8.0 | 0.00 | 0.00 | 0.00 | 61 | 1018.1 |
| 20260902155047 | 29 | 16 | 4.8 | 8.0 | 0.00 | 0.00 | 0.00 | 61 | 1018.1 |
| 20260902155007 | 29 | 14 | 3.2 | 8.0 | 0.00 | 0.00 | 0.00 | 61 | 1018.1 |
| 20260902154904 | 29 | 13 | 4.8 | 8.0 | 0.00 | 0.00 | 0.00 | 61 | 1018.1 |
| 20260902154733 | 28 | 10 | 6.4 | 8.0 | 0.00 | 0.00 | 0.00 | 63 | 1018.1 |
| 20260902154641 | 28 | 10 | 3.2 | 8.0 | 0.00 | 0.00 | 0.00 | 62 | 1018.1 |
| 20260902154543 | 28 | 8 | 1.6 | 8.0 | 0.00 | 0.00 | 0.00 | 63 | 1018.1 |
| 20260902154439 | 28 | 7 | 0.0 | 8.0 | 0.00 | 0.00 | 0.00 | 63 | 1018.1 |
| 20260902154337 | 28 | 8 | 1.6 | 8.0 | 0.00 | 0.00 | 0.00 | 64 | 1018.1 |
| 20260902154234 | 28 | 8 | 0.0 | 8.0 | 0.00 | 0.00 | 0.00 | 64 | 1018.1 |
| 20260902154137 | 28 | 10 | 0.0 | 8.0 | 0.00 | 0.00 | 0.00 | 64 | 1018.1 |
| 20260902154057 | 28 | 7 | 1.6 | 8.0 | 0.00 | 0.00 | 0.00 | 63 | 1018.1 |
| 20260902153933 | 28 | 8 | 4.8 | 8.0 | 0.00 | 0.00 | 0.00 | 63 | 1018.1 |
| 20260902153832 | 28 | 8 | 4.8 | 8.0 | 0.00 | 0.00 | 0.00 | 63 | 1018.1 |
| 20260902153730 | 28 | 7 | 6.4 | 8.0 | 0.00 | 0.00 | 0.00 | 64 | 1018.1 |
| 20260902153629 | 28 | 8 | 1.6 | 8.0 | 0.00 | 0.00 | 0.00 | 64 | 1018.1 |
| 20260902153528 | 28 | 7 | 4.8 | 8.0 | 0.00 | 0.00 | 0.00 | 65 | 1018.1 |
| 20260902153429 | 28 | 8 | 4.8 | 8.0 | 0.00 | 0.00 | 0.00 | 66 | 1018.1 |
| 20260902153328 | 28 | 6 | 0.0 | 4.8 | 0.00 | 0.00 | 0.00 | 67 | 1018.1 |
| 20260902153238 | 28 | 7 | 0.0 | 4.8 | 0.00 | 0.00 | 0.00 | 67 | 1018.1 |
| 20260902153148 | 28 | 4 | 1.6 | 4.8 | 0.00 | 0.00 | 0.00 | 66 | 1018.1 |
| 20260902153046 | 28 | 6 | 3.2 | 6.4 | 0.00 | 0.00 | 0.00 | 66 | 1018.1 |
| 20260902153005 | 28 | 6 | 3.2 | 6.4 | 0.00 | 0.00 | 0.00 | 65 | 1018.1 |
| 20260902152841 | 28 | 6 | 3.2 | 6.4 | 0.00 | 0.00 | 0.00 | 67 | 1018.1 |
| 20260902152738 | 28 | 4 | 3.2 | 6.4 | 0.00 | 0.00 | 0.00 | 67 | 1018.1 |
| 20260902152637 | 28 | 6 | 1.6 | 6.4 | 0.00 | 0.00 | 0.00 | 66 | 1018.1 |
| 20260902152541 | 28 | 13 | 1.6 | 6.4 | 0.00 | 0.00 | 0.00 | 66 | 1018.1 |
| 20260902152439 | 28 | 14 | 1.6 | 8.0 | 0.00 | 0.00 | 0.00 | 66 | 1018.1 |
| 20260902152337 | 28 | 16 | 3.2 | 8.0 | 0.00 | 0.00 | 0.00 | 65 | 1018.1 |
| 20260902152236 | 28 | 14 | 3.2 | 8.0 | 0.00 | 0.00 | 0.00 | 67 | 1018.1 |
| 20260902152134 | 28 | 14 | 3.2 | 8.0 | 0.00 | 0.00 | 0.00 | 66 | 1018.1 |
| 20260902152032 | 28 | 41 | 1.6 | 8.0 | 0.00 | 0.00 | 0.00 | 66 | 1018.1 |
| 20260902151934 | 28 | 42 | 1.6 | 9.7 | 0.00 | 0.00 | 0.00 | 66 | 1018.1 |
| 20260902151833 | 28 | 40 | 1.6 | 9.7 | 0.00 | 0.00 | 0.00 | 66 | 1018.1 |
| 20260902151803 | 28 | 51 | 3.2 | 9.7 | 0.00 | 0.00 | 0.00 | 66 | 1018.1 |
| 20260902151650 | 28 | 51 | 4.8 | 9.7 | 0.00 | 0.00 | 0.00 | 67 | 1018.1 |
| 20260902151528 | 28 | 54 | 3.2 | 9.7 | 0.00 | 0.00 | 0.00 | 67 | 1018.1 |
| 20260902151426 | 28 | 54 | 0.0 | 9.7 | 0.00 | 0.00 | 0.00 | 67 | 1018.1 |
| 20260902151325 | 28 | 56 | 0.0 | 9.7 | 0.00 | 0.00 | 0.00 | 68 | 1018.1 |
| 20260902151243 | 28 | 54 | 0.0 | 9.7 | 0.00 | 0.00 | 0.00 | 67 | 1017.9 |
| 20260902151125 | 28 | 56 | 4.8 | 9.7 | 0.00 | 0.00 | 0.00 | 67 | 1017.9 |
| 20260902151044 | 28 | 73 | 3.2 | 9.7 | 0.00 | 0.00 | 0.00 | 68 | 1017.9 |
| 20260902151003 | 28 | 200 | 1.6 | 3.2 | 0.00 | 0.00 | 0.00 | 68 | 1017.9 |
| 20260902150901 | 28 | 200 | 0.0 | 4.8 | 0.00 | 0.00 | 0.00 | 67 | 1017.9 |
| 20260902150738 | 28 | 196 | 0.0 | 4.8 | 0.00 | 0.00 | 0.00 | 67 | 1017.9 |
| 20260902150636 | 27 | 196 | 0.0 | 4.8 | 0.00 | 0.00 | 0.00 | 66 | 1017.9 |
| 20260902150535 | 27 | 199 | 0.0 | 4.8 | 0.00 | 0.00 | 0.00 | 66 | 1017.9 |
| 20260902150454 | 27 | 199 | 3.2 | 4.8 | 0.00 | 0.00 | 0.00 | 66 | 1017.9 |
| 20260902150331 | 27 | 200 | 1.6 | 4.8 | 0.00 | 0.00 | 0.00 | 66 | 1017.9 |
| 20260902150254 | 27 | 196 | 0.0 | 4.8 | 0.00 | 0.00 | 0.00 | 65 | 1017.9 |
| 20260902150203 | 27 | 198 | 0.0 | 4.8 | 0.00 | 0.00 | 0.00 | 64 | 1017.9 |
| 20260902150040 | 27 | 196 | 1.6 | 4.8 | 0.00 | 0.00 | 0.00 | 64 | 1017.9 |
| 20260902145939 | 27 | 196 | 1.6 | 4.8 | 0.00 | 0.00 | 0.00 | 64 | 1017.9 |
| 20260902145836 | 27 | 196 | 3.2 | 4.8 | 0.00 | 0.00 | 0.00 | 63 | 1017.9 |
| 20260902145755 | 27 | 195 | 0.0 | 4.8 | 0.00 | 0.00 | 0.00 | 65 | 1017.8 |
| 20260902145634 | 27 | 195 | 0.0 | 4.8 | 0.00 | 0.00 | 0.00 | 65 | 1017.8 |
| 20260902145532 | 27 | 193 | 1.6 | 4.8 | 0.00 | 0.00 | 0.00 | 65 | 1017.8 |
| 20260902145435 | 27 | 195 | 1.6 | 4.8 | 0.00 | 0.00 | 0.00 | 64 | 1017.8 |
| 20260902145334 | 27 | 195 | 3.2 | 4.8 | 0.00 | 0.00 | 0.00 | 65 | 1017.8 |
| 20260902145232 | 27 | 195 | 3.2 | 4.8 | 0.00 | 0.00 | 0.00 | 65 | 1017.8 |
| 20260902145131 | 27 | 193 | 3.2 | 4.8 | 0.00 | 0.00 | 0.00 | 66 | 1017.8 |
| 20260902145030 | 27 | 192 | 3.2 | 4.8 | 0.00 | 0.00 | 0.00 | 66 | 1017.8 |
| 20260902144930 | 27 | 193 | 3.2 | 4.8 | 0.00 | 0.00 | 0.00 | 65 | 1017.8 |
| 20260902144849 | 27 | 192 | 1.6 | 4.8 | 0.00 | 0.00 | 0.00 | 67 | 1017.8 |
| 20260902144742 | 27 | 191 | 3.2 | 4.8 | 0.00 | 0.00 | 0.00 | 67 | 1017.8 |
| 20260902144652 | 27 | 193 | 4.8 | 4.8 | 0.00 | 0.00 | 0.00 | 67 | 1017.8 |
| 20260902144550 | 27 | 192 | 1.6 | 4.8 | 0.00 | 0.00 | 0.00 | 67 | 1017.8 |
| 20260902144426 | 27 | 186 | 0.0 | 1.6 | 0.00 | 0.00 | 0.00 | 69 | 1017.8 |
| 20260902144324 | 27 | 186 | 0.0 | 1.6 | 0.00 | 0.00 | 0.00 | 69 | 1017.8 |
| 20260902144243 | 27 | 185 | 0.0 | 1.6 | 0.00 | 0.00 | 0.00 | 69 | 1017.7 |
| 20260902144144 | 27 | 186 | 0.0 | 1.6 | 0.00 | 0.00 | 0.00 | 69 | 1017.7 |
| 20260902144043 | 27 | 186 | 0.0 | 1.6 | 0.00 | 0.00 | 0.00 | 70 | 1017.7 |
| 20260902143925 | 27 | 184 | 0.0 | 1.6 | 0.00 | 0.00 | 0.00 | 69 | 1017.7 |
| 20260902143843 | 27 | 184 | 0.0 | 1.6 | 0.00 | 0.00 | 0.00 | 69 | 1017.7 |
| 20260902143741 | 27 | 186 | 0.0 | 1.6 | 0.00 | 0.00 | 0.00 | 69 | 1017.7 |
| 20260902143639 | 27 | 185 | 0.0 | 1.6 | 0.00 | 0.00 | 0.00 | 69 | 1017.7 |
| 20260902143537 | 27 | 185 | 0.0 | 3.2 | 0.00 | 0.00 | 0.00 | 69 | 1017.7 |
| 20260902143435 | 27 | 185 | 0.0 | 3.2 | 0.00 | 0.00 | 0.00 | 68 | 1017.7 |
| 20260902143334 | 27 | 186 | 0.0 | 4.8 | 0.00 | 0.00 | 0.00 | 69 | 1017.7 |
| 20260902143257 | 27 | 185 | 0.0 | 4.8 | 0.00 | 0.00 | 0.00 | 69 | 1017.7 |
| 20260902143205 | 27 | 185 | 0.0 | 4.8 | 0.00 | 0.00 | 0.00 | 69 | 1017.7 |
| 20260902143103 | 27 | 184 | 0.0 | 4.8 | 0.00 | 0.00 | 0.00 | 69 | 1017.7 |
| 20260902142940 | 27 | 185 | 0.0 | 4.8 | 0.00 | 0.00 | 0.00 | 68 | 1017.7 |
| 20260902142839 | 27 | 185 | 0.0 | 4.8 | 0.00 | 0.00 | 0.00 | 68 | 1017.7 |
| 20260902142738 | 27 | 185 | 1.6 | 4.8 | 0.00 | 0.00 | 0.00 | 68 | 1017.7 |
| 20260902142637 | 27 | 185 | 1.6 | 4.8 | 0.00 | 0.00 | 0.00 | 69 | 1017.7 |
| 20260902142535 | 27 | 184 | 3.2 | 4.8 | 0.00 | 0.00 | 0.00 | 69 | 1017.7 |
| 20260902142436 | 27 | 186 | 1.6 | 3.2 | 0.00 | 0.00 | 0.00 | 69 | 1017.7 |
| 20260902142334 | 27 | 185 | 1.6 | 3.2 | 0.00 | 0.00 | 0.00 | 69 | 1017.7 |
| 20260902142232 | 27 | 186 | 0.0 | 3.2 | 0.00 | 0.00 | 0.00 | 68 | 1017.7 |
| 20260902142131 | 26 | 186 | 0.0 | 3.2 | 0.00 | 0.00 | 0.00 | 68 | 1017.7 |
| 20260902142049 | 26 | 186 | 0.0 | 3.2 | 0.00 | 0.00 | 0.00 | 68 | 1017.7 |
| 20260902141927 | 26 | 185 | 0.0 | 3.2 | 0.00 | 0.00 | 0.00 | 68 | 1017.7 |
| 20260902141825 | 26 | 185 | 0.0 | 3.2 | 0.00 | 0.00 | 0.00 | 68 | 1017.7 |
| 20260902141738 | 26 | 188 | 1.6 | 3.2 | 0.00 | 0.00 | 0.00 | 68 | 1017.7 |
| 20260902141648 | 26 | 186 | 1.6 | 3.2 | 0.00 | 0.00 | 0.00 | 68 | 1017.7 |
| 20260902141525 | 26 | 186 | 1.6 | 3.2 | 0.00 | 0.00 | 0.00 | 68 | 1017.7 |
| 20260902141424 | 26 | 184 | 0.0 | 4.8 | 0.00 | 0.00 | 0.00 | 68 | 1017.7 |
| 20260902141343 | 26 | 186 | 0.0 | 4.8 | 0.00 | 0.00 | 0.00 | 68 | 1017.7 |
| 20260902141240 | 26 | 186 | 0.0 | 4.8 | 0.00 | 0.00 | 0.00 | 69 | 1017.6 |
| 20260902141159 | 26 | 185 | 0.0 | 4.8 | 0.00 | 0.00 | 0.00 | 69 | 1017.6 |
| 20260902141035 | 26 | 184 | 0.0 | 4.8 | 0.00 | 0.00 | 0.00 | 69 | 1017.6 |
| 20260902140938 | 26 | 185 | 0.0 | 4.8 | 0.00 | 0.00 | 0.00 | 68 | 1017.6 |
| 20260902140837 | 26 | 184 | 1.6 | 4.8 | 0.00 | 0.00 | 0.00 | 68 | 1017.6 |
| 20260902140734 | 26 | 186 | 1.6 | 4.8 | 0.00 | 0.00 | 0.00 | 69 | 1017.6 |
| 20260902140633 | 26 | 186 | 3.2 | 4.8 | 0.00 | 0.00 | 0.00 | 69 | 1017.6 |
| 20260902140531 | 26 | 185 | 0.0 | 4.8 | 0.00 | 0.00 | 0.00 | 69 | 1017.6 |
| 20260902140430 | 26 | 186 | 0.0 | 4.8 | 0.00 | 0.00 | 0.00 | 69 | 1017.6 |
| 20260902140332 | 26 | 182 | 1.6 | 4.8 | 0.00 | 0.00 | 0.00 | 68 | 1017.6 |
| 20260902140230 | 26 | 185 | 1.6 | 4.8 | 0.00 | 0.00 | 0.00 | 69 | 1017.6 |
| 20260902140202 | 26 | 186 | 1.6 | 4.8 | 0.00 | 0.00 | 0.00 | 69 | 1017.6 |
| 20260902140059 | 26 | 184 | 0.0 | 4.8 | 0.00 | 0.00 | 0.00 | 69 | 1017.6 |
| 20260902135937 | 26 | 181 | 0.0 | 4.8 | 0.00 | 0.00 | 0.00 | 70 | 1017.6 |
| 20260902135835 | 26 | 184 | 3.2 | 4.8 | 0.00 | 0.00 | 0.00 | 71 | 1017.6 |
| 20260902135732 | 26 | 182 | 1.6 | 3.2 | 0.00 | 0.00 | 0.00 | 71 | 1017.7 |
| 20260902135652 | 26 | 181 | 0.0 | 3.2 | 0.00 | 0.00 | 0.00 | 71 | 1017.7 |
| 20260902135551 | 26 | 181 | 0.0 | 3.2 | 0.00 | 0.00 | 0.00 | 72 | 1017.7 |
| 20260902135453 | 26 | 175 | 1.6 | 3.2 | 0.00 | 0.00 | 0.00 | 72 | 1017.7 |
| 20260902135330 | 26 | 181 | 0.0 | 3.2 | 0.00 | 0.00 | 0.00 | 72 | 1017.7 |
| 20260902135228 | 26 | 181 | 1.6 | 3.2 | 0.00 | 0.00 | 0.00 | 72 | 1017.7 |
| 20260902135146 | 26 | 179 | 0.0 | 0.0 | 0.00 | 0.00 | 0.00 | 72 | 1017.7 |
| 20260902135025 | 26 | 181 | 0.0 | 0.0 | 0.00 | 0.00 | 0.00 | 73 | 1017.7 |
| 20260902134944 | 26 | 178 | 0.0 | 0.0 | 0.00 | 0.00 | 0.00 | 73 | 1017.7 |
| 20260902134902 | 26 | 179 | 0.0 | 0.0 | 0.00 | 0.00 | 0.00 | 74 | 1017.7 |
| 20260902134739 | 26 | 179 | 0.0 | 0.0 | 0.00 | 0.00 | 0.00 | 75 | 1017.7 |
| 20260902134709 | 26 | 181 | 0.0 | 0.0 | 0.00 | 0.00 | 0.00 | 75 | 1017.7 |
| 20260902134530 | 26 | 179 | 0.0 | 3.2 | 0.00 | 0.00 | 0.00 | 75 | 1017.7 |
| 20260902134429 | 26 | 179 | 0.0 | 4.8 | 0.00 | 0.00 | 0.00 | 75 | 1017.7 |
| 20260902134327 | 26 | 179 | 0.0 | 4.8 | 0.00 | 0.00 | 0.00 | 76 | 1017.7 |
| 20260902134247 | 26 | 181 | 0.0 | 4.8 | 0.00 | 0.00 | 0.00 | 76 | 1017.8 |
| 20260902134124 | 26 | 179 | 0.0 | 4.8 | 0.00 | 0.00 | 0.00 | 76 | 1017.8 |
| 20260902134043 | 26 | 179 | 0.0 | 4.8 | 0.00 | 0.00 | 0.00 | 75 | 1017.8 |
| 20260902133943 | 26 | 179 | 0.0 | 4.8 | 0.00 | 0.00 | 0.00 | 75 | 1017.8 |
| 20260902133824 | 26 | 179 | 0.0 | 4.8 | 0.00 | 0.00 | 0.00 | 75 | 1017.8 |
| 20260902133742 | 26 | 179 | 1.6 | 4.8 | 0.00 | 0.00 | 0.00 | 75 | 1017.8 |
| 20260902133642 | 26 | 179 | 3.2 | 4.8 | 0.00 | 0.00 | 0.00 | 75 | 1017.8 |
| 20260902133538 | 26 | 179 | 3.2 | 4.8 | 0.00 | 0.00 | 0.00 | 76 | 1017.8 |
| 20260902133437 | 26 | 181 | 0.0 | 3.2 | 0.00 | 0.00 | 0.00 | 76 | 1017.8 |
| 20260902133335 | 25 | 176 | 0.0 | 3.2 | 0.00 | 0.00 | 0.00 | 76 | 1017.8 |
| 20260902133244 | 25 | 179 | 1.6 | 3.2 | 0.00 | 0.00 | 0.00 | 76 | 1017.8 |
| 20260902133155 | 25 | 179 | 1.6 | 3.2 | 0.00 | 0.00 | 0.00 | 76 | 1017.8 |
| 20260902133035 | 25 | 179 | 1.6 | 3.2 | 0.00 | 0.00 | 0.00 | 76 | 1017.8 |
| 20260902132933 | 25 | 178 | 1.6 | 3.2 | 0.00 | 0.00 | 0.00 | 75 | 1017.8 |
| 20260902132852 | 25 | 181 | 3.2 | 3.2 | 0.00 | 0.00 | 0.00 | 75 | 1017.8 |
| 20260902132729 | 25 | 179 | 1.6 | 1.6 | 0.00 | 0.00 | 0.00 | 75 | 1017.7 |
| 20260902132628 | 25 | 181 | 1.6 | 1.6 | 0.00 | 0.00 | 0.00 | 75 | 1017.7 |
| 20260902132546 | 25 | 179 | 1.6 | 1.6 | 0.00 | 0.00 | 0.00 | 75 | 1017.7 |
| 20260902132443 | 25 | 179 | 0.0 | 1.6 | 0.00 | 0.00 | 0.00 | 75 | 1017.7 |
| 20260902132341 | 25 | 179 | 0.0 | 0.0 | 0.00 | 0.00 | 0.00 | 75 | 1017.7 |
| 20260902132224 | 25 | 179 | 0.0 | 0.0 | 0.00 | 0.00 | 0.00 | 75 | 1017.7 |
| 20260902132143 | 25 | 178 | 0.0 | 0.0 | 0.00 | 0.00 | 0.00 | 75 | 1017.7 |
| 20260902132041 | 25 | 179 | 0.0 | 0.0 | 0.00 | 0.00 | 0.00 | 75 | 1017.7 |
| 20260902131939 | 25 | 178 | 0.0 | 0.0 | 0.00 | 0.00 | 0.00 | 75 | 1017.7 |
| 20260902131836 | 25 | 179 | 0.0 | 0.0 | 0.00 | 0.00 | 0.00 | 75 | 1017.7 |
| 20260902131755 | 25 | 179 | 0.0 | 0.0 | 0.00 | 0.00 | 0.00 | 75 | 1017.7 |
| 20260902131725 | 25 | 181 | 0.0 | 0.0 | 0.00 | 0.00 | 0.00 | 75 | 1017.7 |
| 20260902131543 | 25 | 179 | 0.0 | 0.0 | 0.00 | 0.00 | 0.00 | 75 | 1017.7 |
| 20260902131424 | 25 | 179 | 0.0 | 0.0 | 0.00 | 0.00 | 0.00 | 74 | 1017.7 |
| 20260902131325 | 25 | 179 | 0.0 | 0.0 | 0.00 | 0.00 | 0.00 | 74 | 1017.7 |
| 20260902131224 | 25 | 179 | 0.0 | 0.0 | 0.00 | 0.00 | 0.00 | 74 | 1017.6 |
| 20260902131142 | 25 | 181 | 0.0 | 0.0 | 0.00 | 0.00 | 0.00 | 74 | 1017.6 |
| 20260902131041 | 25 | 179 | 0.0 | 0.0 | 0.00 | 0.00 | 0.00 | 74 | 1017.6 |
| 20260902130939 | 25 | 179 | 0.0 | 0.0 | 0.00 | 0.00 | 0.00 | 74 | 1017.6 |
| 20260902130837 | 25 | 181 | 0.0 | 0.0 | 0.00 | 0.00 | 0.00 | 74 | 1017.6 |
| 20260902130740 | 25 | 179 | 0.0 | 0.0 | 0.00 | 0.00 | 0.00 | 74 | 1017.6 |
| 20260902130640 | 25 | 179 | 0.0 | 0.0 | 0.00 | 0.00 | 0.00 | 74 | 1017.6 |
| 20260902130538 | 25 | 181 | 0.0 | 0.0 | 0.00 | 0.00 | 0.00 | 74 | 1017.6 |
| 20260902130437 | 25 | 179 | 0.0 | 0.0 | 0.00 | 0.00 | 0.00 | 74 | 1017.6 |
| 20260902130335 | 25 | 179 | 0.0 | 0.0 | 0.00 | 0.00 | 0.00 | 74 | 1017.6 |
| 20260902130233 | 25 | 179 | 0.0 | 0.0 | 0.00 | 0.00 | 0.00 | 74 | 1017.6 |
| 20260902130203 | 25 | 181 | 0.0 | 0.0 | 0.00 | 0.00 | 0.00 | 74 | 1017.6 |
| 20260902125942 | 25 | 179 | 0.0 | 0.0 | 0.00 | 0.00 | 0.00 | 74 | 1017.6 |
| 20260902125903 | 25 | 181 | 0.0 | 0.0 | 0.00 | 0.00 | 0.00 | 74 | 1017.6 |
| 20260902125741 | 25 | 178 | 0.0 | 0.0 | 0.00 | 0.00 | 0.00 | 74 | 1017.7 |
| 20260902125700 | 25 | 181 | 0.0 | 0.0 | 0.00 | 0.00 | 0.00 | 74 | 1017.7 |
| 20260902125538 | 25 | 181 | 0.0 | 0.0 | 0.00 | 0.00 | 0.00 | 74 | 1017.7 |
| 20260902125456 | 25 | 179 | 0.0 | 0.0 | 0.00 | 0.00 | 0.00 | 74 | 1017.7 |
| 20260902125333 | 25 | 179 | 0.0 | 0.0 | 0.00 | 0.00 | 0.00 | 74 | 1017.7 |
| 20260902125231 | 25 | 181 | 0.0 | 0.0 | 0.00 | 0.00 | 0.00 | 74 | 1017.7 |
| 20260902125135 | 25 | 181 | 0.0 | 0.0 | 0.00 | 0.00 | 0.00 | 74 | 1017.7 |
| 20260902125034 | 25 | 179 | 0.0 | 0.0 | 0.00 | 0.00 | 0.00 | 74 | 1017.7 |
| 20260902124952 | 25 | 181 | 0.0 | 0.0 | 0.00 | 0.00 | 0.00 | 74 | 1017.7 |
| 20260902124827 | 25 | 181 | 0.0 | 0.0 | 0.00 | 0.00 | 0.00 | 74 | 1017.7 |
| 20260902124736 | 25 | 181 | 0.0 | 0.0 | 0.00 | 0.00 | 0.00 | 74 | 1017.7 |
| 20260902124645 | 25 | 178 | 0.0 | 0.0 | 0.00 | 0.00 | 0.00 | 74 | 1017.7 |
| 20260902124543 | 25 | 179 | 0.0 | 0.0 | 0.00 | 0.00 | 0.00 | 74 | 1017.7 |
| 20260902124442 | 25 | 178 | 0.0 | 0.0 | 0.00 | 0.00 | 0.00 | 74 | 1017.7 |
| 20260902124343 | 25 | 181 | 0.0 | 0.0 | 0.00 | 0.00 | 0.00 | 74 | 1017.7 |
| 20260902124242 | 25 | 179 | 0.0 | 0.0 | 0.00 | 0.00 | 0.00 | 74 | 1017.7 |
| 20260902124141 | 25 | 179 | 0.0 | 0.0 | 0.00 | 0.00 | 0.00 | 74 | 1017.7 |
| 20260902124039 | 25 | 179 | 0.0 | 0.0 | 0.00 | 0.00 | 0.00 | 74 | 1017.7 |
| 20260902123937 | 25 | 179 | 0.0 | 1.6 | 0.00 | 0.00 | 0.00 | 74 | 1017.7 |
| 20260902123835 | 25 | 181 | 0.0 | 1.6 | 0.00 | 0.00 | 0.00 | 74 | 1017.7 |
| 20260902123733 | 25 | 179 | 0.0 | 1.6 | 0.00 | 0.00 | 0.00 | 74 | 1017.7 |
| 20260902123636 | 25 | 178 | 0.0 | 3.2 | 0.00 | 0.00 | 0.00 | 74 | 1017.7 |
| 20260902123538 | 24 | 179 | 0.0 | 4.8 | 0.00 | 0.00 | 0.00 | 74 | 1017.7 |
| 20260902123437 | 24 | 178 | 0.0 | 4.8 | 0.00 | 0.00 | 0.00 | 74 | 1017.7 |
| 20260902123358 | 24 | 178 | 0.0 | 4.8 | 0.00 | 0.00 | 0.00 | 74 | 1017.7 |
| 20260902123316 | 24 | 181 | 0.0 | 4.8 | 0.00 | 0.00 | 0.00 | 74 | 1017.7 |
| 20260902123205 | 24 | 181 | 0.0 | 4.8 | 0.00 | 0.00 | 0.00 | 74 | 1017.7 |
| 20260902123042 | 24 | 179 | 0.0 | 4.8 | 0.00 | 0.00 | 0.00 | 74 | 1017.7 |
| 20260902122943 | 24 | 178 | 0.0 | 4.8 | 0.00 | 0.00 | 0.00 | 74 | 1017.7 |
| 20260902122905 | 24 | 178 | 1.6 | 4.8 | 0.00 | 0.00 | 0.00 | 73 | 1017.7 |
| 20260902122742 | 24 | 178 | 3.2 | 4.8 | 0.00 | 0.00 | 0.00 | 73 | 1017.5 |
| 20260902122641 | 24 | 178 | 3.2 | 4.8 | 0.00 | 0.00 | 0.00 | 73 | 1017.5 |
| 20260902122559 | 24 | 181 | 3.2 | 4.8 | 0.00 | 0.00 | 0.00 | 73 | 1017.5 |
| 20260902122436 | 24 | 179 | 3.2 | 4.8 | 0.00 | 0.00 | 0.00 | 73 | 1017.5 |
| 20260902122334 | 24 | 179 | 1.6 | 3.2 | 0.00 | 0.00 | 0.00 | 73 | 1017.5 |
| 20260902122252 | 24 | 178 | 1.6 | 3.2 | 0.00 | 0.00 | 0.00 | 73 | 1017.5 |
| 20260902122129 | 24 | 179 | 0.0 | 3.2 | 0.00 | 0.00 | 0.00 | 73 | 1017.5 |
| 20260902122032 | 24 | 179 | 0.0 | 1.6 | 0.00 | 0.00 | 0.00 | 73 | 1017.5 |
| 20260902121930 | 24 | 179 | 0.0 | 1.6 | 0.00 | 0.00 | 0.00 | 74 | 1017.5 |
| 20260902121828 | 24 | 179 | 0.0 | 1.6 | 0.00 | 0.00 | 0.00 | 74 | 1017.5 |
| 20260902121726 | 24 | 178 | 0.0 | 3.2 | 0.00 | 0.00 | 0.00 | 74 | 1017.5 |
| 20260902121656 | 24 | 179 | 0.0 | 3.2 | 0.00 | 0.00 | 0.00 | 74 | 1017.5 |
| 20260902121554 | 24 | 176 | 0.0 | 3.2 | 0.00 | 0.00 | 0.00 | 74 | 1017.5 |
| 20260902121431 | 24 | 176 | 0.0 | 4.8 | 0.00 | 0.00 | 0.00 | 74 | 1017.5 |
| 20260902121333 | 24 | 176 | 0.0 | 4.8 | 0.00 | 0.00 | 0.00 | 73 | 1017.5 |
| 20260902121232 | 24 | 176 | 0.0 | 4.8 | 0.00 | 0.00 | 0.00 | 73 | 1017.2 |
| 20260902121149 | 24 | 178 | 0.0 | 4.8 | 0.00 | 0.00 | 0.00 | 73 | 1017.2 |
| 20260902121024 | 24 | 176 | 0.0 | 4.8 | 0.00 | 0.00 | 0.00 | 72 | 1017.2 |
| 20260902120943 | 24 | 178 | 1.6 | 4.8 | 0.00 | 0.00 | 0.00 | 72 | 1017.2 |
| 20260902120842 | 24 | 175 | 1.6 | 4.8 | 0.00 | 0.00 | 0.00 | 72 | 1017.2 |
| 20260902120740 | 24 | 178 | 1.6 | 4.8 | 0.00 | 0.00 | 0.00 | 72 | 1017.2 |
| 20260902120640 | 24 | 175 | 3.2 | 4.8 | 0.00 | 0.00 | 0.00 | 72 | 1017.2 |
| 20260902120543 | 24 | 174 | 3.2 | 4.8 | 0.00 | 0.00 | 0.00 | 72 | 1017.2 |
| 20260902120502 | 24 | 178 | 3.2 | 4.8 | 0.00 | 0.00 | 0.00 | 72 | 1017.2 |
| 20260902120338 | 24 | 178 | 3.2 | 4.8 | 0.00 | 0.00 | 0.00 | 72 | 1017.2 |
| 20260902120238 | 24 | 178 | 3.2 | 4.8 | 0.00 | 0.00 | 0.00 | 72 | 1017.2 |
| 20260902120207 | 24 | 175 | 3.2 | 4.8 | 0.00 | 0.00 | 0.00 | 72 | 1017.2 |
| 20260902120043 | 24 | 175 | 3.2 | 4.8 | 0.00 | 0.00 | 0.00 | 72 | 1017.2 |
| 20260902115942 | 24 | 178 | 4.8 | 4.8 | 0.00 | 0.00 | 0.00 | 72 | 1017.2 |
| 20260902115841 | 24 | 178 | 3.2 | 8.0 | 0.00 | 0.00 | 0.00 | 72 | 1017.2 |
| 20260902115759 | 24 | 176 | 3.2 | 8.0 | 0.00 | 0.00 | 0.00 | 72 | 1017.0 |
| 20260902115640 | 24 | 176 | 3.2 | 8.0 | 0.00 | 0.00 | 0.00 | 72 | 1017.0 |
| 20260902115538 | 24 | 176 | 3.2 | 8.0 | 0.00 | 0.00 | 0.00 | 72 | 1017.0 |
| 20260902115457 | 24 | 178 | 3.2 | 8.0 | 0.00 | 0.00 | 0.00 | 72 | 1017.0 |
| 20260902115334 | 24 | 176 | 3.2 | 8.0 | 0.00 | 0.00 | 0.00 | 72 | 1017.0 |
| 20260902115231 | 24 | 176 | 4.8 | 8.0 | 0.00 | 0.00 | 0.00 | 72 | 1017.0 |
| 20260902115130 | 24 | 176 | 3.2 | 8.0 | 0.00 | 0.00 | 0.00 | 72 | 1017.0 |
| 20260902115029 | 24 | 178 | 4.8 | 8.0 | 0.00 | 0.00 | 0.00 | 72 | 1017.0 |
| 20260902114932 | 24 | 178 | 3.2 | 6.4 | 0.00 | 0.00 | 0.00 | 72 | 1017.0 |
| 20260902114852 | 24 | 178 | 4.8 | 6.4 | 0.00 | 0.00 | 0.00 | 72 | 1017.0 |
| 20260902114811 | 24 | 174 | 3.2 | 6.4 | 0.00 | 0.00 | 0.00 | 72 | 1017.0 |
| 20260902114657 | 24 | 178 | 4.8 | 6.4 | 0.00 | 0.00 | 0.00 | 72 | 1017.0 |
| 20260902114535 | 24 | 176 | 4.8 | 6.4 | 0.00 | 0.00 | 0.00 | 73 | 1017.0 |
| 20260902114432 | 24 | 178 | 4.8 | 8.0 | 0.00 | 0.00 | 0.00 | 73 | 1017.0 |
| 20260902114351 | 24 | 178 | 4.8 | 8.0 | 0.00 | 0.00 | 0.00 | 73 | 1017.0 |
| 20260902114249 | 24 | 176 | 4.8 | 8.0 | 0.00 | 0.00 | 0.00 | 73 | 1016.8 |
| 20260902114145 | 24 | 178 | 3.2 | 8.0 | 0.00 | 0.00 | 0.00 | 72 | 1016.8 |
| 20260902114043 | 24 | 178 | 3.2 | 8.0 | 0.00 | 0.00 | 0.00 | 73 | 1016.8 |
| 20260902113926 | 24 | 178 | 4.8 | 8.0 | 0.00 | 0.00 | 0.00 | 73 | 1016.8 |
| 20260902113824 | 24 | 176 | 3.2 | 8.0 | 0.00 | 0.00 | 0.00 | 73 | 1016.8 |
| 20260902113742 | 24 | 178 | 4.8 | 8.0 | 0.00 | 0.00 | 0.00 | 73 | 1016.8 |
| 20260902113642 | 24 | 174 | 4.8 | 8.0 | 0.00 | 0.00 | 0.00 | 73 | 1016.8 |
| 20260902113540 | 24 | 178 | 3.2 | 4.8 | 0.00 | 0.00 | 0.00 | 73 | 1016.8 |
| 20260902113437 | 24 | 176 | 3.2 | 4.8 | 0.00 | 0.00 | 0.00 | 73 | 1016.8 |
| 20260902113335 | 24 | 175 | 3.2 | 4.8 | 0.00 | 0.00 | 0.00 | 73 | 1016.8 |
| 20260902113237 | 24 | 176 | 4.8 | 4.8 | 0.00 | 0.00 | 0.00 | 73 | 1016.8 |
| 20260902113147 | 24 | 178 | 4.8 | 4.8 | 0.00 | 0.00 | 0.00 | 73 | 1016.8 |
| 20260902113043 | 24 | 175 | 3.2 | 4.8 | 0.00 | 0.00 | 0.00 | 72 | 1016.8 |
| 20260902113002 | 24 | 178 | 3.2 | 4.8 | 0.00 | 0.00 | 0.00 | 72 | 1016.8 |
| 20260902112839 | 24 | 176 | 4.8 | 4.8 | 0.00 | 0.00 | 0.00 | 73 | 1016.8 |
| 20260902112735 | 24 | 176 | 4.8 | 4.8 | 0.00 | 0.00 | 0.00 | 73 | 1016.7 |
| 20260902112634 | 24 | 176 | 4.8 | 4.8 | 0.00 | 0.00 | 0.00 | 73 | 1016.7 |
| 20260902112532 | 24 | 176 | 3.2 | 4.8 | 0.00 | 0.00 | 0.00 | 73 | 1016.7 |
| 20260902112451 | 24 | 175 | 3.2 | 4.8 | 0.00 | 0.00 | 0.00 | 73 | 1016.7 |
| 20260902112352 | 24 | 176 | 4.8 | 4.8 | 0.00 | 0.00 | 0.00 | 73 | 1016.7 |
| 20260902112251 | 24 | 178 | 4.8 | 4.8 | 0.00 | 0.00 | 0.00 | 73 | 1016.7 |
| 20260902112128 | 24 | 178 | 3.2 | 4.8 | 0.00 | 0.00 | 0.00 | 73 | 1016.7 |
| 20260902112027 | 24 | 178 | 3.2 | 4.8 | 0.00 | 0.00 | 0.00 | 73 | 1016.7 |
| 20260902111927 | 24 | 178 | 3.2 | 4.8 | 0.00 | 0.00 | 0.00 | 72 | 1016.7 |
| 20260902111826 | 24 | 178 | 3.2 | 4.8 | 0.00 | 0.00 | 0.00 | 72 | 1016.7 |
| 20260902111737 | 24 | 178 | 4.8 | 4.8 | 0.00 | 0.00 | 0.00 | 72 | 1016.7 |
| 20260902111645 | 24 | 178 | 3.2 | 4.8 | 0.00 | 0.00 | 0.00 | 72 | 1016.7 |
| 20260902111527 | 24 | 176 | 3.2 | 4.8 | 0.00 | 0.00 | 0.00 | 73 | 1016.7 |
| 20260902111424 | 24 | 178 | 3.2 | 4.8 | 0.00 | 0.00 | 0.00 | 73 | 1016.7 |
| 20260902111343 | 24 | 178 | 4.8 | 4.8 | 0.00 | 0.00 | 0.00 | 72 | 1016.7 |
| 20260902111242 | 24 | 178 | 3.2 | 4.8 | 0.00 | 0.00 | 0.00 | 72 | 1016.7 |
| 20260902111142 | 24 | 176 | 3.2 | 4.8 | 0.00 | 0.00 | 0.00 | 72 | 1016.7 |
| 20260902111043 | 24 | 178 | 3.2 | 8.0 | 0.00 | 0.00 | 0.00 | 72 | 1016.7 |
| 20260902110941 | 24 | 178 | 3.2 | 8.0 | 0.00 | 0.00 | 0.00 | 71 | 1016.7 |
| 20260902110823 | 24 | 175 | 3.2 | 8.0 | 0.00 | 0.00 | 0.00 | 71 | 1016.7 |
| 20260902110742 | 24 | 178 | 3.2 | 8.0 | 0.00 | 0.00 | 0.00 | 71 | 1016.7 |
| 20260902110640 | 24 | 178 | 3.2 | 8.0 | 0.00 | 0.00 | 0.00 | 71 | 1016.7 |
| 20260902110600 | 24 | 178 | 4.8 | 8.0 | 0.00 | 0.00 | 0.00 | 71 | 1016.7 |
| 20260902110458 | 24 | 176 | 3.2 | 8.0 | 0.00 | 0.00 | 0.00 | 71 | 1016.7 |
| 20260902110334 | 24 | 175 | 3.2 | 8.0 | 0.00 | 0.00 | 0.00 | 71 | 1016.7 |
| 20260902110303 | 24 | 176 | 4.8 | 8.0 | 0.00 | 0.00 | 0.00 | 71 | 1016.7 |
| 20260902110151 | 24 | 178 | 4.8 | 8.0 | 0.00 | 0.00 | 0.00 | 71 | 1016.7 |
| 20260902110028 | 24 | 176 | 4.8 | 6.4 | 0.00 | 0.00 | 0.00 | 71 | 1016.7 |
| 20260902105932 | 24 | 179 | 3.2 | 6.4 | 0.00 | 0.00 | 0.00 | 71 | 1016.7 |
| 20260902105830 | 24 | 178 | 4.8 | 8.0 | 0.00 | 0.00 | 0.00 | 71 | 1016.7 |
| 20260902105728 | 24 | 178 | 3.2 | 8.0 | 0.00 | 0.00 | 0.00 | 71 | 1016.6 |
| 20260902105629 | 24 | 178 | 4.8 | 8.0 | 0.00 | 0.00 | 0.00 | 71 | 1016.6 |
| 20260902105551 | 24 | 179 | 4.8 | 8.0 | 0.00 | 0.00 | 0.00 | 71 | 1016.6 |
| 20260902105428 | 24 | 178 | 4.8 | 8.0 | 0.00 | 0.00 | 0.00 | 72 | 1016.6 |
| 20260902105327 | 24 | 179 | 4.8 | 8.0 | 0.00 | 0.00 | 0.00 | 72 | 1016.6 |
| 20260902105227 | 24 | 178 | 4.8 | 8.0 | 0.00 | 0.00 | 0.00 | 72 | 1016.6 |
| 20260902105129 | 24 | 178 | 4.8 | 8.0 | 0.00 | 0.00 | 0.00 | 72 | 1016.6 |
| 20260902105028 | 24 | 174 | 4.8 | 8.0 | 0.00 | 0.00 | 0.00 | 72 | 1016.6 |
| 20260902104926 | 24 | 178 | 4.8 | 8.0 | 0.00 | 0.00 | 0.00 | 72 | 1016.6 |
| 20260902104845 | 24 | 178 | 4.8 | 8.0 | 0.00 | 0.00 | 0.00 | 72 | 1016.6 |
| 20260902104803 | 24 | 178 | 4.8 | 8.0 | 0.00 | 0.00 | 0.00 | 72 | 1016.6 |
| 20260902104650 | 24 | 178 | 6.4 | 8.0 | 0.00 | 0.00 | 0.00 | 72 | 1016.6 |
| 20260902104527 | 24 | 178 | 6.4 | 8.0 | 0.00 | 0.00 | 0.00 | 72 | 1016.6 |
| 20260902104446 | 24 | 178 | 6.4 | 8.0 | 0.00 | 0.00 | 0.00 | 72 | 1016.6 |
| 20260902104404 | 24 | 178 | 6.4 | 8.0 | 0.00 | 0.00 | 0.00 | 72 | 1016.6 |
| 20260902104305 | 24 | 175 | 4.8 | 8.0 | 0.00 | 0.00 | 0.00 | 72 | 1016.5 |
| 20260902104201 | 24 | 178 | 4.8 | 8.0 | 0.00 | 0.00 | 0.00 | 72 | 1016.5 |
| 20260902104037 | 24 | 178 | 4.8 | 8.0 | 0.00 | 0.00 | 0.00 | 72 | 1016.5 |
| 20260902103936 | 24 | 178 | 6.4 | 8.0 | 0.00 | 0.00 | 0.00 | 72 | 1016.5 |
| 20260902103834 | 24 | 178 | 4.8 | 8.0 | 0.00 | 0.00 | 0.00 | 73 | 1016.5 |
| 20260902103732 | 24 | 178 | 4.8 | 8.0 | 0.00 | 0.00 | 0.00 | 72 | 1016.5 |
| 20260902103630 | 24 | 178 | 4.8 | 8.0 | 0.00 | 0.00 | 0.00 | 72 | 1016.5 |
| 20260902103529 | 24 | 178 | 4.8 | 8.0 | 0.00 | 0.00 | 0.00 | 72 | 1016.5 |
| 20260902103430 | 24 | 178 | 4.8 | 8.0 | 0.00 | 0.00 | 0.00 | 73 | 1016.5 |
| 20260902103329 | 24 | 178 | 3.2 | 8.0 | 0.00 | 0.00 | 0.00 | 73 | 1016.5 |
| 20260902103239 | 24 | 178 | 6.4 | 8.0 | 0.00 | 0.00 | 0.00 | 74 | 1016.5 |
| 20260902103149 | 24 | 178 | 4.8 | 8.0 | 0.00 | 0.00 | 0.00 | 74 | 1016.5 |
| 20260902103025 | 24 | 178 | 6.4 | 8.0 | 0.00 | 0.00 | 0.00 | 74 | 1016.5 |
| 20260902102942 | 24 | 179 | 4.8 | 8.0 | 0.00 | 0.00 | 0.00 | 74 | 1016.5 |
| 20260902102841 | 24 | 179 | 6.4 | 8.0 | 0.00 | 0.00 | 0.00 | 73 | 1016.5 |
| 20260902102743 | 24 | 179 | 6.4 | 8.0 | 0.00 | 0.00 | 0.00 | 74 | 1016.3 |
| 20260902102642 | 24 | 181 | 6.4 | 8.0 | 0.00 | 0.00 | 0.00 | 74 | 1016.3 |
| 20260902102541 | 25 | 182 | 4.8 | 8.0 | 0.00 | 0.00 | 0.00 | 73 | 1016.3 |
| 20260902102441 | 25 | 181 | 4.8 | 8.0 | 0.00 | 0.00 | 0.00 | 73 | 1016.3 |
| 20260902102339 | 25 | 181 | 4.8 | 8.0 | 0.00 | 0.00 | 0.00 | 73 | 1016.3 |
| 20260902102236 | 25 | 178 | 4.8 | 4.8 | 0.00 | 0.00 | 0.00 | 73 | 1016.3 |
| 20260902102136 | 25 | 181 | 4.8 | 4.8 | 0.00 | 0.00 | 0.00 | 73 | 1016.3 |
| 20260902102038 | 25 | 181 | 4.8 | 4.8 | 0.00 | 0.00 | 0.00 | 73 | 1016.3 |
| 20260902101935 | 25 | 182 | 4.8 | 4.8 | 0.00 | 0.00 | 0.00 | 73 | 1016.3 |
| 20260902101834 | 25 | 181 | 4.8 | 4.8 | 0.00 | 0.00 | 0.00 | 72 | 1016.3 |
| 20260902101744 | 25 | 181 | 3.2 | 4.8 | 0.00 | 0.00 | 0.00 | 72 | 1016.3 |
| 20260902101652 | 25 | 181 | 4.8 | 4.8 | 0.00 | 0.00 | 0.00 | 72 | 1016.3 |
| 20260902101530 | 25 | 181 | 4.8 | 4.8 | 0.00 | 0.00 | 0.00 | 72 | 1016.3 |
| 20260902101429 | 25 | 181 | 4.8 | 4.8 | 0.00 | 0.00 | 0.00 | 71 | 1016.3 |
| 20260902101332 | 25 | 181 | 4.8 | 4.8 | 0.00 | 0.00 | 0.00 | 71 | 1016.3 |
| 20260902101230 | 25 | 181 | 4.8 | 4.8 | 0.00 | 0.00 | 0.00 | 71 | 1016.3 |
| 20260902101129 | 25 | 181 | 3.2 | 4.8 | 0.00 | 0.00 | 0.00 | 71 | 1016.3 |
| 20260902101028 | 25 | 181 | 3.2 | 4.8 | 0.00 | 0.00 | 0.00 | 71 | 1016.3 |
| 20260902100925 | 25 | 178 | 4.8 | 4.8 | 0.00 | 0.00 | 0.00 | 71 | 1016.3 |
| 20260902100843 | 25 | 181 | 4.8 | 4.8 | 0.00 | 0.00 | 0.00 | 71 | 1016.3 |
| 20260902100741 | 25 | 181 | 3.2 | 4.8 | 0.00 | 0.00 | 0.00 | 71 | 1016.3 |
| 20260902100643 | 25 | 182 | 4.8 | 4.8 | 0.00 | 0.00 | 0.00 | 71 | 1016.3 |
| 20260902100603 | 25 | 179 | 4.8 | 4.8 | 0.00 | 0.00 | 0.00 | 71 | 1016.3 |
| 20260902100440 | 25 | 181 | 3.2 | 4.8 | 0.00 | 0.00 | 0.00 | 71 | 1016.3 |
| 20260902100338 | 25 | 179 | 4.8 | 4.8 | 0.00 | 0.00 | 0.00 | 70 | 1016.3 |
| 20260902100207 | 25 | 182 | 3.2 | 4.8 | 0.00 | 0.00 | 0.00 | 70 | 1016.3 |
| 20260902095940 | 25 | 182 | 3.2 | 4.8 | 0.00 | 0.00 | 0.00 | 70 | 1016.3 |
| 20260902095842 | 25 | 181 | 3.2 | 4.8 | 0.00 | 0.00 | 0.00 | 70 | 1016.3 |
| 20260902095800 | 25 | 181 | 3.2 | 4.8 | 0.00 | 0.00 | 0.00 | 70 | 1016.1 |
| 20260902095642 | 25 | 181 | 3.2 | 4.8 | 0.00 | 0.00 | 0.00 | 70 | 1016.1 |
| 20260902095600 | 25 | 181 | 3.2 | 4.8 | 0.00 | 0.00 | 0.00 | 70 | 1016.1 |
| 20260902095437 | 25 | 181 | 3.2 | 4.8 | 0.00 | 0.00 | 0.00 | 70 | 1016.1 |
| 20260902095335 | 25 | 181 | 3.2 | 4.8 | 0.00 | 0.00 | 0.00 | 70 | 1016.1 |
| 20260902095233 | 25 | 179 | 3.2 | 4.8 | 0.00 | 0.00 | 0.00 | 70 | 1016.1 |
| 20260902095132 | 25 | 178 | 3.2 | 4.8 | 0.00 | 0.00 | 0.00 | 71 | 1016.1 |
| 20260902095034 | 25 | 181 | 3.2 | 4.8 | 0.00 | 0.00 | 0.00 | 71 | 1016.1 |
| 20260902094933 | 25 | 182 | 3.2 | 4.8 | 0.00 | 0.00 | 0.00 | 70 | 1016.1 |
| 20260902094831 | 25 | 179 | 3.2 | 4.8 | 0.00 | 0.00 | 0.00 | 70 | 1016.1 |
| 20260902094751 | 25 | 178 | 3.2 | 4.8 | 0.00 | 0.00 | 0.00 | 70 | 1016.1 |
| 20260902094659 | 25 | 178 | 3.2 | 4.8 | 0.00 | 0.00 | 0.00 | 70 | 1016.1 |
| 20260902094537 | 25 | 181 | 3.2 | 4.8 | 0.00 | 0.00 | 0.00 | 70 | 1016.1 |
| 20260902094436 | 25 | 181 | 3.2 | 4.8 | 0.00 | 0.00 | 0.00 | 71 | 1016.1 |
| 20260902094332 | 25 | 181 | 3.2 | 4.8 | 0.00 | 0.00 | 0.00 | 71 | 1016.1 |
| 20260902094234 | 25 | 181 | 3.2 | 4.8 | 0.00 | 0.00 | 0.00 | 71 | 1016.0 |
| 20260902094133 | 25 | 181 | 3.2 | 4.8 | 0.00 | 0.00 | 0.00 | 70 | 1016.0 |
| 20260902094030 | 25 | 181 | 3.2 | 4.8 | 0.00 | 0.00 | 0.00 | 70 | 1016.0 |
| 20260902093948 | 25 | 181 | 3.2 | 4.8 | 0.00 | 0.00 | 0.00 | 70 | 1016.0 |
| 20260902093824 | 25 | 181 | 3.2 | 4.8 | 0.00 | 0.00 | 0.00 | 70 | 1016.0 |
| 20260902093742 | 25 | 181 | 3.2 | 4.8 | 0.00 | 0.00 | 0.00 | 70 | 1016.0 |
| 20260902093641 | 25 | 182 | 3.2 | 4.8 | 0.00 | 0.00 | 0.00 | 70 | 1016.0 |
| 20260902093559 | 25 | 181 | 3.2 | 4.8 | 0.00 | 0.00 | 0.00 | 70 | 1016.0 |
| 20260902093439 | 25 | 181 | 3.2 | 4.8 | 0.00 | 0.00 | 0.00 | 69 | 1016.0 |
| 20260902093338 | 25 | 181 | 3.2 | 4.8 | 0.00 | 0.00 | 0.00 | 69 | 1016.0 |
| 20260902093235 | 25 | 182 | 3.2 | 4.8 | 0.00 | 0.00 | 0.00 | 69 | 1016.0 |
| 20260902093205 | 25 | 178 | 3.2 | 4.8 | 0.00 | 0.00 | 0.00 | 69 | 1016.0 |
| 20260902093039 | 25 | 179 | 1.6 | 4.8 | 0.00 | 0.00 | 0.00 | 69 | 1016.0 |
| 20260902093000 | 25 | 182 | 3.2 | 4.8 | 0.00 | 0.00 | 0.00 | 69 | 1016.0 |
| 20260902092841 | 25 | 181 | 3.2 | 4.8 | 0.00 | 0.00 | 0.00 | 69 | 1016.0 |
| 20260902092739 | 25 | 179 | 3.2 | 4.8 | 0.00 | 0.00 | 0.00 | 69 | 1015.8 |
| 20260902092636 | 25 | 179 | 1.6 | 4.8 | 0.00 | 0.00 | 0.00 | 69 | 1015.8 |
| 20260902092538 | 25 | 182 | 1.6 | 4.8 | 0.00 | 0.00 | 0.00 | 69 | 1015.8 |
| 20260902092436 | 25 | 181 | 0.0 | 3.2 | 0.00 | 0.00 | 0.00 | 69 | 1015.8 |
| 20260902092335 | 25 | 181 | 1.6 | 3.2 | 0.00 | 0.00 | 0.00 | 69 | 1015.8 |
| 20260902092233 | 25 | 181 | 0.0 | 3.2 | 0.00 | 0.00 | 0.00 | 69 | 1015.8 |
| 20260902092132 | 25 | 181 | 1.6 | 3.2 | 0.00 | 0.00 | 0.00 | 69 | 1015.8 |
| 20260902092030 | 25 | 179 | 1.6 | 3.2 | 0.00 | 0.00 | 0.00 | 69 | 1015.8 |
| 20260902091949 | 25 | 181 | 1.6 | 3.2 | 0.00 | 0.00 | 0.00 | 69 | 1015.8 |
| 20260902091847 | 25 | 181 | 1.6 | 3.2 | 0.00 | 0.00 | 0.00 | 69 | 1015.8 |
| 20260902091747 | 25 | 181 | 0.0 | 3.2 | 0.00 | 0.00 | 0.00 | 68 | 1015.8 |
| 20260902091656 | 25 | 182 | 0.0 | 3.2 | 0.00 | 0.00 | 0.00 | 68 | 1015.8 |
| 20260902091533 | 25 | 179 | 0.0 | 4.8 | 0.00 | 0.00 | 0.00 | 68 | 1015.8 |
| 20260902091433 | 25 | 179 | 0.0 | 4.8 | 0.00 | 0.00 | 0.00 | 68 | 1015.8 |
| 20260902091332 | 25 | 181 | 1.6 | 4.8 | 0.00 | 0.00 | 0.00 | 68 | 1015.8 |
| 20260902091230 | 25 | 182 | 0.0 | 4.8 | 0.00 | 0.00 | 0.00 | 68 | 1015.7 |
| 20260902091129 | 25 | 181 | 1.6 | 4.8 | 0.00 | 0.00 | 0.00 | 69 | 1015.7 |
| 20260902091031 | 25 | 182 | 1.6 | 4.8 | 0.00 | 0.00 | 0.00 | 69 | 1015.7 |
| 20260902090954 | 25 | 179 | 1.6 | 4.8 | 0.00 | 0.00 | 0.00 | 68 | 1015.7 |
| 20260902090831 | 25 | 181 | 1.6 | 4.8 | 0.00 | 0.00 | 0.00 | 69 | 1015.7 |
| 20260902090729 | 25 | 181 | 3.2 | 4.8 | 0.00 | 0.00 | 0.00 | 69 | 1015.7 |
| 20260902090630 | 25 | 181 | 3.2 | 4.8 | 0.00 | 0.00 | 0.00 | 69 | 1015.7 |
| 20260902090529 | 25 | 182 | 3.2 | 4.8 | 0.00 | 0.00 | 0.00 | 68 | 1015.7 |
| 20260902090426 | 25 | 181 | 3.2 | 4.8 | 0.00 | 0.00 | 0.00 | 68 | 1015.7 |
| 20260902090343 | 25 | 181 | 1.6 | 4.8 | 0.00 | 0.00 | 0.00 | 68 | 1015.7 |
| 20260902090237 | 25 | 182 | 3.2 | 4.8 | 0.00 | 0.00 | 0.00 | 68 | 1015.7 |
| 20260902090147 | 25 | 181 | 3.2 | 4.8 | 0.00 | 0.00 | 0.00 | 68 | 1015.7 |
| 20260902090043 | 25 | 181 | 3.2 | 4.8 | 0.00 | 0.00 | 0.00 | 68 | 1015.7 |
| 20260902085940 | 25 | 179 | 3.2 | 4.8 | 0.00 | 0.00 | 0.00 | 68 | 1015.7 |
| 20260902085838 | 25 | 179 | 3.2 | 6.4 | 0.00 | 0.00 | 0.00 | 69 | 1015.7 |
| 20260902085735 | 25 | 181 | 3.2 | 6.4 | 0.00 | 0.00 | 0.00 | 69 | 1015.6 |
| 20260902085633 | 25 | 181 | 3.2 | 6.4 | 0.00 | 0.00 | 0.00 | 69 | 1015.6 |
| 20260902085551 | 25 | 181 | 3.2 | 6.4 | 0.00 | 0.00 | 0.00 | 69 | 1015.6 |
| 20260902085450 | 25 | 181 | 3.2 | 6.4 | 0.00 | 0.00 | 0.00 | 69 | 1015.6 |
| 20260902085334 | 25 | 181 | 3.2 | 6.4 | 0.00 | 0.00 | 0.00 | 69 | 1015.6 |
| 20260902085233 | 25 | 181 | 3.2 | 6.4 | 0.00 | 0.00 | 0.00 | 69 | 1015.6 |
| 20260902085131 | 25 | 181 | 3.2 | 6.4 | 0.00 | 0.00 | 0.00 | 70 | 1015.6 |
| 20260902085051 | 25 | 178 | 4.8 | 6.4 | 0.00 | 0.00 | 0.00 | 70 | 1015.6 |
| 20260902084928 | 25 | 182 | 3.2 | 4.8 | 0.00 | 0.00 | 0.00 | 69 | 1015.6 |
| 20260902084826 | 25 | 181 | 3.2 | 4.8 | 0.00 | 0.00 | 0.00 | 69 | 1015.6 |
| 20260902084735 | 25 | 179 | 4.8 | 4.8 | 0.00 | 0.00 | 0.00 | 69 | 1015.6 |
| 20260902084645 | 25 | 182 | 3.2 | 4.8 | 0.00 | 0.00 | 0.00 | 69 | 1015.6 |
| 20260902084528 | 25 | 181 | 4.8 | 4.8 | 0.00 | 0.00 | 0.00 | 69 | 1015.6 |
| 20260902084427 | 25 | 181 | 3.2 | 4.8 | 0.00 | 0.00 | 0.00 | 68 | 1015.6 |
| 20260902084325 | 25 | 182 | 4.8 | 4.8 | 0.00 | 0.00 | 0.00 | 68 | 1015.6 |
| 20260902084243 | 25 | 182 | 3.2 | 4.8 | 0.00 | 0.00 | 0.00 | 68 | 1015.4 |
| 20260902084143 | 25 | 181 | 3.2 | 6.4 | 0.00 | 0.00 | 0.00 | 68 | 1015.4 |
| 20260902084042 | 25 | 181 | 3.2 | 6.4 | 0.00 | 0.00 | 0.00 | 68 | 1015.4 |
| 20260902083941 | 25 | 181 | 3.2 | 6.4 | 0.00 | 0.00 | 0.00 | 68 | 1015.4 |
| 20260902083844 | 25 | 181 | 3.2 | 6.4 | 0.00 | 0.00 | 0.00 | 68 | 1015.4 |
| 20260902083741 | 25 | 181 | 3.2 | 8.0 | 0.00 | 0.00 | 0.00 | 68 | 1015.4 |
| 20260902083639 | 25 | 182 | 3.2 | 8.0 | 0.00 | 0.00 | 0.00 | 68 | 1015.4 |
| 20260902083538 | 25 | 179 | 3.2 | 8.0 | 0.00 | 0.00 | 0.00 | 68 | 1015.4 |
| 20260902083436 | 25 | 178 | 4.8 | 8.0 | 0.00 | 0.00 | 0.00 | 68 | 1015.4 |
| 20260902083338 | 25 | 181 | 4.8 | 8.0 | 0.00 | 0.00 | 0.00 | 68 | 1015.4 |
| 20260902083256 | 25 | 182 | 4.8 | 8.0 | 0.00 | 0.00 | 0.00 | 68 | 1015.4 |
| 20260902083212 | 25 | 181 | 4.8 | 8.0 | 0.00 | 0.00 | 0.00 | 68 | 1015.4 |
| 20260902083027 | 25 | 181 | 4.8 | 8.0 | 0.00 | 0.00 | 0.00 | 68 | 1015.4 |
| 20260902082926 | 25 | 181 | 4.8 | 8.0 | 0.00 | 0.00 | 0.00 | 67 | 1015.4 |
| 20260902082845 | 25 | 181 | 4.8 | 8.0 | 0.00 | 0.00 | 0.00 | 68 | 1015.4 |
| 20260902082804 | 25 | 181 | 3.2 | 4.8 | 0.00 | 0.00 | 0.00 | 67 | 1015.4 |
| 20260902082701 | 25 | 181 | 3.2 | 4.8 | 0.00 | 0.00 | 0.00 | 67 | 1015.4 |
| 20260902082538 | 25 | 181 | 4.8 | 4.8 | 0.00 | 0.00 | 0.00 | 67 | 1015.4 |
| 20260902082437 | 25 | 181 | 3.2 | 4.8 | 0.00 | 0.00 | 0.00 | 66 | 1015.4 |
| 20260902082340 | 25 | 181 | 4.8 | 4.8 | 0.00 | 0.00 | 0.00 | 66 | 1015.4 |
| 20260902082238 | 25 | 181 | 4.8 | 4.8 | 0.00 | 0.00 | 0.00 | 66 | 1015.4 |
| 20260902082136 | 25 | 182 | 3.2 | 4.8 | 0.00 | 0.00 | 0.00 | 66 | 1015.4 |
| 20260902082031 | 25 | 182 | 3.2 | 4.8 | 0.00 | 0.00 | 0.00 | 66 | 1015.4 |
| 20260902081930 | 25 | 182 | 3.2 | 4.8 | 0.00 | 0.00 | 0.00 | 66 | 1015.4 |
| 20260902081829 | 25 | 181 | 3.2 | 4.8 | 0.00 | 0.00 | 0.00 | 66 | 1015.4 |
| 20260902081739 | 25 | 179 | 3.2 | 4.8 | 0.00 | 0.00 | 0.00 | 66 | 1015.4 |
| 20260902081647 | 25 | 181 | 3.2 | 4.8 | 0.00 | 0.00 | 0.00 | 66 | 1015.4 |
| 20260902081529 | 25 | 181 | 3.2 | 4.8 | 0.00 | 0.00 | 0.00 | 66 | 1015.4 |
| 20260902081448 | 25 | 181 | 3.2 | 4.8 | 0.00 | 0.00 | 0.00 | 66 | 1015.4 |
| 20260902081345 | 25 | 181 | 3.2 | 4.8 | 0.00 | 0.00 | 0.00 | 66 | 1015.4 |
| 20260902081242 | 25 | 179 | 3.2 | 4.8 | 0.00 | 0.00 | 0.00 | 66 | 1015.2 |
| 20260902081140 | 25 | 181 | 3.2 | 6.4 | 0.00 | 0.00 | 0.00 | 66 | 1015.2 |
| 20260902081040 | 25 | 182 | 4.8 | 6.4 | 0.00 | 0.00 | 0.00 | 66 | 1015.2 |
| 20260902080938 | 25 | 181 | 3.2 | 6.4 | 0.00 | 0.00 | 0.00 | 66 | 1015.2 |
| 20260902080836 | 25 | 181 | 4.8 | 6.4 | 0.00 | 0.00 | 0.00 | 66 | 1015.2 |
| 20260902080739 | 25 | 181 | 3.2 | 6.4 | 0.00 | 0.00 | 0.00 | 66 | 1015.2 |
| 20260902080637 | 25 | 181 | 4.8 | 6.4 | 0.00 | 0.00 | 0.00 | 66 | 1015.2 |
| 20260902080557 | 25 | 181 | 3.2 | 6.4 | 0.00 | 0.00 | 0.00 | 66 | 1015.2 |
| 20260902080434 | 25 | 179 | 4.8 | 6.4 | 0.00 | 0.00 | 0.00 | 66 | 1015.2 |
| 20260902080332 | 25 | 181 | 4.8 | 6.4 | 0.00 | 0.00 | 0.00 | 66 | 1015.2 |
| 20260902080251 | 25 | 181 | 4.8 | 6.4 | 0.00 | 0.00 | 0.00 | 65 | 1015.2 |
| 20260902080201 | 25 | 181 | 4.8 | 4.8 | 0.00 | 0.00 | 0.00 | 65 | 1015.2 |
| 20260902080038 | 25 | 181 | 3.2 | 4.8 | 0.00 | 0.00 | 0.00 | 65 | 1015.2 |
| 20260902075940 | 25 | 178 | 3.2 | 4.8 | 0.00 | 0.00 | 0.00 | 65 | 1015.2 |
| 20260902075839 | 25 | 181 | 3.2 | 4.8 | 0.00 | 0.00 | 0.00 | 65 | 1015.2 |
| 20260902075758 | 25 | 181 | 3.2 | 4.8 | 0.00 | 0.00 | 0.00 | 65 | 1015.2 |
| 20260902075637 | 25 | 181 | 3.2 | 4.8 | 0.00 | 0.00 | 0.00 | 65 | 1015.2 |
| 20260902075536 | 25 | 181 | 3.2 | 4.8 | 0.00 | 0.00 | 0.00 | 65 | 1015.2 |
| 20260902075454 | 25 | 182 | 4.8 | 8.0 | 0.00 | 0.00 | 0.00 | 65 | 1015.2 |
| 20260902075333 | 25 | 181 | 3.2 | 8.0 | 0.00 | 0.00 | 0.00 | 65 | 1015.2 |
| 20260902075251 | 25 | 176 | 4.8 | 8.0 | 0.00 | 0.00 | 0.00 | 65 | 1015.2 |
| 20260902075152 | 25 | 181 | 4.8 | 8.0 | 0.00 | 0.00 | 0.00 | 65 | 1015.2 |
| 20260902075030 | 25 | 179 | 4.8 | 8.0 | 0.00 | 0.00 | 0.00 | 65 | 1015.2 |
| 20260902074950 | 25 | 181 | 3.2 | 8.0 | 0.00 | 0.00 | 0.00 | 65 | 1015.2 |
| 20260902074827 | 25 | 181 | 3.2 | 8.0 | 0.00 | 0.00 | 0.00 | 65 | 1015.2 |
| 20260902074726 | 25 | 182 | 3.2 | 8.0 | 0.00 | 0.00 | 0.00 | 65 | 1015.2 |
| 20260902074655 | 25 | 181 | 4.8 | 8.0 | 0.00 | 0.00 | 0.00 | 65 | 1015.2 |
| 20260902074531 | 25 | 178 | 4.8 | 8.0 | 0.00 | 0.00 | 0.00 | 65 | 1015.2 |
| 20260902074430 | 25 | 181 | 4.8 | 8.0 | 0.00 | 0.00 | 0.00 | 65 | 1015.2 |
| 20260902074329 | 25 | 181 | 4.8 | 8.0 | 0.00 | 0.00 | 0.00 | 65 | 1015.2 |
| 20260902074231 | 25 | 182 | 4.8 | 8.0 | 0.00 | 0.00 | 0.00 | 65 | 1015.1 |
| 20260902074129 | 25 | 181 | 4.8 | 8.0 | 0.00 | 0.00 | 0.00 | 65 | 1015.1 |
| 20260902074028 | 25 | 181 | 4.8 | 8.0 | 0.00 | 0.00 | 0.00 | 65 | 1015.1 |
| 20260902073927 | 25 | 181 | 4.8 | 8.0 | 0.00 | 0.00 | 0.00 | 65 | 1015.1 |
| 20260902073845 | 25 | 182 | 4.8 | 6.4 | 0.00 | 0.00 | 0.00 | 64 | 1015.1 |
| 20260902073805 | 25 | 178 | 4.8 | 6.4 | 0.00 | 0.00 | 0.00 | 64 | 1015.1 |
| 20260902073702 | 25 | 178 | 4.8 | 6.4 | 0.00 | 0.00 | 0.00 | 64 | 1015.1 |
| 20260902073541 | 25 | 181 | 3.2 | 6.4 | 0.00 | 0.00 | 0.00 | 64 | 1015.1 |
| 20260902073505 | 25 | 178 | 4.8 | 6.4 | 0.00 | 0.00 | 0.00 | 64 | 1015.1 |
| 20260902073403 | 25 | 182 | 4.8 | 6.4 | 0.00 | 0.00 | 0.00 | 65 | 1015.1 |
| 20260902073232 | 25 | 181 | 4.8 | 6.4 | 0.00 | 0.00 | 0.00 | 65 | 1015.1 |
| 20260902073144 | 25 | 181 | 4.8 | 6.4 | 0.00 | 0.00 | 0.00 | 65 | 1015.1 |
| 20260902073043 | 25 | 181 | 4.8 | 6.4 | 0.00 | 0.00 | 0.00 | 65 | 1015.1 |
| 20260902072942 | 25 | 182 | 4.8 | 4.8 | 0.00 | 0.00 | 0.00 | 65 | 1015.1 |
| 20260902072841 | 25 | 179 | 3.2 | 4.8 | 0.00 | 0.00 | 0.00 | 65 | 1015.1 |
| 20260902072738 | 25 | 181 | 3.2 | 4.8 | 0.00 | 0.00 | 0.00 | 65 | 1015.3 |
| 20260902072641 | 25 | 182 | 3.2 | 4.8 | 0.00 | 0.00 | 0.00 | 64 | 1015.3 |
| 20260902072537 | 25 | 181 | 3.2 | 4.8 | 0.00 | 0.00 | 0.00 | 65 | 1015.3 |
| 20260902072435 | 25 | 181 | 3.2 | 4.8 | 0.00 | 0.00 | 0.00 | 64 | 1015.3 |
| 20260902072333 | 25 | 182 | 4.8 | 4.8 | 0.00 | 0.00 | 0.00 | 65 | 1015.3 |
| 20260902072231 | 25 | 181 | 3.2 | 4.8 | 0.00 | 0.00 | 0.00 | 65 | 1015.3 |
| 20260902072130 | 25 | 182 | 3.2 | 4.8 | 0.00 | 0.00 | 0.00 | 65 | 1015.3 |
| 20260902072028 | 25 | 182 | 3.2 | 4.8 | 0.00 | 0.00 | 0.00 | 66 | 1015.3 |
| 20260902071931 | 25 | 182 | 3.2 | 4.8 | 0.00 | 0.00 | 0.00 | 66 | 1015.3 |
| 20260902071830 | 25 | 181 | 1.6 | 4.8 | 0.00 | 0.00 | 0.00 | 66 | 1015.3 |
| 20260902071741 | 25 | 179 | 3.2 | 4.8 | 0.00 | 0.00 | 0.00 | 66 | 1015.3 |
| 20260902071649 | 25 | 179 | 3.2 | 4.8 | 0.00 | 0.00 | 0.00 | 66 | 1015.3 |
| 20260902071526 | 25 | 181 | 3.2 | 4.8 | 0.00 | 0.00 | 0.00 | 67 | 1015.3 |
| 20260902071424 | 25 | 181 | 3.2 | 4.8 | 0.00 | 0.00 | 0.00 | 68 | 1015.3 |
| 20260902071342 | 25 | 181 | 3.2 | 6.4 | 0.00 | 0.00 | 0.00 | 68 | 1015.3 |
| 20260902071225 | 25 | 182 | 4.8 | 6.4 | 0.00 | 0.00 | 0.00 | 68 | 1015.4 |
| 20260902071142 | 25 | 182 | 4.8 | 6.4 | 0.00 | 0.00 | 0.00 | 66 | 1015.4 |
| 20260902071040 | 25 | 179 | 3.2 | 8.0 | 0.00 | 0.00 | 0.00 | 66 | 1015.4 |
| 20260902070938 | 25 | 181 | 3.2 | 9.7 | 0.00 | 0.00 | 0.00 | 66 | 1015.4 |
| 20260902070838 | 25 | 181 | 4.8 | 9.7 | 0.00 | 0.00 | 0.00 | 65 | 1015.4 |
| 20260902070737 | 25 | 182 | 4.8 | 9.7 | 0.00 | 0.00 | 0.00 | 65 | 1015.4 |
| 20260902070636 | 25 | 181 | 4.8 | 9.7 | 0.00 | 0.00 | 0.00 | 65 | 1015.4 |
| 20260902070538 | 25 | 181 | 4.8 | 9.7 | 0.00 | 0.00 | 0.00 | 65 | 1015.4 |
| 20260902070436 | 25 | 181 | 4.8 | 9.7 | 0.00 | 0.00 | 0.00 | 65 | 1015.4 |
| 20260902070334 | 25 | 181 | 4.8 | 9.7 | 0.00 | 0.00 | 0.00 | 65 | 1015.4 |
| 20260902070231 | 25 | 182 | 4.8 | 9.7 | 0.00 | 0.00 | 0.00 | 66 | 1015.4 |
| 20260902070201 | 25 | 181 | 6.4 | 9.7 | 0.00 | 0.00 | 0.00 | 66 | 1015.4 |
| 20260902070040 | 25 | 184 | 4.8 | 9.7 | 0.00 | 0.00 | 0.00 | 66 | 1015.4 |
| 20260902065958 | 25 | 184 | 4.8 | 9.7 | 0.00 | 0.00 | 0.00 | 66 | 1015.4 |
| 20260902065840 | 25 | 185 | 6.4 | 9.7 | 0.00 | 0.00 | 0.00 | 66 | 1015.4 |
| 20260902065738 | 25 | 186 | 4.8 | 9.7 | 0.00 | 0.00 | 0.00 | 66 | 1015.6 |
| 20260902065637 | 25 | 186 | 4.8 | 9.7 | 0.00 | 0.00 | 0.00 | 65 | 1015.6 |
| 20260902065534 | 25 | 184 | 4.8 | 9.7 | 0.00 | 0.00 | 0.00 | 65 | 1015.6 |
| 20260902065454 | 25 | 186 | 4.8 | 9.7 | 0.00 | 0.00 | 0.00 | 66 | 1015.6 |
| 20260902065331 | 25 | 186 | 6.4 | 9.7 | 0.00 | 0.00 | 0.00 | 66 | 1015.6 |
| 20260902065228 | 25 | 186 | 6.4 | 9.7 | 0.00 | 0.00 | 0.00 | 66 | 1015.6 |
| 20260902065131 | 25 | 186 | 4.8 | 9.7 | 0.00 | 0.00 | 0.00 | 66 | 1015.6 |
| 20260902065050 | 25 | 188 | 6.4 | 9.7 | 0.00 | 0.00 | 0.00 | 66 | 1015.6 |
| 20260902064927 | 25 | 189 | 4.8 | 9.7 | 0.00 | 0.00 | 0.00 | 66 | 1015.6 |
| 20260902064846 | 25 | 191 | 4.8 | 9.7 | 0.00 | 0.00 | 0.00 | 66 | 1015.6 |
| 20260902064743 | 25 | 192 | 4.8 | 9.7 | 0.00 | 0.00 | 0.00 | 66 | 1015.6 |
| 20260902064652 | 25 | 189 | 6.4 | 9.7 | 0.00 | 0.00 | 0.00 | 67 | 1015.6 |
| 20260902064530 | 25 | 191 | 6.4 | 9.7 | 0.00 | 0.00 | 0.00 | 67 | 1015.6 |
| 20260902064429 | 25 | 192 | 8.0 | 9.7 | 0.00 | 0.00 | 0.00 | 67 | 1015.6 |
| 20260902064328 | 25 | 191 | 6.4 | 9.7 | 0.00 | 0.00 | 0.00 | 67 | 1015.6 |
| 20260902064230 | 25 | 192 | 6.4 | 9.7 | 0.00 | 0.00 | 0.00 | 67 | 1015.6 |
| 20260902064152 | 25 | 193 | 6.4 | 9.7 | 0.00 | 0.00 | 0.00 | 67 | 1015.6 |
| 20260902064029 | 25 | 193 | 6.4 | 9.7 | 0.00 | 0.00 | 0.00 | 67 | 1015.6 |
| 20260902063930 | 25 | 192 | 8.0 | 9.7 | 0.00 | 0.00 | 0.00 | 67 | 1015.6 |
| 20260902063829 | 25 | 200 | 6.4 | 9.7 | 0.00 | 0.00 | 0.00 | 67 | 1015.6 |
| 20260902063726 | 25 | 203 | 6.4 | 9.7 | 0.00 | 0.00 | 0.00 | 67 | 1015.6 |
| 20260902063625 | 25 | 202 | 6.4 | 9.7 | 0.00 | 0.00 | 0.00 | 67 | 1015.6 |
| 20260902063551 | 25 | 203 | 6.4 | 9.7 | 0.00 | 0.00 | 0.00 | 67 | 1015.6 |
| 20260902063428 | 25 | 200 | 4.8 | 8.0 | 0.00 | 0.00 | 0.00 | 67 | 1015.6 |
| 20260902063326 | 25 | 202 | 6.4 | 8.0 | 0.00 | 0.00 | 0.00 | 68 | 1015.6 |
| 20260902063237 | 25 | 203 | 8.0 | 8.0 | 0.00 | 0.00 | 0.00 | 68 | 1015.6 |
| 20260902063148 | 25 | 202 | 6.4 | 8.0 | 0.00 | 0.00 | 0.00 | 68 | 1015.6 |
| 20260902063044 | 25 | 205 | 4.8 | 8.0 | 0.00 | 0.00 | 0.00 | 68 | 1015.6 |
| 20260902062942 | 25 | 206 | 4.8 | 8.0 | 0.00 | 0.00 | 0.00 | 68 | 1015.6 |
| 20260902062839 | 25 | 206 | 6.4 | 8.0 | 0.00 | 0.00 | 0.00 | 68 | 1015.6 |
| 20260902062742 | 25 | 212 | 4.8 | 8.0 | 0.00 | 0.00 | 0.00 | 68 | 1015.7 |
| 20260902062640 | 25 | 212 | 4.8 | 8.0 | 0.00 | 0.00 | 0.00 | 68 | 1015.7 |
| 20260902062538 | 25 | 212 | 6.4 | 8.0 | 0.00 | 0.00 | 0.00 | 68 | 1015.7 |
| 20260902062437 | 25 | 213 | 6.4 | 8.0 | 0.00 | 0.00 | 0.00 | 68 | 1015.7 |
| 20260902062355 | 25 | 215 | 6.4 | 8.0 | 0.00 | 0.00 | 0.00 | 68 | 1015.7 |
| 20260902062131 | 25 | 212 | 4.8 | 8.0 | 0.00 | 0.00 | 0.00 | 68 | 1015.7 |
| 20260902062032 | 25 | 213 | 6.4 | 8.0 | 0.00 | 0.00 | 0.00 | 68 | 1015.7 |
| 20260902061931 | 25 | 227 | 4.8 | 6.4 | 0.00 | 0.00 | 0.00 | 68 | 1015.7 |
| 20260902061830 | 25 | 224 | 4.8 | 6.4 | 0.00 | 0.00 | 0.00 | 68 | 1015.7 |
| 20260902061740 | 25 | 227 | 4.8 | 6.4 | 0.00 | 0.00 | 0.00 | 68 | 1015.7 |
| 20260902061649 | 25 | 227 | 4.8 | 4.8 | 0.00 | 0.00 | 0.00 | 68 | 1015.7 |
| 20260902061545 | 25 | 227 | 3.2 | 4.8 | 0.00 | 0.00 | 0.00 | 68 | 1015.7 |
| 20260902061401 | 25 | 227 | 3.2 | 4.8 | 0.00 | 0.00 | 0.00 | 68 | 1015.7 |
| 20260902061238 | 25 | 229 | 3.2 | 4.8 | 0.00 | 0.00 | 0.00 | 68 | 1015.7 |
| 20260902061156 | 25 | 226 | 4.8 | 4.8 | 0.00 | 0.00 | 0.00 | 68 | 1015.7 |
| 20260902061038 | 25 | 227 | 4.8 | 4.8 | 0.00 | 0.00 | 0.00 | 69 | 1015.7 |
| 20260902060936 | 25 | 227 | 4.8 | 4.8 | 0.00 | 0.00 | 0.00 | 68 | 1015.7 |
| 20260902060832 | 25 | 227 | 3.2 | 4.8 | 0.00 | 0.00 | 0.00 | 68 | 1015.7 |
| 20260902060732 | 25 | 227 | 3.2 | 4.8 | 0.00 | 0.00 | 0.00 | 68 | 1015.7 |
| 20260902060631 | 25 | 227 | 3.2 | 4.8 | 0.00 | 0.00 | 0.00 | 68 | 1015.7 |
| 20260902060530 | 25 | 227 | 3.2 | 4.8 | 0.00 | 0.00 | 0.00 | 68 | 1015.7 |
| 20260902060449 | 25 | 229 | 3.2 | 4.8 | 0.00 | 0.00 | 0.00 | 68 | 1015.7 |
| 20260902060350 | 25 | 227 | 3.2 | 4.8 | 0.00 | 0.00 | 0.00 | 68 | 1015.7 |
| 20260902060248 | 25 | 227 | 1.6 | 3.2 | 0.00 | 0.00 | 0.00 | 68 | 1015.7 |
| 20260902060158 | 25 | 227 | 3.2 | 3.2 | 0.00 | 0.00 | 0.00 | 68 | 1015.7 |
| 20260902060035 | 25 | 227 | 3.2 | 3.2 | 0.00 | 0.00 | 0.00 | 68 | 1015.7 |
| 20260902055933 | 25 | 229 | 3.2 | 3.2 | 0.00 | 0.00 | 0.00 | 68 | 1015.7 |
| 20260902055832 | 25 | 227 | 3.2 | 3.2 | 0.00 | 0.00 | 0.00 | 68 | 1015.7 |
| 20260902055730 | 25 | 227 | 1.6 | 3.2 | 0.00 | 0.00 | 0.00 | 68 | 1015.8 |
| 20260902055629 | 25 | 227 | 1.6 | 3.2 | 0.00 | 0.00 | 0.00 | 68 | 1015.8 |
| 20260902055532 | 25 | 227 | 1.6 | 3.2 | 0.00 | 0.00 | 0.00 | 68 | 1015.8 |
| 20260902055431 | 25 | 229 | 1.6 | 3.2 | 0.00 | 0.00 | 0.00 | 68 | 1015.8 |
| 20260902055329 | 25 | 229 | 1.6 | 3.2 | 0.00 | 0.00 | 0.00 | 68 | 1015.8 |
| 20260902055229 | 25 | 227 | 1.6 | 3.2 | 0.00 | 0.00 | 0.00 | 68 | 1015.8 |
| 20260902055131 | 25 | 227 | 1.6 | 3.2 | 0.00 | 0.00 | 0.00 | 68 | 1015.8 |
| 20260902055030 | 25 | 229 | 1.6 | 3.2 | 0.00 | 0.00 | 0.00 | 68 | 1015.8 |
| 20260902054927 | 25 | 227 | 1.6 | 3.2 | 0.00 | 0.00 | 0.00 | 68 | 1015.8 |
| 20260902054831 | 25 | 227 | 1.6 | 3.2 | 0.00 | 0.00 | 0.00 | 68 | 1015.8 |
| 20260902054750 | 25 | 227 | 3.2 | 3.2 | 0.00 | 0.00 | 0.00 | 68 | 1015.8 |
| 20260902054719 | 25 | 227 | 3.2 | 3.2 | 0.00 | 0.00 | 0.00 | 68 | 1015.8 |
| 20260902054536 | 25 | 226 | 3.2 | 3.2 | 0.00 | 0.00 | 0.00 | 68 | 1015.8 |
| 20260902054434 | 25 | 227 | 3.2 | 3.2 | 0.00 | 0.00 | 0.00 | 68 | 1015.8 |
| 20260902054334 | 25 | 229 | 3.2 | 3.2 | 0.00 | 0.00 | 0.00 | 68 | 1015.8 |
| 20260902054232 | 25 | 229 | 1.6 | 3.2 | 0.00 | 0.00 | 0.00 | 68 | 1016.0 |
| 20260902054151 | 25 | 227 | 0.0 | 0.0 | 0.00 | 0.00 | 0.00 | 68 | 1016.0 |
| 20260902054031 | 25 | 226 | 0.0 | 0.0 | 0.00 | 0.00 | 0.00 | 68 | 1016.0 |
| 20260902053930 | 25 | 227 | 0.0 | 0.0 | 0.00 | 0.00 | 0.00 | 68 | 1016.0 |
| 20260902053848 | 25 | 229 | 0.0 | 0.0 | 0.00 | 0.00 | 0.00 | 68 | 1016.0 |
| 20260902053745 | 25 | 227 | 0.0 | 0.0 | 0.00 | 0.00 | 0.00 | 68 | 1016.0 |
| 20260902053626 | 25 | 227 | 0.0 | 0.0 | 0.00 | 0.00 | 0.00 | 68 | 1016.0 |
| 20260902053548 | 25 | 229 | 0.0 | 0.0 | 0.00 | 0.00 | 0.00 | 68 | 1016.0 |
| 20260902053426 | 25 | 227 | 0.0 | 0.0 | 0.00 | 0.00 | 0.00 | 68 | 1016.0 |
| 20260902053343 | 25 | 226 | 0.0 | 0.0 | 0.00 | 0.00 | 0.00 | 68 | 1016.0 |
| 20260902053245 | 25 | 229 | 0.0 | 0.0 | 0.00 | 0.00 | 0.00 | 68 | 1016.0 |
| 20260902053156 | 25 | 229 | 0.0 | 0.0 | 0.00 | 0.00 | 0.00 | 68 | 1016.0 |
| 20260902053032 | 25 | 226 | 0.0 | 0.0 | 0.00 | 0.00 | 0.00 | 68 | 1016.0 |
| 20260902052930 | 25 | 227 | 0.0 | 0.0 | 0.00 | 0.00 | 0.00 | 68 | 1016.0 |
| 20260902052828 | 25 | 227 | 0.0 | 0.0 | 0.00 | 0.00 | 0.00 | 68 | 1016.0 |
| 20260902052748 | 25 | 229 | 0.0 | 0.0 | 0.00 | 0.00 | 0.00 | 68 | 1015.9 |
| 20260902052645 | 25 | 229 | 0.0 | 0.0 | 0.00 | 0.00 | 0.00 | 68 | 1015.9 |
| 20260902052602 | 25 | 227 | 0.0 | 0.0 | 0.00 | 0.00 | 0.00 | 68 | 1015.9 |
| 20260902052439 | 25 | 229 | 0.0 | 0.0 | 0.00 | 0.00 | 0.00 | 68 | 1015.9 |
| 20260902052342 | 25 | 227 | 0.0 | 0.0 | 0.00 | 0.00 | 0.00 | 68 | 1015.9 |
| 20260902052240 | 25 | 226 | 0.0 | 0.0 | 0.00 | 0.00 | 0.00 | 68 | 1015.9 |
| 20260902052138 | 25 | 227 | 0.0 | 0.0 | 0.00 | 0.00 | 0.00 | 68 | 1015.9 |
| 20260902052037 | 25 | 227 | 0.0 | 0.0 | 0.00 | 0.00 | 0.00 | 68 | 1015.9 |
| 20260902051935 | 25 | 229 | 0.0 | 0.0 | 0.00 | 0.00 | 0.00 | 68 | 1015.9 |
| 20260902051834 | 25 | 229 | 0.0 | 0.0 | 0.00 | 0.00 | 0.00 | 68 | 1015.9 |
| 20260902051804 | 25 | 229 | 0.0 | 0.0 | 0.00 | 0.00 | 0.00 | 68 | 1015.9 |
| 20260902051656 | 25 | 227 | 0.0 | 0.0 | 0.00 | 0.00 | 0.00 | 68 | 1015.9 |
| 20260902051533 | 25 | 229 | 0.0 | 0.0 | 0.00 | 0.00 | 0.00 | 68 | 1015.9 |
| 20260902051452 | 25 | 229 | 0.0 | 0.0 | 0.00 | 0.00 | 0.00 | 68 | 1015.9 |
| 20260902051349 | 25 | 227 | 0.0 | 0.0 | 0.00 | 0.00 | 0.00 | 68 | 1015.9 |
| 20260902051227 | 25 | 226 | 0.0 | 0.0 | 0.00 | 0.00 | 0.00 | 68 | 1015.9 |
| 20260902051125 | 26 | 229 | 0.0 | 0.0 | 0.00 | 0.00 | 0.00 | 68 | 1015.9 |
| 20260902051044 | 26 | 226 | 0.0 | 0.0 | 0.00 | 0.00 | 0.00 | 68 | 1015.9 |
| 20260902050942 | 26 | 229 | 0.0 | 0.0 | 0.00 | 0.00 | 0.00 | 68 | 1015.9 |
| 20260902050825 | 26 | 227 | 0.0 | 0.0 | 0.00 | 0.00 | 0.00 | 68 | 1015.9 |
| 20260902050743 | 26 | 226 | 0.0 | 0.0 | 0.00 | 0.00 | 0.00 | 68 | 1015.9 |
| 20260902050643 | 26 | 227 | 0.0 | 0.0 | 0.00 | 0.00 | 0.00 | 68 | 1015.9 |
| 20260902050542 | 26 | 229 | 0.0 | 0.0 | 0.00 | 0.00 | 0.00 | 67 | 1015.9 |
| 20260902050440 | 26 | 229 | 0.0 | 0.0 | 0.00 | 0.00 | 0.00 | 67 | 1015.9 |
| 20260902050339 | 26 | 227 | 0.0 | 0.0 | 0.00 | 0.00 | 0.00 | 67 | 1015.9 |
| 20260902050237 | 26 | 229 | 0.0 | 0.0 | 0.00 | 0.00 | 0.00 | 67 | 1015.9 |
| 20260902050212 | 26 | 227 | 0.0 | 0.0 | 0.00 | 0.00 | 0.00 | 67 | 1015.9 |
| 20260902050047 | 26 | 227 | 0.0 | 0.0 | 0.00 | 0.00 | 0.00 | 67 | 1015.9 |
| 20260902050007 | 26 | 229 | 0.0 | 0.0 | 0.00 | 0.00 | 0.00 | 67 | 1015.9 |
| 20260902045842 | 26 | 229 | 0.0 | 0.0 | 0.00 | 0.00 | 0.00 | 67 | 1015.9 |
| 20260902045740 | 26 | 226 | 0.0 | 0.0 | 0.00 | 0.00 | 0.00 | 67 | 1016.0 |
| 20260902045639 | 26 | 226 | 0.0 | 0.0 | 0.00 | 0.00 | 0.00 | 67 | 1016.0 |
| 20260902045536 | 26 | 229 | 0.0 | 0.0 | 0.00 | 0.00 | 0.00 | 67 | 1016.0 |
| 20260902045456 | 26 | 227 | 0.0 | 1.6 | 0.00 | 0.00 | 0.00 | 67 | 1016.0 |
| 20260902045335 | 26 | 226 | 0.0 | 3.2 | 0.00 | 0.00 | 0.00 | 67 | 1016.0 |
| 20260902045234 | 26 | 229 | 0.0 | 3.2 | 0.00 | 0.00 | 0.00 | 68 | 1016.0 |
| 20260902045134 | 26 | 229 | 0.0 | 3.2 | 0.00 | 0.00 | 0.00 | 68 | 1016.0 |
| 20260902045031 | 26 | 227 | 0.0 | 3.2 | 0.00 | 0.00 | 0.00 | 68 | 1016.0 |
| 20260902044930 | 26 | 229 | 0.0 | 3.2 | 0.00 | 0.00 | 0.00 | 67 | 1016.0 |
| 20260902044828 | 26 | 229 | 0.0 | 3.2 | 0.00 | 0.00 | 0.00 | 67 | 1016.0 |
| 20260902044757 | 26 | 227 | 0.0 | 3.2 | 0.00 | 0.00 | 0.00 | 67 | 1016.0 |
| 20260902044645 | 26 | 229 | 0.0 | 3.2 | 0.00 | 0.00 | 0.00 | 67 | 1016.0 |
| 20260902044527 | 26 | 229 | 1.6 | 3.2 | 0.00 | 0.00 | 0.00 | 67 | 1016.0 |
| 20260902044428 | 26 | 227 | 3.2 | 3.2 | 0.00 | 0.00 | 0.00 | 68 | 1016.0 |
| 20260902044326 | 26 | 227 | 1.6 | 3.2 | 0.00 | 0.00 | 0.00 | 68 | 1016.0 |
| 20260902044226 | 26 | 227 | 1.6 | 3.2 | 0.00 | 0.00 | 0.00 | 67 | 1016.0 |
| 20260902044124 | 26 | 229 | 1.6 | 3.2 | 0.00 | 0.00 | 0.00 | 68 | 1016.0 |
| 20260902044041 | 26 | 229 | 1.6 | 3.2 | 0.00 | 0.00 | 0.00 | 67 | 1016.0 |
| 20260902044000 | 26 | 227 | 1.6 | 3.2 | 0.00 | 0.00 | 0.00 | 68 | 1016.0 |
| 20260902043841 | 26 | 229 | 1.6 | 3.2 | 0.00 | 0.00 | 0.00 | 68 | 1016.0 |
| 20260902043740 | 26 | 226 | 1.6 | 3.2 | 0.00 | 0.00 | 0.00 | 68 | 1016.0 |
| 20260902043638 | 26 | 229 | 1.6 | 3.2 | 0.00 | 0.00 | 0.00 | 68 | 1016.0 |
| 20260902043557 | 26 | 227 | 1.6 | 3.2 | 0.00 | 0.00 | 0.00 | 67 | 1016.0 |
| 20260902043434 | 26 | 229 | 0.0 | 0.0 | 0.00 | 0.00 | 0.00 | 66 | 1016.0 |
| 20260902043333 | 26 | 227 | 0.0 | 0.0 | 0.00 | 0.00 | 0.00 | 66 | 1016.0 |
| 20260902043242 | 26 | 227 | 0.0 | 0.0 | 0.00 | 0.00 | 0.00 | 66 | 1016.0 |
| 20260902043152 | 26 | 224 | 0.0 | 0.0 | 0.00 | 0.00 | 0.00 | 67 | 1016.0 |
| 20260902043032 | 26 | 227 | 0.0 | 0.0 | 0.00 | 0.00 | 0.00 | 67 | 1016.0 |
| 20260902042931 | 26 | 227 | 0.0 | 0.0 | 0.00 | 0.00 | 0.00 | 67 | 1016.0 |
| 20260902042830 | 26 | 227 | 0.0 | 0.0 | 0.00 | 0.00 | 0.00 | 67 | 1016.0 |
| 20260902042729 | 26 | 227 | 0.0 | 0.0 | 0.00 | 0.00 | 0.00 | 67 | 1016.0 |
| 20260902042627 | 26 | 226 | 0.0 | 1.6 | 0.00 | 0.00 | 0.00 | 66 | 1016.0 |
| 20260902042526 | 26 | 229 | 0.0 | 1.6 | 0.00 | 0.00 | 0.00 | 66 | 1016.0 |
| 20260902042427 | 26 | 226 | 0.0 | 3.2 | 0.00 | 0.00 | 0.00 | 66 | 1016.0 |
| 20260902042328 | 26 | 229 | 0.0 | 3.2 | 0.00 | 0.00 | 0.00 | 66 | 1016.0 |
| 20260902042227 | 26 | 229 | 0.0 | 3.2 | 0.00 | 0.00 | 0.00 | 66 | 1016.0 |
| 20260902042125 | 26 | 227 | 0.0 | 3.2 | 0.00 | 0.00 | 0.00 | 66 | 1016.0 |
| 20260902042042 | 26 | 227 | 0.0 | 3.2 | 0.00 | 0.00 | 0.00 | 66 | 1016.0 |
| 20260902042000 | 26 | 226 | 0.0 | 3.2 | 0.00 | 0.00 | 0.00 | 66 | 1016.0 |
| 20260902041919 | 26 | 229 | 0.0 | 3.2 | 0.00 | 0.00 | 0.00 | 66 | 1016.0 |
| 20260902041816 | 26 | 229 | 1.6 | 3.2 | 0.00 | 0.00 | 0.00 | 66 | 1016.0 |
| 20260902041703 | 26 | 226 | 1.6 | 3.2 | 0.00 | 0.00 | 0.00 | 66 | 1016.0 |
| 20260902041545 | 26 | 227 | 1.6 | 3.2 | 0.00 | 0.00 | 0.00 | 66 | 1016.0 |
| 20260902041445 | 26 | 226 | 1.6 | 3.2 | 0.00 | 0.00 | 0.00 | 66 | 1016.0 |
| 20260902041403 | 26 | 227 | 1.6 | 3.2 | 0.00 | 0.00 | 0.00 | 66 | 1016.0 |
| 20260902041303 | 26 | 227 | 1.6 | 3.2 | 0.00 | 0.00 | 0.00 | 66 | 1016.1 |
| 20260902041140 | 26 | 224 | 1.6 | 3.2 | 0.00 | 0.00 | 0.00 | 66 | 1016.1 |
| 20260902041038 | 26 | 227 | 1.6 | 3.2 | 0.00 | 0.00 | 0.00 | 66 | 1016.1 |
| 20260902040936 | 26 | 229 | 1.6 | 4.8 | 0.00 | 0.00 | 0.00 | 66 | 1016.1 |
| 20260902040836 | 26 | 226 | 1.6 | 4.8 | 0.00 | 0.00 | 0.00 | 66 | 1016.1 |
| 20260902040739 | 26 | 226 | 1.6 | 4.8 | 0.00 | 0.00 | 0.00 | 66 | 1016.1 |
| 20260902040638 | 26 | 227 | 1.6 | 4.8 | 0.00 | 0.00 | 0.00 | 66 | 1016.1 |
| 20260902040557 | 26 | 227 | 3.2 | 4.8 | 0.00 | 0.00 | 0.00 | 66 | 1016.1 |
| 20260902040455 | 26 | 226 | 1.6 | 4.8 | 0.00 | 0.00 | 0.00 | 66 | 1016.1 |
| 20260902040353 | 26 | 227 | 3.2 | 4.8 | 0.00 | 0.00 | 0.00 | 66 | 1016.1 |
| 20260902040239 | 26 | 229 | 3.2 | 4.8 | 0.00 | 0.00 | 0.00 | 66 | 1016.1 |
| 20260902040148 | 26 | 229 | 3.2 | 4.8 | 0.00 | 0.00 | 0.00 | 66 | 1016.1 |
| 20260902040024 | 26 | 227 | 3.2 | 4.8 | 0.00 | 0.00 | 0.00 | 66 | 1016.1 |
| 20260902035925 | 26 | 227 | 3.2 | 4.8 | 0.00 | 0.00 | 0.00 | 66 | 1016.1 |
| 20260902035828 | 26 | 224 | 3.2 | 4.8 | 0.00 | 0.00 | 0.00 | 66 | 1016.1 |
| 20260902035726 | 26 | 227 | 3.2 | 4.8 | 0.00 | 0.00 | 0.00 | 66 | 1016.2 |
| 20260902035645 | 26 | 227 | 3.2 | 4.8 | 0.00 | 0.00 | 0.00 | 66 | 1016.2 |
| 20260902035603 | 26 | 227 | 3.2 | 4.8 | 0.00 | 0.00 | 0.00 | 66 | 1016.2 |
| 20260902035441 | 26 | 227 | 4.8 | 4.8 | 0.00 | 0.00 | 0.00 | 67 | 1016.2 |
| 20260902035340 | 26 | 229 | 4.8 | 4.8 | 0.00 | 0.00 | 0.00 | 67 | 1016.2 |
| 20260902035238 | 26 | 226 | 4.8 | 4.8 | 0.00 | 0.00 | 0.00 | 67 | 1016.2 |
| 20260902035141 | 26 | 227 | 4.8 | 4.8 | 0.00 | 0.00 | 0.00 | 67 | 1016.2 |
| 20260902035040 | 26 | 229 | 3.2 | 4.8 | 0.00 | 0.00 | 0.00 | 67 | 1016.2 |
| 20260902034938 | 26 | 227 | 3.2 | 4.8 | 0.00 | 0.00 | 0.00 | 67 | 1016.2 |
| 20260902034836 | 26 | 227 | 3.2 | 4.8 | 0.00 | 0.00 | 0.00 | 67 | 1016.2 |
| 20260902034755 | 26 | 224 | 3.2 | 4.8 | 0.00 | 0.00 | 0.00 | 66 | 1016.2 |
| 20260902034725 | 26 | 226 | 3.2 | 4.8 | 0.00 | 0.00 | 0.00 | 66 | 1016.2 |
| 20260902034602 | 26 | 227 | 3.2 | 4.8 | 0.00 | 0.00 | 0.00 | 66 | 1016.2 |
| 20260902034438 | 26 | 229 | 3.2 | 4.8 | 0.00 | 0.00 | 0.00 | 66 | 1016.2 |
| 20260902034337 | 26 | 226 | 3.2 | 4.8 | 0.00 | 0.00 | 0.00 | 67 | 1016.2 |
| 20260902034240 | 26 | 226 | 3.2 | 4.8 | 0.00 | 0.00 | 0.00 | 66 | 1016.2 |
| 20260902034140 | 26 | 226 | 3.2 | 4.8 | 0.00 | 0.00 | 0.00 | 66 | 1016.2 |
| 20260902034037 | 26 | 229 | 3.2 | 4.8 | 0.00 | 0.00 | 0.00 | 66 | 1016.2 |
| 20260902033937 | 26 | 229 | 3.2 | 4.8 | 0.00 | 0.00 | 0.00 | 66 | 1016.2 |
| 20260902033835 | 26 | 227 | 3.2 | 4.8 | 0.00 | 0.00 | 0.00 | 66 | 1016.2 |
| 20260902033753 | 26 | 229 | 3.2 | 4.8 | 0.00 | 0.00 | 0.00 | 66 | 1016.2 |
| 20260902033652 | 26 | 227 | 3.2 | 4.8 | 0.00 | 0.00 | 0.00 | 66 | 1016.2 |
| 20260902033549 | 26 | 229 | 3.2 | 4.8 | 0.00 | 0.00 | 0.00 | 66 | 1016.2 |
| 20260902033430 | 26 | 227 | 3.2 | 4.8 | 0.00 | 0.00 | 0.00 | 66 | 1016.2 |
| 20260902033329 | 26 | 227 | 4.8 | 4.8 | 0.00 | 0.00 | 0.00 | 66 | 1016.2 |
| 20260902033222 | 26 | 227 | 3.2 | 4.8 | 0.00 | 0.00 | 0.00 | 66 | 1016.2 |
| 20260902033036 | 26 | 224 | 3.2 | 4.8 | 0.00 | 0.00 | 0.00 | 66 | 1016.2 |
| 20260902032957 | 26 | 229 | 4.8 | 4.8 | 0.00 | 0.00 | 0.00 | 66 | 1016.2 |
| 20260902032835 | 26 | 229 | 3.2 | 4.8 | 0.00 | 0.00 | 0.00 | 66 | 1016.2 |
| 20260902032735 | 26 | 229 | 3.2 | 4.8 | 0.00 | 0.00 | 0.00 | 65 | 1016.3 |
| 20260902032636 | 26 | 227 | 4.8 | 4.8 | 0.00 | 0.00 | 0.00 | 65 | 1016.3 |
| 20260902032535 | 26 | 227 | 3.2 | 4.8 | 0.00 | 0.00 | 0.00 | 66 | 1016.3 |
| 20260902032455 | 26 | 229 | 3.2 | 4.8 | 0.00 | 0.00 | 0.00 | 66 | 1016.3 |
| 20260902032335 | 26 | 226 | 3.2 | 4.8 | 0.00 | 0.00 | 0.00 | 66 | 1016.3 |
| 20260902032254 | 26 | 226 | 3.2 | 4.8 | 0.00 | 0.00 | 0.00 | 66 | 1016.3 |
| 20260902032131 | 26 | 229 | 3.2 | 4.8 | 0.00 | 0.00 | 0.00 | 66 | 1016.3 |
| 20260902032030 | 26 | 229 | 4.8 | 4.8 | 0.00 | 0.00 | 0.00 | 66 | 1016.3 |
| 20260902031934 | 26 | 227 | 4.8 | 4.8 | 0.00 | 0.00 | 0.00 | 66 | 1016.3 |
| 20260902031831 | 26 | 229 | 4.8 | 4.8 | 0.00 | 0.00 | 0.00 | 67 | 1016.3 |
| 20260902031730 | 26 | 229 | 3.2 | 4.8 | 0.00 | 0.00 | 0.00 | 67 | 1016.3 |
| 20260902031701 | 26 | 229 | 4.8 | 4.8 | 0.00 | 0.00 | 0.00 | 67 | 1016.3 |
| 20260902031539 | 26 | 227 | 4.8 | 4.8 | 0.00 | 0.00 | 0.00 | 67 | 1016.3 |
| 20260902031437 | 26 | 229 | 4.8 | 4.8 | 0.00 | 0.00 | 0.00 | 67 | 1016.3 |
| 20260902031336 | 26 | 227 | 3.2 | 4.8 | 0.00 | 0.00 | 0.00 | 67 | 1016.3 |
| 20260902031237 | 26 | 229 | 4.8 | 4.8 | 0.00 | 0.00 | 0.00 | 67 | 1016.4 |
| 20260902031136 | 26 | 227 | 3.2 | 4.8 | 0.00 | 0.00 | 0.00 | 67 | 1016.4 |
| 20260902031035 | 26 | 229 | 4.8 | 4.8 | 0.00 | 0.00 | 0.00 | 67 | 1016.4 |
| 20260902030935 | 26 | 227 | 4.8 | 4.8 | 0.00 | 0.00 | 0.00 | 67 | 1016.4 |
| 20260902030833 | 26 | 229 | 4.8 | 4.8 | 0.00 | 0.00 | 0.00 | 66 | 1016.4 |
| 20260902030732 | 26 | 226 | 3.2 | 4.8 | 0.00 | 0.00 | 0.00 | 66 | 1016.4 |
| 20260902030631 | 26 | 226 | 3.2 | 4.8 | 0.00 | 0.00 | 0.00 | 66 | 1016.4 |
| 20260902030555 | 26 | 227 | 3.2 | 4.8 | 0.00 | 0.00 | 0.00 | 66 | 1016.4 |
| 20260902030453 | 26 | 226 | 3.2 | 4.8 | 0.00 | 0.00 | 0.00 | 67 | 1016.4 |
| 20260902030350 | 26 | 229 | 3.2 | 4.8 | 0.00 | 0.00 | 0.00 | 67 | 1016.4 |
| 20260902030237 | 26 | 227 | 3.2 | 4.8 | 0.00 | 0.00 | 0.00 | 67 | 1016.4 |
| 20260902030148 | 26 | 229 | 4.8 | 4.8 | 0.00 | 0.00 | 0.00 | 67 | 1016.4 |
| 20260902030024 | 26 | 229 | 4.8 | 4.8 | 0.00 | 0.00 | 0.00 | 66 | 1016.4 |
| 20260902025942 | 26 | 229 | 4.8 | 4.8 | 0.00 | 0.00 | 0.00 | 66 | 1016.4 |
| 20260902025840 | 26 | 229 | 3.2 | 4.8 | 0.00 | 0.00 | 0.00 | 66 | 1016.4 |
| 20260902025740 | 26 | 229 | 3.2 | 4.8 | 0.00 | 0.00 | 0.00 | 65 | 1016.4 |
| 20260902025642 | 26 | 227 | 3.2 | 4.8 | 0.00 | 0.00 | 0.00 | 65 | 1016.4 |
| 20260902025541 | 26 | 227 | 3.2 | 4.8 | 0.00 | 0.00 | 0.00 | 65 | 1016.4 |
| 20260902025500 | 26 | 226 | 3.2 | 4.8 | 0.00 | 0.00 | 0.00 | 65 | 1016.4 |
| 20260902025340 | 26 | 227 | 3.2 | 4.8 | 0.00 | 0.00 | 0.00 | 65 | 1016.4 |
| 20260902025237 | 26 | 227 | 3.2 | 4.8 | 0.00 | 0.00 | 0.00 | 65 | 1016.4 |
| 20260902025135 | 26 | 229 | 3.2 | 4.8 | 0.00 | 0.00 | 0.00 | 65 | 1016.4 |
| 20260902025054 | 26 | 229 | 3.2 | 4.8 | 0.00 | 0.00 | 0.00 | 65 | 1016.4 |
| 20260902024930 | 26 | 229 | 3.2 | 4.8 | 0.00 | 0.00 | 0.00 | 65 | 1016.4 |
| 20260902024833 | 26 | 227 | 3.2 | 4.8 | 0.00 | 0.00 | 0.00 | 65 | 1016.4 |
| 20260902024732 | 26 | 229 | 3.2 | 4.8 | 0.00 | 0.00 | 0.00 | 65 | 1016.4 |
| 20260902024702 | 26 | 227 | 3.2 | 4.8 | 0.00 | 0.00 | 0.00 | 65 | 1016.4 |
| 20260902024540 | 26 | 229 | 3.2 | 4.8 | 0.00 | 0.00 | 0.00 | 65 | 1016.4 |
| 20260902024439 | 26 | 226 | 3.2 | 4.8 | 0.00 | 0.00 | 0.00 | 65 | 1016.4 |
| 20260902024339 | 26 | 227 | 3.2 | 4.8 | 0.00 | 0.00 | 0.00 | 65 | 1016.4 |
| 20260902024257 | 26 | 229 | 3.2 | 4.8 | 0.00 | 0.00 | 0.00 | 65 | 1016.3 |
| 20260902024154 | 26 | 229 | 3.2 | 4.8 | 0.00 | 0.00 | 0.00 | 65 | 1016.3 |
| 20260902024034 | 26 | 229 | 3.2 | 4.8 | 0.00 | 0.00 | 0.00 | 65 | 1016.3 |
| 20260902023933 | 26 | 226 | 3.2 | 4.8 | 0.00 | 0.00 | 0.00 | 65 | 1016.3 |
| 20260902023831 | 26 | 227 | 3.2 | 4.8 | 0.00 | 0.00 | 0.00 | 65 | 1016.3 |
| 20260902023730 | 26 | 227 | 3.2 | 4.8 | 0.00 | 0.00 | 0.00 | 65 | 1016.3 |
| 20260902023629 | 26 | 226 | 3.2 | 4.8 | 0.00 | 0.00 | 0.00 | 65 | 1016.3 |
| 20260902023526 | 26 | 224 | 3.2 | 4.8 | 0.00 | 0.00 | 0.00 | 65 | 1016.3 |
| 20260902023444 | 26 | 229 | 3.2 | 4.8 | 0.00 | 0.00 | 0.00 | 65 | 1016.3 |
| 20260902023326 | 26 | 229 | 3.2 | 4.8 | 0.00 | 0.00 | 0.00 | 65 | 1016.3 |
| 20260902023224 | 26 | 226 | 3.2 | 4.8 | 0.00 | 0.00 | 0.00 | 65 | 1016.3 |
| 20260902023155 | 26 | 229 | 3.2 | 4.8 | 0.00 | 0.00 | 0.00 | 64 | 1016.3 |
| 20260902023032 | 26 | 229 | 3.2 | 3.2 | 0.00 | 0.00 | 0.00 | 64 | 1016.3 |
| 20260902022931 | 26 | 229 | 0.0 | 3.2 | 0.00 | 0.00 | 0.00 | 64 | 1016.3 |
| 20260902022852 | 26 | 229 | 0.0 | 0.0 | 0.00 | 0.00 | 0.00 | 64 | 1016.3 |
| 20260902022730 | 26 | 227 | 0.0 | 0.0 | 0.00 | 0.00 | 0.00 | 64 | 1016.3 |
| 20260902022649 | 26 | 229 | 0.0 | 0.0 | 0.00 | 0.00 | 0.00 | 64 | 1016.3 |
| 20260902022532 | 26 | 229 | 0.0 | 0.0 | 0.00 | 0.00 | 0.00 | 64 | 1016.3 |
| 20260902022429 | 26 | 227 | 0.0 | 0.0 | 0.00 | 0.00 | 0.00 | 64 | 1016.3 |
| 20260902022328 | 26 | 227 | 0.0 | 0.0 | 0.00 | 0.00 | 0.00 | 64 | 1016.3 |
| 20260902022226 | 26 | 229 | 0.0 | 0.0 | 0.00 | 0.00 | 0.00 | 64 | 1016.3 |
| 20260902022144 | 26 | 229 | 0.0 | 0.0 | 0.00 | 0.00 | 0.00 | 64 | 1016.3 |
| 20260902022103 | 26 | 229 | 0.0 | 0.0 | 0.00 | 0.00 | 0.00 | 64 | 1016.3 |
| 20260902021940 | 26 | 227 | 0.0 | 0.0 | 0.00 | 0.00 | 0.00 | 64 | 1016.3 |
| 20260902021842 | 26 | 229 | 0.0 | 0.0 | 0.00 | 0.00 | 0.00 | 64 | 1016.3 |
| 20260902021740 | 26 | 229 | 0.0 | 0.0 | 0.00 | 0.00 | 0.00 | 64 | 1016.3 |
| 20260902021710 | 26 | 224 | 0.0 | 0.0 | 0.00 | 0.00 | 0.00 | 64 | 1016.3 |
| 20260902021527 | 26 | 229 | 0.0 | 0.0 | 0.00 | 0.00 | 0.00 | 64 | 1016.3 |
| 20260902021425 | 26 | 229 | 0.0 | 0.0 | 0.00 | 0.00 | 0.00 | 64 | 1016.3 |
| 20260902021343 | 26 | 227 | 0.0 | 0.0 | 0.00 | 0.00 | 0.00 | 64 | 1016.3 |
| 20260902021242 | 26 | 226 | 0.0 | 0.0 | 0.00 | 0.00 | 0.00 | 64 | 1016.2 |
| 20260902021125 | 26 | 227 | 0.0 | 0.0 | 0.00 | 0.00 | 0.00 | 64 | 1016.2 |
| 20260902021042 | 26 | 227 | 0.0 | 0.0 | 0.00 | 0.00 | 0.00 | 63 | 1016.2 |
| 20260902020941 | 26 | 227 | 0.0 | 0.0 | 0.00 | 0.00 | 0.00 | 63 | 1016.2 |
| 20260902020839 | 26 | 227 | 0.0 | 0.0 | 0.00 | 0.00 | 0.00 | 63 | 1016.2 |
| 20260902020738 | 26 | 229 | 0.0 | 0.0 | 0.00 | 0.00 | 0.00 | 63 | 1016.2 |
| 20260902020638 | 26 | 229 | 0.0 | 0.0 | 0.00 | 0.00 | 0.00 | 63 | 1016.2 |
| 20260902020537 | 26 | 226 | 0.0 | 0.0 | 0.00 | 0.00 | 0.00 | 63 | 1016.2 |
| 20260902020439 | 27 | 229 | 0.0 | 0.0 | 0.00 | 0.00 | 0.00 | 63 | 1016.2 |
| 20260902020338 | 27 | 227 | 0.0 | 0.0 | 0.00 | 0.00 | 0.00 | 63 | 1016.2 |
| 20260902020236 | 27 | 229 | 0.0 | 0.0 | 0.00 | 0.00 | 0.00 | 63 | 1016.2 |
| 20260902020205 | 27 | 229 | 0.0 | 0.0 | 0.00 | 0.00 | 0.00 | 63 | 1016.2 |
| 20260902020042 | 27 | 229 | 0.0 | 0.0 | 0.00 | 0.00 | 0.00 | 63 | 1016.2 |
| 20260902020001 | 27 | 229 | 0.0 | 0.0 | 0.00 | 0.00 | 0.00 | 63 | 1016.2 |
| 20260902015839 | 27 | 229 | 0.0 | 0.0 | 0.00 | 0.00 | 0.00 | 63 | 1016.2 |
| 20260902015738 | 27 | 227 | 0.0 | 0.0 | 0.00 | 0.00 | 0.00 | 63 | 1016.0 |
| 20260902015640 | 27 | 229 | 0.0 | 0.0 | 0.00 | 0.00 | 0.00 | 63 | 1016.0 |
| 20260902015538 | 27 | 229 | 0.0 | 3.2 | 0.00 | 0.00 | 0.00 | 63 | 1016.0 |
| 20260902015438 | 27 | 227 | 0.0 | 3.2 | 0.00 | 0.00 | 0.00 | 63 | 1016.0 |
| 20260902015341 | 27 | 229 | 0.0 | 3.2 | 0.00 | 0.00 | 0.00 | 63 | 1016.0 |
| 20260902015239 | 27 | 227 | 0.0 | 3.2 | 0.00 | 0.00 | 0.00 | 63 | 1016.0 |
| 20260902015157 | 27 | 229 | 0.0 | 3.2 | 0.00 | 0.00 | 0.00 | 63 | 1016.0 |
| 20260902015034 | 27 | 229 | 0.0 | 3.2 | 0.00 | 0.00 | 0.00 | 63 | 1016.0 |
| 20260902014958 | 27 | 229 | 0.0 | 3.2 | 0.00 | 0.00 | 0.00 | 63 | 1016.0 |
| 20260902014835 | 27 | 229 | 0.0 | 4.8 | 0.00 | 0.00 | 0.00 | 63 | 1016.0 |
| 20260902014732 | 27 | 229 | 1.6 | 4.8 | 0.00 | 0.00 | 0.00 | 63 | 1016.0 |
| 20260902014702 | 27 | 226 | 1.6 | 4.8 | 0.00 | 0.00 | 0.00 | 63 | 1016.0 |
| 20260902014540 | 27 | 229 | 1.6 | 4.8 | 0.00 | 0.00 | 0.00 | 63 | 1016.0 |
| 20260902014440 | 27 | 229 | 1.6 | 4.8 | 0.00 | 0.00 | 0.00 | 63 | 1016.0 |
| 20260902014357 | 27 | 229 | 1.6 | 8.0 | 0.00 | 0.00 | 0.00 | 62 | 1016.0 |
| 20260902014255 | 27 | 223 | 1.6 | 8.0 | 0.00 | 0.00 | 0.00 | 63 | 1015.9 |
| 20260902014133 | 27 | 227 | 1.6 | 8.0 | 0.00 | 0.00 | 0.00 | 63 | 1015.9 |
| 20260902014057 | 27 | 229 | 3.2 | 8.0 | 0.00 | 0.00 | 0.00 | 63 | 1015.9 |
| 20260902013934 | 27 | 227 | 3.2 | 8.0 | 0.00 | 0.00 | 0.00 | 62 | 1015.9 |
| 20260902013834 | 27 | 227 | 3.2 | 8.0 | 0.00 | 0.00 | 0.00 | 62 | 1015.9 |
| 20260902013732 | 27 | 227 | 3.2 | 8.0 | 0.00 | 0.00 | 0.00 | 63 | 1015.9 |
| 20260902013630 | 27 | 222 | 1.6 | 8.0 | 0.00 | 0.00 | 0.00 | 63 | 1015.9 |
| 20260902013529 | 27 | 227 | 4.8 | 8.0 | 0.00 | 0.00 | 0.00 | 63 | 1015.9 |
| 20260902013427 | 27 | 229 | 1.6 | 8.0 | 0.00 | 0.00 | 0.00 | 62 | 1015.9 |
| 20260902013331 | 27 | 224 | 4.8 | 8.0 | 0.00 | 0.00 | 0.00 | 62 | 1015.9 |
| 20260902013250 | 27 | 229 | 4.8 | 8.0 | 0.00 | 0.00 | 0.00 | 62 | 1015.9 |
| 20260902013158 | 27 | 227 | 3.2 | 8.0 | 0.00 | 0.00 | 0.00 | 62 | 1015.9 |
| 20260902013035 | 27 | 229 | 3.2 | 8.0 | 0.00 | 0.00 | 0.00 | 62 | 1015.9 |
| 20260902012953 | 27 | 227 | 4.8 | 8.0 | 0.00 | 0.00 | 0.00 | 62 | 1015.9 |
| 20260902012830 | 27 | 229 | 4.8 | 8.0 | 0.00 | 0.00 | 0.00 | 63 | 1015.9 |
| 20260902012729 | 27 | 229 | 4.8 | 8.0 | 0.00 | 0.00 | 0.00 | 63 | 1015.7 |
| 20260902012627 | 27 | 229 | 4.8 | 8.0 | 0.00 | 0.00 | 0.00 | 63 | 1015.7 |
| 20260902012530 | 27 | 209 | 3.2 | 8.0 | 0.00 | 0.00 | 0.00 | 63 | 1015.7 |
| 20260902012428 | 27 | 229 | 4.8 | 8.0 | 0.00 | 0.00 | 0.00 | 62 | 1015.7 |
| 20260902012327 | 27 | 226 | 4.8 | 8.0 | 0.00 | 0.00 | 0.00 | 62 | 1015.7 |
| 20260902012225 | 27 | 229 | 4.8 | 8.0 | 0.00 | 0.00 | 0.00 | 62 | 1015.7 |
| 20260902012123 | 27 | 229 | 4.8 | 8.0 | 0.00 | 0.00 | 0.00 | 62 | 1015.7 |
| 20260902012045 | 27 | 229 | 4.8 | 8.0 | 0.00 | 0.00 | 0.00 | 62 | 1015.7 |
| 20260902011943 | 27 | 229 | 4.8 | 8.0 | 0.00 | 0.00 | 0.00 | 62 | 1015.7 |
| 20260902011902 | 27 | 226 | 6.4 | 8.0 | 0.00 | 0.00 | 0.00 | 63 | 1015.7 |
| 20260902011804 | 27 | 229 | 4.8 | 8.0 | 0.00 | 0.00 | 0.00 | 63 | 1015.7 |
| 20260902011711 | 27 | 223 | 6.4 | 8.0 | 0.00 | 0.00 | 0.00 | 63 | 1015.7 |
| 20260902011548 | 27 | 229 | 4.8 | 8.0 | 0.00 | 0.00 | 0.00 | 62 | 1015.7 |
| 20260902011425 | 27 | 229 | 6.4 | 8.0 | 0.00 | 0.00 | 0.00 | 62 | 1015.7 |
| 20260902011344 | 27 | 229 | 4.8 | 8.0 | 0.00 | 0.00 | 0.00 | 62 | 1015.7 |
| 20260902011301 | 27 | 229 | 4.8 | 8.0 | 0.00 | 0.00 | 0.00 | 62 | 1015.6 |
| 20260902011138 | 27 | 227 | 6.4 | 8.0 | 0.00 | 0.00 | 0.00 | 62 | 1015.6 |
| 20260902011057 | 27 | 229 | 4.8 | 8.0 | 0.00 | 0.00 | 0.00 | 62 | 1015.6 |
| 20260902010934 | 27 | 226 | 4.8 | 8.0 | 0.00 | 0.00 | 0.00 | 62 | 1015.6 |
| 20260902010839 | 27 | 229 | 4.8 | 8.0 | 0.00 | 0.00 | 0.00 | 62 | 1015.6 |
| 20260902010737 | 27 | 230 | 4.8 | 8.0 | 0.00 | 0.00 | 0.00 | 62 | 1015.6 |
| 20260902010655 | 27 | 227 | 3.2 | 8.0 | 0.00 | 0.00 | 0.00 | 62 | 1015.6 |
| 20260902010532 | 27 | 229 | 4.8 | 8.0 | 0.00 | 0.00 | 0.00 | 62 | 1015.6 |
| 20260902010430 | 27 | 229 | 3.2 | 8.0 | 0.00 | 0.00 | 0.00 | 62 | 1015.6 |
| 20260902010329 | 27 | 227 | 4.8 | 9.7 | 0.00 | 0.00 | 0.00 | 62 | 1015.6 |
| 20260902010248 | 27 | 226 | 6.4 | 9.7 | 0.00 | 0.00 | 0.00 | 62 | 1015.6 |
| 20260902010219 | 27 | 227 | 4.8 | 9.7 | 0.00 | 0.00 | 0.00 | 62 | 1015.6 |
| 20260902010040 | 27 | 227 | 4.8 | 9.7 | 0.00 | 0.00 | 0.00 | 62 | 1015.6 |
| 20260902005939 | 27 | 226 | 3.2 | 9.7 | 0.00 | 0.00 | 0.00 | 62 | 1015.6 |
| 20260902005857 | 27 | 226 | 4.8 | 11.3 | 0.00 | 0.00 | 0.00 | 62 | 1015.6 |
| 20260902005754 | 27 | 223 | 4.8 | 11.3 | 0.00 | 0.00 | 0.00 | 62 | 1015.6 |
| 20260902005631 | 27 | 227 | 6.4 | 11.3 | 0.00 | 0.00 | 0.00 | 62 | 1015.6 |
| 20260902005533 | 27 | 226 | 4.8 | 11.3 | 0.00 | 0.00 | 0.00 | 63 | 1015.6 |
| 20260902005436 | 27 | 226 | 6.4 | 11.3 | 0.00 | 0.00 | 0.00 | 63 | 1015.6 |
| 20260902005335 | 27 | 220 | 6.4 | 11.3 | 0.00 | 0.00 | 0.00 | 63 | 1015.6 |
| 20260902005236 | 27 | 222 | 4.8 | 11.3 | 0.00 | 0.00 | 0.00 | 62 | 1015.6 |
| 20260902005135 | 27 | 224 | 4.8 | 11.3 | 0.00 | 0.00 | 0.00 | 62 | 1015.6 |
| 20260902005034 | 27 | 223 | 6.4 | 11.3 | 0.00 | 0.00 | 0.00 | 62 | 1015.6 |
| 20260902004931 | 27 | 223 | 6.4 | 9.7 | 0.00 | 0.00 | 0.00 | 62 | 1015.6 |
| 20260902004852 | 27 | 224 | 3.2 | 9.7 | 0.00 | 0.00 | 0.00 | 62 | 1015.6 |
| 20260902004728 | 27 | 224 | 6.4 | 9.7 | 0.00 | 0.00 | 0.00 | 62 | 1015.6 |
| 20260902004657 | 27 | 223 | 6.4 | 9.7 | 0.00 | 0.00 | 0.00 | 62 | 1015.6 |
| 20260902004535 | 27 | 222 | 4.8 | 9.7 | 0.00 | 0.00 | 0.00 | 62 | 1015.6 |
| 20260902004438 | 27 | 223 | 3.2 | 9.7 | 0.00 | 0.00 | 0.00 | 62 | 1015.6 |
| 20260902004337 | 27 | 224 | 4.8 | 9.7 | 0.00 | 0.00 | 0.00 | 62 | 1015.6 |
| 20260902004234 | 27 | 224 | 6.4 | 9.7 | 0.00 | 0.00 | 0.00 | 62 | 1015.5 |
| 20260902004133 | 27 | 226 | 4.8 | 9.7 | 0.00 | 0.00 | 0.00 | 62 | 1015.5 |
| 20260902004031 | 27 | 226 | 8.0 | 9.7 | 0.00 | 0.00 | 0.00 | 62 | 1015.5 |
| 20260902003930 | 27 | 224 | 4.8 | 9.7 | 0.00 | 0.00 | 0.00 | 63 | 1015.5 |
| 20260902003833 | 27 | 226 | 6.4 | 9.7 | 0.00 | 0.00 | 0.00 | 63 | 1015.5 |
| 20260902003735 | 27 | 226 | 4.8 | 9.7 | 0.00 | 0.00 | 0.00 | 62 | 1015.5 |
| 20260902003633 | 28 | 227 | 4.8 | 9.7 | 0.00 | 0.00 | 0.00 | 62 | 1015.5 |
| 20260902003532 | 28 | 226 | 6.4 | 9.7 | 0.00 | 0.00 | 0.00 | 62 | 1015.5 |
| 20260902003431 | 28 | 227 | 4.8 | 9.7 | 0.00 | 0.00 | 0.00 | 62 | 1015.5 |
| 20260902003330 | 28 | 224 | 4.8 | 9.7 | 0.00 | 0.00 | 0.00 | 62 | 1015.5 |
| 20260902003239 | 28 | 227 | 6.4 | 11.3 | 0.00 | 0.00 | 0.00 | 62 | 1015.5 |
| 20260902003152 | 28 | 229 | 8.0 | 11.3 | 0.00 | 0.00 | 0.00 | 62 | 1015.5 |
| 20260902003029 | 28 | 230 | 6.4 | 11.3 | 0.00 | 0.00 | 0.00 | 62 | 1015.5 |
| 20260902002928 | 28 | 232 | 4.8 | 11.3 | 0.00 | 0.00 | 0.00 | 62 | 1015.5 |
| 20260902002826 | 28 | 226 | 4.8 | 11.3 | 0.00 | 0.00 | 0.00 | 62 | 1015.5 |
| 20260902002743 | 28 | 227 | 4.8 | 11.3 | 0.00 | 0.00 | 0.00 | 62 | 1015.5 |
| 20260902002641 | 28 | 227 | 6.4 | 11.3 | 0.00 | 0.00 | 0.00 | 62 | 1015.5 |
| 20260902002540 | 28 | 227 | 6.4 | 11.3 | 0.00 | 0.00 | 0.00 | 62 | 1015.5 |
| 20260902002443 | 28 | 229 | 6.4 | 11.3 | 0.00 | 0.00 | 0.00 | 61 | 1015.5 |
| 20260902002341 | 28 | 227 | 9.7 | 11.3 | 0.00 | 0.00 | 0.00 | 61 | 1015.5 |
| 20260902002301 | 28 | 233 | 6.4 | 11.3 | 0.00 | 0.00 | 0.00 | 61 | 1015.5 |
| 20260902002138 | 28 | 263 | 3.2 | 9.7 | 0.00 | 0.00 | 0.00 | 61 | 1015.5 |
| 20260902002058 | 28 | 264 | 4.8 | 9.7 | 0.00 | 0.00 | 0.00 | 61 | 1015.5 |
| 20260902001955 | 28 | 267 | 4.8 | 9.7 | 0.00 | 0.00 | 0.00 | 61 | 1015.5 |
| 20260902001913 | 28 | 267 | 3.2 | 9.7 | 0.00 | 0.00 | 0.00 | 61 | 1015.5 |
| 20260902001811 | 28 | 268 | 4.8 | 9.7 | 0.00 | 0.00 | 0.00 | 60 | 1015.5 |
| 20260902001658 | 28 | 267 | 6.4 | 9.7 | 0.00 | 0.00 | 0.00 | 60 | 1015.5 |
| 20260902001536 | 28 | 268 | 3.2 | 9.7 | 0.00 | 0.00 | 0.00 | 60 | 1015.5 |
| 20260902001438 | 28 | 268 | 6.4 | 9.7 | 0.00 | 0.00 | 0.00 | 60 | 1015.5 |
| 20260902001336 | 28 | 281 | 4.8 | 9.7 | 0.00 | 0.00 | 0.00 | 60 | 1015.5 |
| 20260902001235 | 28 | 288 | 4.8 | 9.7 | 0.00 | 0.00 | 0.00 | 61 | 1015.6 |
| 20260902001133 | 28 | 288 | 3.2 | 9.7 | 0.00 | 0.00 | 0.00 | 61 | 1015.6 |
| 20260902001032 | 28 | 292 | 4.8 | 9.7 | 0.00 | 0.00 | 0.00 | 61 | 1015.6 |
| 20260902000932 | 28 | 360 | 3.2 | 4.8 | 0.00 | 0.00 | 0.00 | 61 | 1015.6 |
| 20260902000833 | 28 | 360 | 1.6 | 3.2 | 0.00 | 0.00 | 0.00 | 61 | 1015.6 |
| 20260902000732 | 28 | 360 | 0.0 | 0.0 | 0.00 | 0.00 | 0.00 | 61 | 1015.6 |
| 20260902000630 | 28 | 360 | 0.0 | 0.0 | 0.00 | 0.00 | 0.00 | 60 | 1015.6 |
| 20260902000529 | 28 | 360 | 0.0 | 0.0 | 0.00 | 0.00 | 0.00 | 60 | 1015.6 |
| 20260902000429 | 28 | 360 | 0.0 | 0.0 | 0.00 | 0.00 | 0.00 | 60 | 1015.6 |
| 20260902000325 | 28 | 360 | 0.0 | 0.0 | 0.00 | 0.00 | 0.00 | 60 | 1015.6 |
| 20260902000235 | 28 | 360 | 0.0 | 0.0 | 0.00 | 0.00 | 0.00 | 60 | 1015.6 |
| 20260902000149 | 28 | 360 | 0.0 | 0.0 | 0.00 | 0.00 | 0.00 | 60 | 1015.6 |
| 20260902000026 | 28 | 360 | 0.0 | 0.0 | 0.00 | 0.00 | 0.00 | 60 | 1015.6 |
| 20260901235944 | 28 | 360 | 0.0 | 0.0 | 0.00 | 0.00 | 0.00 | 60 | 1015.6 |
| 20260901235903 | 28 | 360 | 0.0 | 0.0 | 0.00 | 0.00 | 0.00 | 60 | 1015.6 |
| 20260901235740 | 28 | 360 | 0.0 | 0.0 | 0.00 | 0.00 | 0.00 | 60 | 1015.6 |
| 20260901235639 | 28 | 1 | 0.0 | 0.0 | 0.00 | 0.00 | 0.00 | 60 | 1015.6 |
| 20260901235537 | 28 | 1 | 0.0 | 0.0 | 0.00 | 0.00 | 0.00 | 60 | 1015.6 |
| 20260901235436 | 28 | 1 | 0.0 | 0.0 | 0.00 | 0.00 | 0.00 | 60 | 1015.6 |
| 20260901235338 | 28 | 360 | 0.0 | 0.0 | 0.00 | 0.00 | 0.00 | 60 | 1015.6 |
| 20260901235236 | 28 | 360 | 0.0 | 0.0 | 0.00 | 0.00 | 0.00 | 60 | 1015.6 |
| 20260901235135 | 28 | 1 | 0.0 | 0.0 | 0.00 | 0.00 | 0.00 | 60 | 1015.6 |
| 20260901235033 | 28 | 360 | 0.0 | 0.0 | 0.00 | 0.00 | 0.00 | 60 | 1015.6 |
| 20260901234932 | 28 | 360 | 0.0 | 0.0 | 0.00 | 0.00 | 0.00 | 59 | 1015.6 |
| 20260901234831 | 28 | 360 | 0.0 | 0.0 | 0.00 | 0.00 | 0.00 | 59 | 1015.6 |
| 20260901234733 | 28 | 360 | 0.0 | 0.0 | 0.00 | 0.00 | 0.00 | 59 | 1015.6 |
| 20260901234703 | 28 | 360 | 0.0 | 0.0 | 0.00 | 0.00 | 0.00 | 59 | 1015.6 |
| 20260901234541 | 28 | 360 | 0.0 | 0.0 | 0.00 | 0.00 | 0.00 | 59 | 1015.6 |
| 20260901234440 | 28 | 360 | 0.0 | 0.0 | 0.00 | 0.00 | 0.00 | 59 | 1015.6 |
| 20260901234338 | 28 | 360 | 0.0 | 0.0 | 0.00 | 0.00 | 0.00 | 59 | 1015.6 |
| 20260901234258 | 28 | 360 | 0.0 | 0.0 | 0.00 | 0.00 | 0.00 | 59 | 1015.6 |
| 20260901234134 | 28 | 360 | 0.0 | 0.0 | 0.00 | 0.00 | 0.00 | 60 | 1015.6 |
| 20260901234032 | 28 | 360 | 0.0 | 0.0 | 0.00 | 0.00 | 0.00 | 60 | 1015.6 |
| 20260901233956 | 28 | 360 | 0.0 | 0.0 | 0.00 | 0.00 | 0.00 | 60 | 1015.6 |
| 20260901233832 | 28 | 360 | 0.0 | 0.0 | 0.00 | 0.00 | 0.00 | 60 | 1015.6 |
| 20260901233731 | 28 | 1 | 0.0 | 0.0 | 0.00 | 0.00 | 0.00 | 60 | 1015.6 |
| 20260901233630 | 28 | 360 | 0.0 | 0.0 | 0.00 | 0.00 | 0.00 | 60 | 1015.6 |
| 20260901233528 | 28 | 360 | 0.0 | 0.0 | 0.00 | 0.00 | 0.00 | 60 | 1015.6 |
| 20260901233427 | 29 | 1 | 0.0 | 0.0 | 0.00 | 0.00 | 0.00 | 60 | 1015.6 |
| 20260901233325 | 29 | 360 | 0.0 | 0.0 | 0.00 | 0.00 | 0.00 | 60 | 1015.6 |
| 20260901233228 | 29 | 360 | 0.0 | 0.0 | 0.00 | 0.00 | 0.00 | 60 | 1015.6 |
| 20260901233158 | 29 | 3 | 0.0 | 0.0 | 0.00 | 0.00 | 0.00 | 60 | 1015.6 |
| 20260901233035 | 29 | 360 | 0.0 | 0.0 | 0.00 | 0.00 | 0.00 | 60 | 1015.6 |
| 20260901232935 | 29 | 1 | 0.0 | 0.0 | 0.00 | 0.00 | 0.00 | 59 | 1015.6 |
| 20260901232833 | 29 | 1 | 0.0 | 0.0 | 0.00 | 0.00 | 0.00 | 59 | 1015.6 |
| 20260901232730 | 29 | 360 | 0.0 | 0.0 | 0.00 | 0.00 | 0.00 | 59 | 1015.7 |
| 20260901232629 | 29 | 360 | 0.0 | 0.0 | 0.00 | 0.00 | 0.00 | 59 | 1015.7 |
| 20260901232533 | 29 | 360 | 0.0 | 0.0 | 0.00 | 0.00 | 0.00 | 59 | 1015.7 |
| 20260901232430 | 29 | 360 | 0.0 | 0.0 | 0.00 | 0.00 | 0.00 | 59 | 1015.7 |
| 20260901232328 | 29 | 360 | 0.0 | 0.0 | 0.00 | 0.00 | 0.00 | 59 | 1015.7 |
| 20260901232228 | 29 | 360 | 0.0 | 0.0 | 0.00 | 0.00 | 0.00 | 59 | 1015.7 |
| 20260901232126 | 29 | 360 | 0.0 | 0.0 | 0.00 | 0.00 | 0.00 | 59 | 1015.7 |
| 20260901232025 | 29 | 360 | 0.0 | 0.0 | 0.00 | 0.00 | 0.00 | 59 | 1015.7 |
| 20260901231924 | 29 | 360 | 0.0 | 0.0 | 0.00 | 0.00 | 0.00 | 59 | 1015.7 |
| 20260901231827 | 29 | 360 | 0.0 | 0.0 | 0.00 | 0.00 | 0.00 | 59 | 1015.7 |
| 20260901231735 | 29 | 360 | 0.0 | 0.0 | 0.00 | 0.00 | 0.00 | 59 | 1015.7 |
| 20260901231645 | 29 | 1 | 0.0 | 0.0 | 0.00 | 0.00 | 0.00 | 59 | 1015.7 |
| 20260901231524 | 29 | 360 | 0.0 | 0.0 | 0.00 | 0.00 | 0.00 | 59 | 1015.7 |
| 20260901231442 | 29 | 360 | 0.0 | 0.0 | 0.00 | 0.00 | 0.00 | 59 | 1015.7 |
| 20260901231341 | 29 | 360 | 0.0 | 0.0 | 0.00 | 0.00 | 0.00 | 58 | 1015.7 |
| 20260901231240 | 29 | 360 | 0.0 | 0.0 | 0.00 | 0.00 | 0.00 | 58 | 1015.7 |
| 20260901231142 | 29 | 360 | 0.0 | 0.0 | 0.00 | 0.00 | 0.00 | 58 | 1015.7 |
| 20260901231041 | 29 | 360 | 0.0 | 0.0 | 0.00 | 0.00 | 0.00 | 57 | 1015.7 |
| 20260901230940 | 29 | 360 | 0.0 | 0.0 | 0.00 | 0.00 | 0.00 | 57 | 1015.7 |
| 20260901230841 | 29 | 360 | 0.0 | 0.0 | 0.00 | 0.00 | 0.00 | 57 | 1015.7 |
| 20260901230759 | 29 | 360 | 0.0 | 0.0 | 0.00 | 0.00 | 0.00 | 57 | 1015.7 |
| 20260901230635 | 29 | 360 | 0.0 | 0.0 | 0.00 | 0.00 | 0.00 | 57 | 1015.7 |
| 20260901230553 | 29 | 360 | 0.0 | 0.0 | 0.00 | 0.00 | 0.00 | 57 | 1015.7 |
| 20260901230432 | 29 | 360 | 0.0 | 0.0 | 0.00 | 0.00 | 0.00 | 58 | 1015.7 |
| 20260901230333 | 29 | 360 | 0.0 | 0.0 | 0.00 | 0.00 | 0.00 | 58 | 1015.7 |
| 20260901230244 | 29 | 360 | 0.0 | 0.0 | 0.00 | 0.00 | 0.00 | 58 | 1015.7 |
| 20260901230155 | 29 | 360 | 0.0 | 0.0 | 0.00 | 0.00 | 0.00 | 58 | 1015.7 |
| 20260901230033 | 29 | 360 | 0.0 | 0.0 | 0.00 | 0.00 | 0.00 | 58 | 1015.7 |
| 20260901225931 | 29 | 360 | 0.0 | 0.0 | 0.00 | 0.00 | 0.00 | 58 | 1015.7 |
| 20260901225830 | 29 | 360 | 0.0 | 0.0 | 0.00 | 0.00 | 0.00 | 57 | 1015.7 |
| 20260901225727 | 29 | 360 | 0.0 | 0.0 | 0.00 | 0.00 | 0.00 | 58 | 1015.5 |
| 20260901225630 | 29 | 360 | 0.0 | 0.0 | 0.00 | 0.00 | 0.00 | 58 | 1015.5 |
| 20260901225529 | 29 | 360 | 0.0 | 0.0 | 0.00 | 0.00 | 0.00 | 57 | 1015.5 |
| 20260901225431 | 29 | 1 | 0.0 | 0.0 | 0.00 | 0.00 | 0.00 | 56 | 1015.5 |
| 20260901225330 | 29 | 360 | 0.0 | 0.0 | 0.00 | 0.00 | 0.00 | 55 | 1015.5 |
| 20260901225249 | 29 | 360 | 0.0 | 0.0 | 0.00 | 0.00 | 0.00 | 55 | 1015.5 |
| 20260901225206 | 29 | 360 | 0.0 | 0.0 | 0.00 | 0.00 | 0.00 | 55 | 1015.5 |
| 20260901225104 | 30 | 3 | 0.0 | 0.0 | 0.00 | 0.00 | 0.00 | 56 | 1015.5 |
| 20260901224941 | 30 | 360 | 0.0 | 0.0 | 0.00 | 0.00 | 0.00 | 56 | 1015.5 |
| 20260901224859 | 30 | 360 | 0.0 | 0.0 | 0.00 | 0.00 | 0.00 | 57 | 1015.5 |
| 20260901224801 | 30 | 1 | 0.0 | 0.0 | 0.00 | 0.00 | 0.00 | 58 | 1015.5 |
| 20260901224709 | 30 | 360 | 0.0 | 0.0 | 0.00 | 0.00 | 0.00 | 57 | 1015.5 |
| 20260901224546 | 30 | 1 | 0.0 | 0.0 | 0.00 | 0.00 | 0.00 | 57 | 1015.5 |
| 20260901224444 | 30 | 360 | 0.0 | 0.0 | 0.00 | 0.00 | 0.00 | 57 | 1015.5 |
| 20260901224341 | 30 | 360 | 0.0 | 0.0 | 0.00 | 0.00 | 0.00 | 57 | 1015.5 |
| 20260901224240 | 30 | 1 | 0.0 | 0.0 | 0.00 | 0.00 | 0.00 | 57 | 1015.5 |
| 20260901224139 | 30 | 360 | 0.0 | 0.0 | 0.00 | 0.00 | 0.00 | 57 | 1015.5 |
| 20260901224056 | 30 | 360 | 0.0 | 0.0 | 0.00 | 0.00 | 0.00 | 56 | 1015.5 |
| 20260901223934 | 30 | 1 | 0.0 | 0.0 | 0.00 | 0.00 | 0.00 | 56 | 1015.5 |
| 20260901223836 | 30 | 360 | 0.0 | 0.0 | 0.00 | 0.00 | 0.00 | 56 | 1015.5 |
| 20260901223735 | 30 | 360 | 0.0 | 0.0 | 0.00 | 0.00 | 0.00 | 57 | 1015.5 |
| 20260901223635 | 30 | 360 | 0.0 | 0.0 | 0.00 | 0.00 | 0.00 | 56 | 1015.5 |
| 20260901223533 | 30 | 360 | 0.0 | 0.0 | 0.00 | 0.00 | 0.00 | 56 | 1015.5 |
| 20260901223451 | 30 | 360 | 0.0 | 0.0 | 0.00 | 0.00 | 0.00 | 56 | 1015.5 |
| 20260901223350 | 30 | 360 | 0.0 | 0.0 | 0.00 | 0.00 | 0.00 | 56 | 1015.5 |
| 20260901223249 | 30 | 360 | 0.0 | 0.0 | 0.00 | 0.00 | 0.00 | 56 | 1015.5 |
| 20260901223221 | 30 | 360 | 0.0 | 3.2 | 0.00 | 0.00 | 0.00 | 55 | 1015.5 |